[[{"header":{"parameterUnit":"m.s-1","parameterCategory":1,"la1":30.6,"la2":29.2853,"lo1":-89.7004,"lo2":-87.6739,"dy":0.0162,"dx":0.0183,"nx":112,"ny":82,"refTime":"2023-07-04T12:00:00:Z","depth":0,"parameterNumber":2,"parameterNumberName":"U-component_of_WINDS"},"data":[0.0,0.0,0.0,0.0,0.0,0.0,0.0,0.0,0.0,0.0,0.0,0.0,0.0,0.0,0.0,0.0,0.0,0.0,0.0,0.0,0.0,0.0,0.0,0.0,0.0,0.0,0.0,0.0,0.0,0.0,0.0,0.0,0.0,0.0,0.0,0.0,0.0,0.0,0.0,0.0,0.0,0.0,0.0,0.0,0.0,0.0,0.0,0.0,0.0,0.0,0.0,0.0,0.0,0.0,0.0,0.0,0.0,0.0,0.0,0.0,0.0,0.0,0.0,0.0,0.0,0.0,0.0,0.0,0.0,0.0,0.0,0.0,0.0,0.0,0.0,0.0,0.0,0.0,0.0,0.0,0.0,0.0,0.0,0.0,0.0,0.0,0.0,0.0,0.0,0.0,-1.8827,-1.8827,-1.8827,-1.8827,-1.8827,-1.8827,-1.8827,-1.8827,0.0,0.0,0.0,0.0,0.0,0.0,0.0,0.0,0.0,0.0,0.0,0.0,0.0,0.0,0.0,0.0,0.0,0.0,0.0,0.0,0.0,0.0,0.0,0.0,0.0,0.0,0.0,0.0,0.0,0.0,0.0,0.0,0.0,0.0,0.0,0.0,0.0,0.0,0.0,0.0,0.0,0.0,0.0,0.0,0.0,0.0,0.0,0.0,0.0,0.0,0.0,0.0,0.0,0.0,0.0,0.0,0.0,0.0,0.0,0.0,0.0,0.0,0.0,0.0,0.0,0.0,0.0,0.0,0.0,0.0,0.0,0.0,0.0,0.0,0.0,0.0,0.0,0.0,0.0,0.0,0.0,0.0,0.0,0.0,0.0,0.0,0.0,0.0,0.0,0.0,0.0,0.0,0.0,0.0,0.0,0.0,0.0,0.0,0.0,0.0,0.0,0.0,0.0,0.0,-1.8827,-1.8827,-1.8827,-1.8827,-1.8827,-1.8827,-1.8827,-1.8827,0.0,0.0,0.0,0.0,0.0,0.0,0.0,0.0,0.0,0.0,0.0,0.0,0.0,0.0,0.0,0.0,0.0,0.0,0.0,0.0,0.0,0.0,0.0,0.0,0.0,0.0,0.0,0.0,0.0,0.0,0.0,0.0,0.0,0.0,0.0,0.0,0.0,0.0,0.0,0.0,0.0,0.0,0.0,0.0,0.0,0.0,0.0,0.0,0.0,0.0,0.0,0.0,0.0,0.0,0.0,0.0,0.0,0.0,0.0,0.0,0.0,0.0,0.0,0.0,0.0,0.0,0.0,0.0,0.0,0.0,0.0,0.0,0.0,0.0,0.0,0.0,0.0,0.0,0.0,0.0,0.0,0.0,0.0,0.0,0.0,0.0,0.0,0.0,0.0,0.0,0.0,0.0,0.0,0.0,0.0,0.0,0.0,0.0,0.0,0.0,0.0,0.0,0.0,-1.8814,-1.8923,-1.8923,-1.8923,-1.8923,-1.8923,-1.8923,-1.8923,-1.8923,-1.8636,0.0,0.0,0.0,0.0,0.0,0.0,0.0,0.0,0.0,0.0,0.0,0.0,0.0,0.0,0.0,0.0,0.0,0.0,0.0,0.0,0.0,0.0,0.0,0.0,0.0,0.0,0.0,0.0,0.0,0.0,0.0,0.0,0.0,0.0,0.0,0.0,0.0,0.0,0.0,0.0,0.0,0.0,0.0,0.0,0.0,0.0,0.0,0.0,0.0,0.0,0.0,0.0,0.0,0.0,0.0,0.0,0.0,0.0,0.0,0.0,0.0,0.0,0.0,0.0,0.0,0.0,0.0,0.0,0.0,0.0,0.0,0.0,0.0,0.0,0.0,0.0,0.0,0.0,0.0,0.0,0.0,0.0,0.0,0.0,0.0,0.0,0.0,0.0,0.0,0.0,0.0,0.0,0.0,0.0,0.0,0.0,0.0,0.0,0.0,0.0,0.0,0.0,-1.8844,-1.9003,-1.9102,-1.9102,-1.9102,-1.9102,-1.9102,-1.9102,-1.9102,-1.8814,0.0,0.0,0.0,0.0,0.0,0.0,0.0,0.0,0.0,0.0,0.0,0.0,0.0,0.0,0.0,0.0,0.0,0.0,0.0,0.0,0.0,0.0,0.0,0.0,0.0,0.0,0.0,0.0,0.0,0.0,0.0,0.0,0.0,0.0,0.0,0.0,0.0,0.0,0.0,0.0,0.0,0.0,0.0,0.0,0.0,0.0,0.0,0.0,0.0,0.0,0.0,0.0,0.0,0.0,0.0,0.0,0.0,0.0,0.0,0.0,0.0,0.0,0.0,0.0,0.0,0.0,0.0,0.0,0.0,0.0,0.0,0.0,0.0,0.0,0.0,0.0,0.0,0.0,0.0,0.0,0.0,0.0,0.0,0.0,0.0,0.0,0.0,0.0,0.0,0.0,0.0,0.0,0.0,0.0,0.0,0.0,0.0,0.0,0.0,0.0,0.0,0.0,-1.8897,-1.8814,-1.9102,-1.9102,-1.9102,-1.9102,-1.9102,-1.9102,-1.9102,-1.8814,0.0,0.0,0.0,0.0,0.0,0.0,0.0,0.0,0.0,0.0,0.0,0.0,0.0,0.0,0.0,0.0,0.0,0.0,0.0,0.0,0.0,0.0,0.0,0.0,0.0,0.0,0.0,0.0,0.0,0.0,0.0,0.0,0.0,0.0,0.0,0.0,0.0,0.0,0.0,0.0,0.0,0.0,0.0,0.0,0.0,0.0,0.0,0.0,0.0,0.0,0.0,0.0,0.0,0.0,0.0,0.0,0.0,0.0,0.0,0.0,0.0,0.0,0.0,0.0,0.0,0.0,0.0,0.0,0.0,0.0,0.0,0.0,0.0,0.0,0.0,0.0,0.0,0.0,0.0,0.0,0.0,0.0,0.0,0.0,0.0,0.0,0.0,0.0,0.0,0.0,0.0,0.0,0.0,0.0,0.0,0.0,0.0,0.0,0.0,0.0,0.0,0.0,-1.8586,-1.8599,-1.8694,-1.8694,-1.8694,-1.8694,-1.8694,-1.8694,-1.8694,0.0,0.0,0.0,0.0,0.0,0.0,0.0,0.0,0.0,0.0,0.0,0.0,0.0,0.0,0.0,0.0,0.0,0.0,0.0,0.0,0.0,0.0,0.0,0.0,0.0,0.0,0.0,0.0,0.0,0.0,0.0,0.0,0.0,0.0,0.0,0.0,0.0,0.0,0.0,0.0,0.0,0.0,0.0,0.0,0.0,0.0,0.0,0.0,0.0,0.0,0.0,0.0,0.0,0.0,0.0,0.0,0.0,0.0,0.0,0.0,0.0,0.0,0.0,0.0,0.0,0.0,0.0,0.0,0.0,0.0,0.0,0.0,0.0,0.0,0.0,0.0,0.0,0.0,0.0,0.0,0.0,0.0,0.0,0.0,0.0,0.0,0.0,0.0,0.0,0.0,0.0,0.0,0.0,0.0,0.0,0.0,0.0,0.0,0.0,0.0,0.0,0.0,-1.843,-1.84,-1.8422,-1.8422,-1.8422,-1.8422,-1.8422,-1.8422,-1.8422,-1.8422,0.0,0.0,0.0,0.0,0.0,0.0,0.0,0.0,0.0,0.0,0.0,0.0,0.0,0.0,0.0,0.0,0.0,0.0,0.0,0.0,0.0,0.0,0.0,0.0,0.0,0.0,0.0,0.0,0.0,0.0,0.0,0.0,0.0,0.0,0.0,0.0,0.0,0.0,0.0,0.0,0.0,0.0,0.0,0.0,0.0,0.0,0.0,0.0,0.0,0.0,0.0,0.0,0.0,0.0,0.0,0.0,0.0,0.0,0.0,0.0,0.0,0.0,0.0,0.0,0.0,0.0,0.0,0.0,0.0,0.0,0.0,0.0,0.0,0.0,0.0,0.0,0.0,0.0,0.0,0.0,0.0,0.0,0.0,0.0,0.0,0.0,0.0,0.0,0.0,0.0,0.0,0.0,0.0,0.0,0.0,0.0,0.0,0.0,0.0,0.0,0.0,0.0,-1.8422,-1.8422,-1.8422,-1.8422,-1.8422,-1.8422,-1.8422,-1.8422,-1.8422,0.0,0.0,0.0,0.0,0.0,0.0,0.0,0.0,0.0,0.0,0.0,0.0,0.0,0.0,0.0,0.0,0.0,0.0,0.0,0.0,0.0,0.0,0.0,0.0,0.0,0.0,0.0,0.0,0.0,0.0,0.0,0.0,0.0,0.0,0.0,0.0,0.0,0.0,0.0,0.0,0.0,0.0,0.0,0.0,0.0,0.0,0.0,0.0,0.0,0.0,0.0,0.0,0.0,0.0,0.0,0.0,0.0,0.0,0.0,0.0,0.0,0.0,0.0,0.0,0.0,0.0,0.0,0.0,0.0,0.0,0.0,0.0,0.0,0.0,0.0,0.0,0.0,0.0,0.0,0.0,0.0,0.0,0.0,0.0,0.0,0.0,0.0,0.0,0.0,0.0,0.0,0.0,0.0,0.0,0.0,0.0,0.0,0.0,0.0,0.0,0.0,0.0,0.0,-1.7898,-1.7694,-1.7483,-1.7259,-1.7153,-1.7153,-1.7153,-1.7153,-1.7265,-1.749,0.0,0.0,0.0,0.0,0.0,0.0,0.0,0.0,0.0,0.0,0.0,0.0,0.0,0.0,0.0,0.0,0.0,0.0,0.0,0.0,0.0,0.0,0.0,0.0,0.0,0.0,0.0,0.0,0.0,0.0,0.0,0.0,0.0,0.0,0.0,0.0,0.0,0.0,0.0,0.0,0.0,0.0,0.0,0.0,0.0,0.0,0.0,0.0,0.0,0.0,0.0,0.0,0.0,0.0,0.0,0.0,0.0,0.0,0.0,0.0,0.0,0.0,0.0,0.0,0.0,0.0,0.0,0.0,0.0,0.0,0.0,0.0,0.0,0.0,0.0,0.0,0.0,0.0,0.0,0.0,0.0,0.0,0.0,0.0,0.0,0.0,0.0,0.0,0.0,0.0,0.0,0.0,0.0,0.0,0.0,0.0,0.0,0.0,0.0,0.0,0.0,0.0,-1.7265,-1.706,-1.6955,-1.673,-1.673,-1.673,-1.673,-1.673,-1.6842,-1.6955,0.0,0.0,0.0,0.0,0.0,0.0,0.0,0.0,0.0,0.0,0.0,0.0,0.0,0.0,0.0,0.0,0.0,0.0,0.0,0.0,0.0,0.0,0.0,0.0,0.0,0.0,0.0,0.0,0.0,0.0,0.0,0.0,0.0,0.0,0.0,0.0,0.0,0.0,0.0,0.0,0.0,0.0,0.0,0.0,0.0,0.0,0.0,0.0,0.0,0.0,0.0,0.0,0.0,0.0,0.0,0.0,0.0,0.0,0.0,0.0,0.0,0.0,0.0,0.0,0.0,0.0,0.0,0.0,0.0,0.0,0.0,0.0,0.0,0.0,0.0,0.0,0.0,0.0,0.0,0.0,0.0,0.0,0.0,0.0,0.0,0.0,0.0,0.0,0.0,0.0,0.0,0.0,0.0,0.0,0.0,0.0,0.0,0.0,0.0,0.0,0.0,0.0,-1.6698,-1.6567,-1.6548,-1.6548,-1.6548,-1.6548,-1.6548,-1.6548,-1.6548,-1.6548,0.0,0.0,0.0,0.0,0.0,0.0,0.0,0.0,0.0,0.0,0.0,0.0,0.0,0.0,0.0,0.0,0.0,0.0,0.0,0.0,0.0,0.0,0.0,0.0,0.0,0.0,0.0,0.0,0.0,0.0,0.0,0.0,0.0,0.0,0.0,0.0,0.0,0.0,0.0,0.0,0.0,0.0,0.0,0.0,0.0,0.0,0.0,0.0,0.0,0.0,0.0,0.0,0.0,0.0,0.0,0.0,0.0,0.0,0.0,0.0,-1.7424,0.0,0.0,0.0,0.0,0.0,0.0,0.0,0.0,0.0,0.0,0.0,0.0,0.0,0.0,0.0,0.0,0.0,0.0,0.0,0.0,0.0,0.0,0.0,0.0,0.0,0.0,0.0,0.0,0.0,0.0,0.0,0.0,0.0,0.0,0.0,0.0,0.0,0.0,0.0,0.0,0.0,-1.6112,-1.5906,-1.5673,-1.5475,-1.5475,-1.5475,-1.5475,-1.5475,-1.5577,-1.5769,-1.5769,0.0,0.0,0.0,0.0,0.0,0.0,0.0,0.0,0.0,0.0,0.0,0.0,0.0,0.0,0.0,0.0,0.0,0.0,0.0,0.0,0.0,0.0,0.0,0.0,0.0,0.0,0.0,0.0,0.0,0.0,0.0,0.0,0.0,0.0,0.0,0.0,0.0,0.0,0.0,0.0,0.0,0.0,0.0,0.0,0.0,0.0,0.0,0.0,0.0,0.0,0.0,0.0,0.0,0.0,0.0,0.0,0.0,0.0,0.0,0.0,-1.8085,0.0,0.0,0.0,0.0,0.0,0.0,0.0,0.0,0.0,0.0,0.0,0.0,0.0,0.0,0.0,0.0,0.0,0.0,0.0,0.0,0.0,0.0,0.0,0.0,0.0,0.0,0.0,0.0,0.0,0.0,0.0,0.0,0.0,0.0,0.0,0.0,0.0,0.0,0.0,0.0,-1.5517,-1.5395,-1.5202,-1.5107,-1.5107,-1.5107,-1.5107,-1.5107,-1.5208,-1.5303,-1.5303,0.0,0.0,0.0,0.0,0.0,0.0,0.0,0.0,0.0,0.0,0.0,0.0,0.0,0.0,0.0,0.0,0.0,0.0,0.0,0.0,0.0,0.0,0.0,0.0,0.0,0.0,0.0,0.0,0.0,0.0,0.0,0.0,0.0,0.0,0.0,0.0,0.0,0.0,0.0,0.0,0.0,0.0,0.0,0.0,0.0,0.0,0.0,0.0,0.0,0.0,0.0,0.0,0.0,-1.8365,-1.8465,-1.8666,-1.8666,-1.8751,-1.8928,-1.8613,-1.8519,-1.8789,-1.8972,0.0,0.0,0.0,0.0,0.0,0.0,0.0,0.0,0.0,0.0,0.0,0.0,0.0,0.0,0.0,0.0,0.0,0.0,0.0,0.0,0.0,0.0,0.0,0.0,-1.6057,-1.6262,0.0,0.0,0.0,0.0,0.0,0.0,0.0,0.0,0.0,0.0,0.0,0.0,-1.504,-1.4998,-1.4968,-1.4968,-1.4968,-1.4968,-1.4968,-1.4968,-1.4968,-1.4968,-1.4968,-1.4968,0.0,0.0,0.0,0.0,0.0,0.0,0.0,0.0,0.0,0.0,0.0,0.0,0.0,0.0,0.0,0.0,0.0,0.0,0.0,0.0,0.0,0.0,0.0,0.0,0.0,0.0,0.0,0.0,0.0,0.0,0.0,0.0,-1.4223,-1.4482,0.0,0.0,0.0,0.0,0.0,0.0,0.0,0.0,0.0,0.0,0.0,0.0,0.0,-1.82,-1.8466,-1.887,-1.9147,-1.9396,-1.9396,-1.9396,-1.9404,-1.9404,-1.9496,-1.9512,-1.9706,0.0,-1.9273,-1.9368,0.0,0.0,0.0,0.0,0.0,0.0,0.0,0.0,0.0,0.0,0.0,0.0,0.0,0.0,0.0,0.0,0.0,0.0,0.0,0.0,0.0,0.0,-1.5837,-1.5837,-1.5974,-1.5986,0.0,-1.6362,-1.6685,-1.6723,-1.6539,0.0,0.0,0.0,0.0,0.0,0.0,0.0,-1.4769,-1.4558,-1.4407,-1.4407,-1.4407,-1.4407,-1.4407,-1.4407,-1.4407,-1.4407,-1.4407,-1.431,-1.4037,-1.4248,0.0,0.0,0.0,0.0,0.0,0.0,0.0,0.0,0.0,0.0,0.0,0.0,0.0,0.0,0.0,0.0,0.0,0.0,0.0,0.0,0.0,0.0,0.0,0.0,0.0,0.0,0.0,0.0,0.0,-1.465,-1.5068,-1.5409,-1.5658,-1.5899,0.0,0.0,0.0,0.0,0.0,0.0,0.0,0.0,0.0,-1.8262,-1.858,-1.8848,-1.9241,-1.9314,-1.9487,-1.9587,-1.9587,-1.9587,-1.9587,-1.9587,-1.9587,-1.9604,-1.9951,-2.0128,-2.0158,-2.0346,-2.0728,-2.1083,0.0,0.0,0.0,0.0,-2.0514,-2.0197,-1.9687,-1.9264,0.0,-1.8548,0.0,0.0,0.0,0.0,0.0,0.0,0.0,0.0,0.0,0.0,-1.5891,-1.5891,-1.5891,-1.5891,-1.5891,-1.6099,-1.6162,0.0,-1.5885,-1.5712,-1.5316,0.0,0.0,0.0,0.0,-1.4479,-1.4479,-1.4377,-1.4298,-1.4298,-1.4298,-1.4298,-1.4298,-1.4298,-1.4298,-1.4298,-1.4208,-1.4022,-1.3931,-1.3745,-1.3504,0.0,0.0,0.0,0.0,0.0,0.0,0.0,0.0,0.0,0.0,0.0,0.0,0.0,0.0,0.0,0.0,0.0,0.0,0.0,0.0,0.0,0.0,0.0,0.0,0.0,0.0,0.0,0.0,-1.5484,-1.5899,-1.6327,-1.6566,-1.673,0.0,0.0,0.0,0.0,0.0,0.0,-1.833,-1.8524,-1.8887,-1.9356,-1.9465,-1.965,-1.9936,-1.9945,-1.9945,-1.9945,-1.9945,-1.9945,-1.9945,-1.9945,-1.9945,-1.9962,-2.0416,-2.0777,-2.1071,-2.113,-2.1395,-2.1725,-2.1725,-2.1623,-2.142,-2.1224,-2.0917,-2.0514,-2.0197,-1.9783,-1.9376,-1.9078,-1.8548,-1.8016,-1.8016,0.0,0.0,0.0,0.0,-1.6537,-1.6324,-1.6111,-1.5998,-1.5891,-1.5891,-1.5891,-1.5891,-1.5891,-1.5831,0.0,-1.5547,-1.5372,-1.4986,0.0,0.0,0.0,0.0,-1.4503,-1.4503,-1.4503,-1.4503,-1.4503,-1.4503,-1.4503,-1.4503,-1.4503,-1.4503,-1.4406,-1.4223,-1.4027,-1.3733,-1.3434,-1.291,-1.2464,0.0,0.0,0.0,0.0,0.0,0.0,0.0,0.0,0.0,0.0,0.0,0.0,0.0,0.0,0.0,0.0,0.0,0.0,0.0,0.0,0.0,0.0,0.0,0.0,0.0,0.0,0.0,0.0,0.0,-1.7057,-1.7221,0.0,0.0,0.0,0.0,-1.7951,-1.8547,-1.9011,-1.9185,-1.9977,-2.0403,-2.0438,-2.0695,-2.0889,-2.0907,-2.0907,-2.0907,-2.0907,-2.0907,-2.0907,-2.0907,-2.0907,-2.0907,-2.0942,-2.1719,-2.215,-2.2108,-2.1416,-2.1395,-2.1725,-2.1725,-2.1725,-2.1725,-2.1623,-2.1326,-2.0925,-2.0814,-2.03,-1.968,-1.9383,-1.875,-1.8016,-1.8016,-1.7799,0.0,0.0,-1.7179,-1.7073,-1.643,-1.6324,-1.6217,-1.5998,-1.5891,-1.5891,-1.5891,-1.5891,-1.5885,0.0,-1.5668,-1.5487,-1.5463,0.0,-1.5083,-1.5071,-1.5065,-1.5065,-1.5065,-1.5065,-1.5065,-1.5065,-1.5065,-1.5065,-1.5065,-1.5065,-1.4963,-1.4653,-1.4653,-1.4247,-1.3437,-1.3437,-1.2822,-1.1606,-1.1501,0.0,0.0,0.0,0.0,0.0,0.0,0.0,0.0,0.0,0.0,0.0,0.0,0.0,0.0,0.0,0.0,0.0,0.0,0.0,0.0,0.0,0.0,0.0,0.0,0.0,0.0,0.0,0.0,-1.7627,-1.7878,0.0,-1.821,-1.8282,-1.8467,-1.8792,-1.9032,-1.9406,-1.9995,-2.0374,-2.0642,-2.0793,-2.0926,-2.0997,-2.0997,-2.0997,-2.0997,-2.0997,-2.0997,-2.0997,-2.1006,-2.1272,-2.1387,-2.1431,-2.2221,-2.2566,-2.2593,-2.258,-2.2615,-2.2535,-2.2342,-2.2131,-2.1928,-2.1928,-2.1725,-2.142,-2.1224,-2.0814,-2.03,-1.9583,-1.9063,-1.875,-1.8122,-1.7911,-1.7799,-1.7483,-1.7384,-1.7179,-1.6967,-1.6743,-1.6524,-1.6418,-1.6418,-1.6418,-1.6418,-1.6418,-1.6418,-1.6418,-1.5884,-1.5445,-1.5276,-1.5167,-1.5107,-1.5107,-1.5107,-1.5107,-1.5107,-1.5107,-1.5107,-1.5107,-1.5107,-1.5107,-1.5107,-1.5107,-1.5005,-1.4695,-1.4384,-1.3976,-1.347,-1.2751,-1.2196,-1.1713,-1.12,-1.0754,0.0,0.0,0.0,0.0,0.0,0.0,0.0,0.0,0.0,0.0,0.0,0.0,0.0,0.0,0.0,0.0,0.0,0.0,0.0,0.0,0.0,0.0,0.0,0.0,0.0,0.0,-1.7797,-1.8201,-1.8362,-1.8531,-1.87,-1.8887,-1.9074,-1.9406,-1.9758,-2.0135,-2.0665,-2.0826,-2.1015,-2.1266,-2.1275,-2.1275,-2.1275,-2.1275,-2.1338,-2.1464,-2.1464,-2.1536,-2.1679,-2.1958,-2.2084,-2.2119,-2.2784,-2.3071,-2.3098,-2.3394,-2.3447,-2.3247,-2.2946,-2.2745,-2.2535,-2.2535,-2.2333,-2.1928,-2.1522,-2.1224,-2.0814,-2.0101,-1.9583,-1.9168,-1.8646,-1.8227,-1.7911,-1.7799,-1.7589,-1.7279,-1.7179,-1.706,-1.6842,-1.673,-1.673,-1.673,-1.673,-1.673,-1.673,-1.673,-1.6274,-1.578,-1.5506,-1.5482,-1.5476,-1.5372,-1.5372,-1.5372,-1.5372,-1.5372,-1.5372,-1.5372,-1.5372,-1.5372,-1.5372,-1.5275,-1.5068,-1.485,-1.4325,-1.3805,-1.3294,-1.2451,-1.1892,-1.1508,-1.0715,-1.0264,-1.016,0.0,0.0,0.0,0.0,0.0,0.0,0.0,0.0,0.0,0.0,0.0,0.0,0.0,0.0,0.0,0.0,0.0,0.0,0.0,0.0,0.0,0.0,0.0,-1.8031,-1.804,-1.8201,-1.87,-1.87,-1.87,-1.8718,-1.9282,-1.9588,-1.9615,-2.0583,-2.1117,-2.1126,-2.152,-2.1741,-2.1741,-2.1741,-2.1741,-2.1741,-2.175,-2.1942,-2.2327,-2.2337,-2.2557,-2.2857,-2.2875,-2.2875,-2.2902,-2.3391,-2.3556,-2.3496,-2.3691,-2.3845,-2.3755,-2.3555,-2.3447,-2.3447,-2.3447,-2.3038,-2.2426,-2.192,-2.142,-2.0917,-2.0917,-2.0205,-1.9383,-1.9279,-1.875,-1.8016,-1.8016,-1.7799,-1.7582,-1.7279,-1.7173,-1.7173,-1.6842,-1.673,-1.673,-1.673,-1.673,-1.673,-1.673,-1.673,-1.663,-1.6324,-1.6324,-1.6217,-1.5998,-1.5891,0.0,-1.5891,-1.5891,-1.5891,-1.5891,-1.5891,-1.5891,-1.5903,-1.5702,-1.5386,-1.5064,-1.4509,-1.3856,-1.2891,-1.2555,-1.1914,-1.0877,-1.0164,-0.9549,-0.9343,0.0,0.0,0.0,0.0,0.0,0.0,0.0,0.0,0.0,0.0,0.0,0.0,0.0,0.0,0.0,0.0,0.0,0.0,0.0,0.0,0.0,0.0,-1.8451,-1.8282,-1.8523,-1.8763,-1.8922,-1.9082,-1.927,-1.957,-1.9698,-2.0081,-2.0647,-2.0979,-2.1236,-2.1548,-2.1676,-2.1741,-2.1741,-2.1741,-2.1741,-2.1741,-2.2016,-2.2217,-2.2327,-2.2639,-2.2747,-2.2875,-2.3149,-2.3382,-2.34,-2.3813,-2.3987,-2.3996,-2.4106,-2.4053,-2.4053,-2.3546,-2.3447,-2.3447,-2.3447,-2.3347,-2.3046,-2.2434,-2.2224,-2.192,-2.1121,-2.0617,-2.0101,-1.9487,-1.8855,-1.822,-1.8016,-1.7799,-1.7582,-1.7483,-1.7483,-1.7483,-1.7371,-1.7371,-1.7371,-1.7371,-1.7371,-1.7371,-1.7371,-1.7371,-1.716,-1.663,-1.6424,-1.6217,-1.6217,-1.5998,0.0,-1.5891,-1.5891,-1.5891,-1.5891,-1.5891,-1.597,-1.6157,-1.5855,-1.5609,-1.5238,-1.4525,-1.3768,-1.2885,-1.2188,-1.1437,-1.0518,-1.0031,-0.9682,0.0,0.0,0.0,0.0,0.0,0.0,0.0,0.0,0.0,0.0,0.0,0.0,0.0,0.0,0.0,0.0,0.0,0.0,0.0,0.0,0.0,0.0,-1.8763,-1.8843,-1.8754,-1.8922,-1.9002,-1.9152,-1.9377,-1.9659,-1.9907,-2.0228,-2.0613,-2.1071,-2.1273,-2.1475,-2.1722,-2.1741,-2.1741,-2.1741,-2.1741,-2.1814,-2.1979,-2.2208,-2.2492,-2.2841,-2.3088,-2.329,-2.3464,-2.3694,-2.3794,-2.3813,-2.4051,-2.4152,-2.4152,-2.4152,-2.4152,0.0,0.0,0.0,0.0,0.0,-2.3555,-2.3447,-2.2937,-2.2627,-2.2325,-2.1522,-2.1019,-2.0514,-1.9887,-1.9264,-1.8639,-1.8325,-1.801,-1.7694,-1.7582,-1.7582,-1.7582,-1.7582,-1.7582,-1.7582,-1.7582,-1.7582,-1.7582,-1.7582,-1.7582,0.0,-1.7153,-1.6849,-1.6643,-1.653,-1.6211,-1.6105,-1.6105,-1.5998,-1.5934,-1.6042,-1.606,-1.6169,-1.6435,-1.601,0.0,0.0,0.0,-1.3331,-1.2194,-1.1458,0.0,0.0,0.0,-0.9485,-0.9158,0.0,0.0,0.0,-0.8828,-0.8652,0.0,0.0,0.0,0.0,0.0,0.0,0.0,0.0,0.0,0.0,0.0,0.0,0.0,0.0,0.0,0.0,-1.9073,-1.9152,-1.9301,-1.9231,-1.9152,-1.9301,-1.9677,-1.9943,-1.9989,-2.0668,-2.1126,-2.1172,-2.153,-2.1741,-2.1741,0.0,0.0,0.0,0.0,-2.197,-2.2318,-2.2419,-2.2823,-2.3547,-2.3584,-2.3804,-2.4152,-2.4152,-2.4152,-2.4152,-2.4152,-2.4152,-2.4152,-2.4152,-2.4152,-2.4152,-2.4152,-2.4152,-2.4152,-2.3954,-2.3854,-2.3746,-2.3247,0.0,0.0,-2.1928,-2.1428,-2.0814,-2.0292,-1.9783,-1.9168,-1.8527,-1.822,-1.7911,-1.7687,-1.7582,-1.7582,-1.7582,-1.7582,-1.7582,-1.7582,-1.7582,-1.7582,-1.7582,-1.7582,-1.7582,-1.7582,-1.7378,-1.7067,-1.6842,-1.653,-1.6324,-1.6324,-1.6135,-1.6024,-1.626,0.0,0.0,-1.6724,-1.6168,-1.5722,-1.5307,-1.4142,-1.2744,-1.1224,-1.0736,-1.0201,-0.9628,-0.9482,-0.9186,-0.8964,-0.8947,-0.894,-0.8933,-0.8801,-0.8662,0.0,0.0,0.0,0.0,0.0,0.0,0.0,0.0,0.0,0.0,0.0,0.0,0.0,0.0,0.0,-1.9706,-1.9706,-1.9706,-1.9784,-1.9784,-1.9627,-1.9301,-1.9677,-2.0053,-2.0374,-2.0833,-2.1245,-2.1594,-2.1695,-2.1741,-2.1741,-2.1741,-2.1741,-2.1741,-2.2043,-2.2245,-2.2327,-2.2978,-2.3382,-2.3547,0.0,0.0,-2.4152,-2.4152,-2.4152,-2.4152,-2.4152,-2.4152,-2.4152,-2.4152,-2.4152,-2.4152,-2.4152,-2.4152,-2.4152,-2.4152,-2.4152,-2.4053,-2.3755,-2.3447,-2.3147,-2.2526,-2.1827,-2.1121,-2.0617,-1.9894,0.0,-1.8527,-1.822,-1.7911,-1.7687,-1.7582,-1.7582,-1.7582,-1.7582,-1.7582,-1.7582,-1.7582,-1.7582,-1.7582,-1.7582,-1.7582,-1.7582,-1.7378,-1.7173,-1.7067,-1.6849,-1.6524,-1.6324,-1.6408,-1.6453,-1.6296,-1.6495,-1.6618,-1.6641,-1.6201,-1.5831,-1.5205,-1.3644,-1.2194,-1.1228,-1.0616,-1.0141,-0.9795,-0.9415,-0.9222,-0.9113,-0.8994,-0.894,-0.894,-0.891,-0.8879,0.0,0.0,0.0,0.0,0.0,0.0,0.0,0.0,0.0,0.0,0.0,-1.9863,0.0,0.0,-1.9863,-1.9863,-1.9863,-1.9863,-1.9863,-2.0121,-2.0174,-1.9934,-2.0298,-2.0717,-2.1127,-2.1451,-2.1688,-2.19,-2.1741,-2.1741,-2.1741,-2.1741,-2.1741,-2.1741,-2.2116,-2.2428,-2.2639,-2.3244,-2.3648,-2.3849,-2.4051,-2.4152,-2.4152,-2.4152,-2.4152,-2.4152,-2.4152,-2.4152,-2.4152,-2.4152,-2.4152,-2.4152,-2.4152,-2.4152,-2.4152,-2.4152,-2.4152,-2.4152,-2.3845,-2.3646,-2.3347,-2.2728,-2.203,-2.142,-2.0822,-2.0197,-1.9576,-1.8833,-1.8422,-1.8115,-1.7687,-1.7582,-1.7582,-1.7582,-1.7582,-1.7582,-1.7582,-1.7582,-1.7582,-1.7582,-1.7582,-1.7582,-1.7582,-1.7483,-1.7378,-1.7378,-1.7166,-1.6849,-1.6749,-1.6667,-1.6673,-1.6704,-1.6849,-1.6888,-1.6797,-1.6115,-1.5231,-1.4396,-1.3228,-1.2065,-1.102,-1.0707,-1.0197,-0.9728,-0.9459,-0.9266,-0.9266,-0.9195,-0.9161,-0.9161,-0.9161,-0.9079,0.0,0.0,0.0,0.0,0.0,0.0,0.0,-2.0342,-2.0264,-2.0098,-2.002,-2.002,-2.002,-2.002,-2.002,-2.002,-2.002,-2.002,-2.002,-2.0471,-2.0766,-2.0852,-2.1142,-2.1447,-2.1797,-2.203,-2.2185,-2.2185,-2.1919,-2.1741,-2.1741,-2.1741,-2.1777,-2.1851,-2.2236,-2.2648,-2.2975,-2.3464,-2.3831,-2.4152,-2.4152,-2.4152,-2.4152,-2.4152,-2.4152,-2.4152,-2.4152,-2.4152,-2.4152,-2.4152,-2.4152,-2.4152,-2.4152,-2.4152,-2.4152,-2.4152,-2.4152,-2.4152,-2.3954,-2.3646,-2.3347,-2.2837,-2.2325,-2.1725,-2.1121,-2.0609,-1.9983,-1.9146,-1.8632,-1.8318,-1.7793,-1.7687,-1.7582,-1.7582,-1.7582,-1.7582,-1.7582,-1.7582,-1.7582,-1.7582,-1.7582,-1.7582,-1.7582,-1.7582,-1.7582,-1.7582,-1.7378,-1.7279,-1.7179,-1.7041,-1.6888,-1.7105,-1.72,-1.714,-1.6885,-1.5715,-1.4639,-1.3808,-1.3084,-1.2118,-1.091,-1.067,-1.0364,-0.9649,-0.9503,-0.9425,-0.9425,-0.9395,-0.9381,-0.9381,-0.9381,-0.9252,-2.0566,-2.0566,-2.0566,-2.0566,-2.0566,-2.0566,0.0,-2.0566,-2.0566,-2.0566,-2.0489,-2.0489,-2.0489,-2.0489,-2.0489,-2.0489,-2.0489,-2.0489,-2.0489,-2.0868,-2.1296,-2.1685,-2.1757,-2.1779,-2.1826,-2.2108,-2.2353,-2.2353,-2.2185,-2.2097,-2.2097,-2.183,-2.1896,-2.2245,-2.2667,-2.307,-2.3474,-2.3877,-2.4106,-2.4152,-2.4152,-2.4152,-2.4152,-2.4152,-2.4152,-2.4152,-2.4152,-2.4152,-2.4152,-2.4152,-2.4152,-2.4152,-2.4152,-2.4152,-2.4152,-2.4152,-2.4152,-2.4152,-2.4152,-2.3954,-2.3646,-2.3447,-2.2937,-2.2224,-2.1522,-2.0917,-2.0308,-1.948,-1.8848,-1.8318,-1.801,-1.7799,-1.7582,-1.7582,-1.7582,-1.7582,-1.7582,-1.7582,-1.7582,-1.7582,-1.7582,-1.7582,-1.7582,-1.7582,-1.7582,-1.7582,-1.7582,-1.7483,-1.7279,-1.7322,-1.7321,-1.7123,-1.7365,-1.7214,-1.6655,-1.5359,-1.4411,-1.3688,-1.3084,-1.2118,-1.091,-1.077,-1.04,-0.9798,-0.9656,-0.9585,-0.9585,-0.9449,-0.9381,-0.9381,-0.9381,-0.9364,-2.0566,-2.0566,-2.0566,-2.0566,-2.0566,-2.0566,-2.0566,-2.0566,-2.0566,-2.0566,-2.0566,-2.0566,-2.0566,-2.0566,-2.0566,0.0,-2.0566,-2.0654,-2.0918,-2.1338,-2.1768,-2.2197,-2.2446,-2.2534,-2.2534,-2.26,-2.2618,-2.2618,-2.2441,-2.2185,-2.2097,-2.223,-2.2244,-2.2318,-2.296,-2.3373,-2.3547,-2.395,-2.4152,-2.4152,-2.4152,-2.4152,-2.4152,-2.4152,-2.4152,-2.4152,-2.4152,-2.4152,-2.4152,-2.4152,-2.4152,-2.4152,-2.4152,-2.4152,-2.4152,-2.4152,-2.4152,-2.4152,-2.4152,-2.4053,-2.3755,-2.3456,-2.3038,-2.2426,-2.1725,-2.1019,-2.0308,-1.9687,-1.8945,-1.8318,-1.8122,-1.7799,-1.7582,-1.7582,-1.7582,-1.7582,-1.7582,-1.7582,-1.7582,-1.7582,-1.7582,-1.7582,-1.7582,-1.7582,-1.7582,-1.7582,-1.7582,-1.7582,-1.7483,-1.745,-1.7485,-1.7346,-1.7113,-1.6773,-1.6295,-1.524,-1.4291,-1.3449,-1.284,-1.1872,-1.0789,-1.0668,-1.0304,-0.9822,-0.9764,-0.9734,-0.9734,-0.9669,-0.9635,-0.9635,-0.9635,-0.9635,-2.0566,-2.0566,-2.0566,-2.0566,-2.0566,-2.0566,-2.0566,-2.0566,-2.0566,-2.0566,-2.0566,-2.0566,-2.0566,-2.0566,-2.0566,-2.0566,-2.0566,-2.0723,-2.1172,-2.1611,-2.2041,-2.2461,-2.2881,-2.3135,-2.3135,-2.2969,-2.2882,-2.2882,-2.2618,-2.2498,-2.2434,-2.2625,-2.2704,-2.275,-2.3235,-2.3593,-2.3712,-2.4005,-2.4152,-2.4152,-2.4152,-2.4152,-2.4152,-2.4152,-2.4152,-2.4152,-2.4152,-2.4152,-2.4152,-2.4152,-2.4152,-2.4152,-2.4152,-2.4152,-2.4152,-2.4152,-2.4152,-2.4152,-2.4152,-2.4053,-2.3854,-2.3546,-2.3138,-2.2636,-2.203,-2.1326,-2.0617,-1.999,-1.9257,-1.8534,-1.8227,-1.7905,-1.7694,-1.7582,-1.7582,-1.7582,-1.7582,-1.7582,-1.7582,-1.7582,-1.7582,-1.7582,-1.7582,-1.7582,-1.7582,-1.7582,-1.7582,-1.7582,-1.7582,-1.7559,-1.7459,-1.7541,-1.6891,-1.6419,-1.6177,-1.5121,-1.4172,-1.3204,-1.2599,-1.1752,-1.0789,-1.0425,-1.0183,-0.9822,-0.9822,-0.9822,-0.9822,-0.9822,-0.9822,-0.9822,-0.9822,-0.9822,-2.0566,-2.0566,-2.0566,-2.0566,-2.0566,-2.0566,-2.0566,-2.0566,-2.0566,-2.0566,-2.0566,-2.0566,-2.0566,-2.0566,-2.0566,-2.0566,-2.0566,-2.0723,-2.1172,-2.1611,-2.2041,-2.2461,-2.2881,-2.3135,0.0,-2.3047,-2.3057,-2.3057,-2.2882,-2.2977,-2.338,-2.2966,-2.3066,-2.3877,-2.3625,-2.373,-2.4134,-2.4143,-2.4152,-2.4152,-2.4152,-2.4152,-2.4152,-2.4152,-2.4152,-2.4152,-2.4152,-2.4152,-2.4152,-2.4152,-2.4152,-2.4152,-2.4152,-2.4152,-2.4152,-2.4152,-2.4152,-2.4152,-2.4152,-2.4152,-2.4152,-2.3854,-2.3546,-2.3247,-2.2333,-2.1725,-2.1113,-2.0285,-1.968,-1.9168,-1.8527,-1.822,-1.7911,-1.7687,-1.7582,-1.7582,-1.7582,-1.7582,-1.7582,-1.7582,-1.7582,-1.7582,-1.7582,-1.7582,-1.7582,-1.7582,-1.7582,-1.7582,-1.7582,-1.7559,-1.7459,-1.7541,-1.6891,-1.6419,-1.6177,-1.5121,-1.4172,-1.3204,-1.2599,-1.1752,-1.0789,-1.0425,-1.0183,-0.9822,-0.9822,-0.9822,-0.9822,-0.9822,-0.9822,-0.9822,-0.9822,-0.9822,-2.0566,-2.0566,-2.0566,-2.0566,-2.0566,-2.0566,-2.0566,-2.0566,-2.0566,-2.0566,-2.0566,-2.0566,-2.0566,-2.0566,-2.0566,-2.0566,-2.081,-2.1162,-2.1602,-2.2031,-2.2461,-2.2881,-2.3057,0.0,0.0,0.0,0.0,-2.3135,-2.332,-2.3454,-2.3409,-2.3782,-2.4032,-2.3923,-2.4096,-2.4202,-2.4152,-2.4152,-2.4152,-2.4152,-2.4152,-2.4152,-2.4152,-2.4152,-2.4152,-2.4152,-2.4152,-2.4152,-2.4152,-2.4152,-2.4152,-2.4152,-2.4152,-2.4152,-2.4152,-2.4152,-2.4152,-2.4152,-2.4152,-2.4152,-2.4152,-2.3854,-2.3646,-2.3247,-2.2526,-2.1827,-2.1121,-2.0506,-1.9894,-1.9168,-1.8534,-1.822,-1.7911,-1.7687,-1.7582,-1.7582,-1.7582,-1.7582,-1.7582,-1.7582,-1.7582,-1.7582,-1.7582,-1.7582,-1.7582,-1.7582,-1.7582,-1.7616,-1.7579,-1.7467,-1.7459,-1.7541,-1.6891,-1.6301,-1.5833,-1.5007,-1.4047,-1.296,-1.2238,-1.1635,-1.0789,-1.0304,-0.9943,-0.9822,-0.9822,-0.9822,-0.9822,-0.9822,-0.9822,-0.9822,-0.9822,-0.9822,-2.0566,-2.0566,-2.0566,-2.0566,-2.0566,-2.0566,-2.0566,-2.0566,-2.0566,-2.0566,-2.0566,-2.0566,-2.0566,-2.0566,-2.0566,-2.0566,-2.0947,-2.1387,-2.1826,-2.2246,-2.2666,-2.3086,-2.3135,-2.3135,0.0,0.0,0.0,-2.3369,-2.3633,-2.3835,-2.4035,-2.441,-2.4593,-2.4437,-2.4496,-2.444,-2.435,-2.4251,-2.4152,-2.4152,-2.4152,-2.4152,-2.4152,-2.4152,-2.4152,-2.4152,-2.4152,-2.4152,-2.4152,-2.4152,-2.4152,-2.4152,-2.4152,-2.4152,-2.4152,-2.4152,-2.4152,-2.4152,-2.4152,-2.4152,-2.4152,-2.3954,-2.3646,-2.3347,-2.2828,-2.2123,-2.1318,-2.0719,-2.0101,-1.9368,-1.8632,-1.8318,-1.801,-1.7687,-1.7582,-1.7582,-1.7582,-1.7582,-1.7582,-1.7582,-1.7582,-1.7582,-1.7582,-1.7582,-1.7582,-1.7582,-1.7582,-1.7543,-1.7378,-1.7414,-1.7422,-1.7414,-1.6838,-1.6301,-1.5833,-1.5007,-1.4167,-1.296,-1.2238,-1.1635,-1.0789,-1.0304,-0.9943,-0.9822,-0.9822,-0.9822,-0.9822,-0.9822,-0.9822,-0.9822,-0.9822,-0.9822,-2.0566,-2.0566,-2.0566,-2.0566,-2.0566,-2.0566,-2.0566,-2.0566,-2.0566,-2.0566,-2.0566,-2.0566,-2.0566,0.0,-2.0566,-2.0566,-2.0967,-2.1416,-2.1826,-2.2266,-2.2695,-2.3096,-2.3135,-2.3144,-2.3164,-2.3545,0.0,-2.3857,0.0,-2.4209,-2.5029,-2.4917,-2.4929,-2.5323,-2.4833,-2.4538,-2.4529,-2.4341,-2.4152,-2.4152,-2.4152,-2.4152,-2.4152,-2.4152,-2.4152,-2.4152,-2.4152,-2.4152,-2.4152,-2.4152,-2.4152,-2.4152,-2.4152,-2.4152,-2.4152,-2.4152,-2.4152,-2.4152,-2.4152,-2.4152,-2.4152,-2.4152,-2.3854,-2.3347,-2.3029,-2.2325,-2.1522,-2.0719,-2.03,-1.9768,-1.8736,-1.8422,-1.8213,-1.7687,-1.7582,-1.7582,-1.7582,-1.7582,-1.7582,-1.7582,-1.7582,-1.7582,-1.7582,-1.7582,-1.7582,-1.7582,-1.7582,-1.7483,-1.7137,-1.7294,-1.7341,-1.7177,-1.6728,-1.6402,-1.6177,-1.5121,-1.4172,-1.3204,-1.2599,-1.1752,-1.0789,-1.0425,-1.0183,-0.9822,-0.9822,-0.9822,-0.9822,-0.9822,-0.9822,-0.9822,-0.9822,-0.9822,-2.0566,-2.0566,-2.0566,-2.0566,-2.0566,-2.0566,-2.0566,-2.0566,-2.0566,-2.0566,-2.0566,-2.0566,-2.0566,-2.0566,0.0,-2.0566,-2.1221,0.0,-2.1865,-2.2519,0.0,-2.3125,-2.3135,-2.3271,-2.3594,-2.3721,0.0,0.0,-2.4746,-2.4834,-2.5059,-2.5295,-2.5421,-2.5333,-2.5137,-2.4932,-2.4529,-2.4341,-2.4152,-2.4152,-2.4152,-2.4152,-2.4152,-2.4152,-2.4152,-2.4152,-2.4152,-2.4152,-2.4152,-2.4152,-2.4152,-2.4152,-2.4152,-2.4152,-2.4152,-2.4152,-2.4152,-2.4152,-2.4152,-2.4152,-2.4152,-2.4152,-2.3854,-2.3347,-2.3347,-2.2535,-2.1522,-2.0925,-2.03,-1.9569,-1.8632,-1.822,-1.801,-1.7687,-1.7582,-1.7582,-1.7582,-1.7582,-1.7582,-1.7582,-1.7582,-1.7582,-1.7582,-1.7582,-1.7582,-1.7582,-1.7582,-1.7483,-1.7137,-1.7123,-1.7135,-1.7159,-1.657,-1.6221,-1.6161,-1.5121,-1.4172,-1.3204,-1.2599,-1.1752,-1.0789,-1.0425,-1.0183,-0.9822,-0.9822,-0.9822,-0.9822,-0.9822,-0.9822,-0.9822,-0.9822,-0.9822,-2.0566,-2.0566,-2.0566,-2.0566,-2.0566,-2.0566,-2.0566,-2.0566,-2.0566,-2.0566,-2.0566,-2.0566,-2.0566,-2.0566,-2.0566,0.0,0.0,0.0,-2.1885,-2.2607,-2.3135,-2.3135,-2.331,-2.3525,-2.3769,-2.4131,-2.4551,0.0,-2.5068,-2.5156,-2.5352,-2.5596,-2.5635,-2.544,-2.5333,-2.5039,-2.4538,-2.4341,-2.4152,-2.4152,-2.4152,-2.4152,-2.4152,-2.4152,-2.4152,-2.4152,0.0,-2.4152,-2.4152,-2.4152,-2.4152,-2.4152,-2.4152,-2.4152,-2.4152,-2.4152,-2.4152,-2.4152,-2.4152,-2.4152,-2.4152,-2.4152,-2.3854,-2.3347,-2.3247,-2.2535,-2.1522,-2.0925,-2.0197,-1.9472,-1.8632,-1.822,-1.7911,-1.7687,-1.7582,-1.7582,-1.7582,-1.7582,-1.7582,-1.7582,-1.7582,-1.7582,-1.7582,-1.7582,-1.7582,-1.7582,-1.7582,-1.743,-1.6959,-1.6984,-1.696,-1.6818,-1.6486,-1.6217,-1.6127,-1.5419,-1.465,-1.3688,-1.2964,-1.2238,-1.1273,-1.091,-1.0547,-1.0061,-1.0065,-0.994,-0.9822,-0.9822,-0.9822,-0.9822,-0.9822,-0.9822,-2.0566,-2.0566,-2.0566,-2.0566,-2.0566,-2.0566,-2.0566,-2.0566,-2.0566,-2.0566,-2.0566,-2.0566,-2.0566,-2.0566,-2.0566,-2.0566,0.0,-2.1885,-2.1885,-2.2607,-2.3135,-2.3135,-2.3525,-2.3809,-2.3867,-2.46,-2.5088,-2.5156,-2.5156,-2.5322,-2.5713,-2.5742,-2.5742,-2.5742,-2.544,-2.5039,-2.4627,-2.4341,-2.4251,-2.4251,-2.4251,-2.4152,-2.4152,-2.4152,-2.4152,-2.4152,-2.4152,-2.4152,-2.4152,-2.4152,-2.4152,-2.4152,-2.4152,-2.4152,-2.4152,-2.4152,-2.4152,-2.4152,-2.4152,-2.4152,-2.4152,-2.4152,-2.3854,-2.3347,-2.2929,-2.2325,-2.153,-2.0719,-2.0094,-1.9361,-1.8632,-1.822,-1.7911,-1.7694,-1.7582,-1.7582,-1.7582,-1.7582,-1.7582,-1.7582,-1.7582,-1.7582,-1.7582,-1.7582,-1.7582,-1.7582,-1.7582,-1.7371,-1.673,-1.6845,-1.6907,-1.6387,-1.647,-1.6413,-1.6115,-1.5765,-1.5198,-1.4371,-1.367,-1.2844,-1.1877,-1.1514,-1.1031,-1.0425,-1.0304,-1.0183,-0.9822,-0.9822,-0.9822,-0.9822,-0.9822,-0.9822,-2.0566,-2.0566,-2.0566,-2.0566,-2.0566,-2.0566,-2.0566,-2.0566,-2.0566,-2.0566,-2.0566,-2.0566,-2.0566,-2.0566,-2.0566,-2.0566,-2.1309,-2.1885,-2.1885,-2.2607,-2.3135,-2.3135,-2.3525,-2.3926,-2.4277,-2.4766,0.0,0.0,-2.5625,-2.5654,-2.5732,-2.5742,-2.5742,-2.5742,-2.544,-2.5235,-2.5137,-2.4735,-2.443,-2.444,-2.4251,-2.4152,-2.4152,-2.4152,-2.4152,-2.4152,-2.4152,0.0,-2.4152,-2.4152,-2.4152,-2.4152,-2.4152,-2.4152,-2.4152,-2.4152,-2.4152,-2.4152,-2.4152,-2.4053,-2.3854,-2.3854,-2.3646,-2.3347,-2.2728,-2.203,-2.1224,-2.0617,-1.9776,-1.8833,-1.8527,-1.8003,-1.7694,-1.7582,-1.7582,-1.7582,-1.7582,-1.7582,-1.7582,-1.7582,-1.7582,-1.7582,-1.7582,-1.7582,-1.7582,-1.7582,-1.7582,-1.7371,-1.673,-1.6774,-1.6681,-1.6369,-1.6038,-1.5958,-1.6174,-1.5632,-1.5072,-1.46,-1.3946,-1.3204,-1.2118,-1.1877,-1.1394,-1.0789,-1.0425,-1.0304,-1.0183,-0.994,-0.9822,-0.9822,-0.9822,-0.9822,-2.0566,-2.0566,-2.0566,-2.0566,-2.0566,-2.0566,-2.0566,-2.0566,-2.0566,-2.0566,-2.0566,-2.0566,-2.0566,-2.0566,-2.0566,-2.0566,-2.1309,-2.1885,-2.1885,-2.2607,-2.3135,-2.3135,-2.3721,-2.4199,-2.4394,-2.5019,-2.5508,-2.5723,-2.5742,-2.5742,-2.5742,-2.5742,-2.5742,-2.5742,-2.544,-2.5333,-2.5333,-2.4932,-2.4735,-2.4735,-2.4637,-2.4538,-2.4538,-2.4538,-2.4538,-2.4538,-2.4538,-2.4538,-2.4538,-2.4538,-2.444,-2.4341,-2.4341,-2.4251,-2.4152,-2.4152,-2.4152,-2.4152,-2.4152,-2.4053,-2.3746,-2.3438,-2.3138,-2.2837,-2.2426,-2.1725,-2.1019,-2.0403,-1.9561,-1.8722,-1.8422,-1.8003,-1.7582,-1.7582,-1.7582,-1.7582,-1.7582,-1.7582,-1.7582,-1.7582,-1.7582,-1.7582,-1.7582,-1.7582,-1.7582,-1.7582,-1.7582,-1.7371,-1.673,-1.673,-1.6568,-1.6168,-1.6102,-1.602,-1.6028,-1.571,-1.5281,-1.4818,-1.4119,-1.3527,-1.2807,-1.2456,-1.2026,-1.1269,-1.1152,-1.0789,-1.0304,-1.0183,-0.9943,-0.9822,-0.9822,-0.9822,-2.0566,-2.0566,-2.0566,-2.0566,-2.0566,-2.0566,-2.0566,-2.0566,-2.0566,-2.0566,-2.0566,-2.0566,-2.0566,-2.0566,-2.0566,-2.0566,-2.1309,-2.1885,-2.1885,-2.2607,-2.3135,-2.3135,-2.3896,-2.4414,-2.4414,-2.5215,0.0,-2.5742,-2.5742,-2.5742,-2.5742,-2.5742,-2.5742,-2.5742,-2.5538,-2.544,-2.544,-2.5137,-2.5039,-2.5039,-2.4932,-2.4932,-2.4932,-2.4932,-2.4932,-2.4932,-2.4932,-2.4932,0.0,-2.4932,-2.4735,-2.4637,-2.4637,-2.444,-2.4251,-2.4251,-2.4251,-2.4152,-2.4152,-2.3954,-2.3646,-2.3038,-2.2627,-2.2426,-2.203,-2.1326,-2.0712,-2.0086,-1.9354,-1.8617,-1.8422,-1.8003,-1.7582,-1.7582,-1.7582,-1.7582,-1.7582,-1.7582,-1.7582,-1.7582,-1.7582,-1.7582,-1.7582,-1.7582,-1.7582,-1.7582,-1.7582,-1.7371,-1.673,-1.673,-1.6524,-1.5998,-1.6085,-1.6108,-1.5878,-1.5783,-1.5586,-1.503,-1.4401,-1.3944,-1.3538,-1.3199,-1.2565,-1.1996,-1.1803,-1.1339,-1.062,-1.0411,-1.0183,-0.9943,-0.9943,-0.9822,-2.0566,-2.0566,-2.0566,-2.0566,-2.0566,-2.0566,-2.0566,-2.0566,-2.0566,-2.0566,-2.0566,-2.0566,-2.0566,-2.0566,-2.0566,-2.0566,-2.1309,-2.1885,-2.1885,-2.2607,-2.3135,-2.3135,-2.3896,-2.4414,-2.4414,-2.5215,-2.5742,-2.5742,-2.5742,-2.5742,-2.5742,-2.5742,-2.5742,-2.5742,-2.5635,-2.5635,-2.5635,-2.544,-2.5235,-2.5235,-2.503,-2.4932,-2.4932,-2.4932,-2.4932,-2.4932,-2.4932,-2.4932,0.0,-2.4932,-2.4932,-2.4833,-2.4833,-2.4735,-2.444,-2.444,-2.4341,-2.4152,-2.3954,-2.3646,-2.3347,-2.2728,-2.2526,-2.2325,-2.1318,-2.0822,-2.0411,-1.9583,-1.8952,-1.8422,-1.8122,-1.7799,-1.7582,-1.7582,-1.7582,-1.7582,-1.7582,-1.7582,-1.7582,-1.7582,-1.7582,-1.7582,-1.7582,-1.7582,-1.7582,-1.7582,-1.7582,-1.7371,-1.673,-1.673,-1.6524,-1.5998,-1.591,-1.5928,-1.5928,-1.5849,-1.5777,-1.5667,-1.5098,-1.4545,-1.4339,-1.3432,-1.2868,-1.2422,-1.1787,-1.1524,-1.1406,-1.0959,-1.0547,-1.0304,-1.0304,-1.0061,-2.0566,-2.0566,-2.0566,-2.0566,-2.0566,-2.0566,-2.0566,-2.0566,-2.0566,-2.0566,-2.0566,-2.0566,-2.0566,-2.0566,-2.0566,-2.0566,-2.1309,-2.1885,-2.1885,-2.2607,-2.3135,-2.3135,-2.3896,-2.4414,0.0,0.0,-2.5742,-2.5742,-2.5742,-2.5742,-2.5742,-2.5742,-2.5742,-2.5742,-2.5742,-2.5742,-2.5742,-2.5635,-2.5538,-2.5538,-2.543,-2.5333,-2.5333,-2.5333,-2.5333,-2.5333,-2.5333,-2.5333,0.0,-2.5333,-2.5333,-2.5137,-2.5137,-2.4833,-2.4529,-2.4529,-2.4242,-2.3954,-2.3854,-2.3347,-2.2736,-2.2224,-2.1827,-2.142,-2.1027,-2.0403,-1.9687,-1.9376,-1.875,-1.8115,-1.8016,-1.7799,-1.7582,-1.7582,-1.7582,-1.7582,-1.7582,-1.7582,-1.7582,-1.7582,-1.7582,-1.7582,-1.7582,-1.7582,-1.7582,-1.7582,-1.7582,-1.7371,-1.673,-1.673,-1.6524,-1.5998,-1.5891,-1.5891,-1.5891,-1.5785,-1.5628,-1.5628,-1.5172,-1.474,-1.4441,-1.4111,-1.361,-1.2827,-1.2569,-1.2031,-1.1334,-1.1164,-1.0848,-1.0262,-1.0123,-1.0049,-2.0566,-2.0566,-2.0566,-2.0566,-2.0566,-2.0566,-2.0566,-2.0566,-2.0566,-2.0566,-2.0566,-2.0566,-2.0566,-2.0566,-2.0566,-2.0566,-2.1201,-2.1738,-2.1865,-2.25,-2.2998,-2.3125,0.0,-2.4277,-2.4404,-2.5215,-2.5742,-2.5742,-2.5742,-2.5742,-2.5742,-2.5742,-2.5742,-2.5742,-2.5742,-2.5742,-2.5742,-2.5742,-2.5742,-2.5742,-2.5742,-2.5742,-2.5742,-2.5742,-2.5742,-2.5742,-2.5742,-2.5742,0.0,-2.5742,-2.5635,-2.543,-2.5333,-2.503,-2.4637,-2.4538,-2.4242,-2.3746,-2.3646,-2.3038,-2.2426,-2.1725,-2.1121,-2.0609,-2.0506,-1.9894,-1.9279,-1.8959,-1.8436,-1.7911,-1.7911,-1.7694,-1.7582,-1.7582,-1.7582,-1.7582,-1.7582,-1.7582,-1.7582,-1.7582,-1.7582,-1.7582,-1.7582,-1.7582,-1.7582,-1.7582,-1.7582,-1.7371,-1.673,-1.673,-1.6524,-1.5998,-1.5891,-1.5891,-1.5891,-1.5684,-1.5583,-1.5583,-1.5363,-1.5013,-1.4757,-1.4538,-1.4061,-1.3321,-1.3159,-1.2625,-1.1604,-1.1655,-1.122,-1.0536,-1.0424,-1.0244,-2.0566,-2.0566,-2.0566,-2.0566,-2.0566,-2.0566,-2.0566,-2.0566,-2.0566,-2.0566,-2.0566,-2.0566,-2.0566,-2.0566,-2.0566,-2.0566,-2.0947,-2.1396,-2.1826,-2.2246,-2.2676,0.0,-2.3525,-2.3965,-2.4375,-2.5215,-2.5742,-2.5742,-2.5742,0.0,-2.5742,-2.5742,-2.5742,-2.5742,-2.5742,-2.5742,-2.5742,-2.5742,-2.5742,-2.5742,-2.5742,-2.5742,-2.5742,-2.5742,-2.5742,-2.5742,-2.5742,-2.5742,0.0,-2.5742,-2.5742,-2.5645,-2.544,-2.5137,-2.4833,-2.4637,-2.4242,-2.3746,-2.3129,-2.2728,-2.2325,-2.1224,-2.0498,-1.9983,-1.948,-1.9279,-1.9168,-1.8227,-1.7799,-1.7582,-1.7582,-1.7582,-1.7582,-1.7582,-1.7582,-1.7582,-1.7582,-1.7582,-1.7582,-1.7582,-1.7582,-1.7582,-1.7582,-1.7582,-1.7582,-1.7582,-1.7582,-1.7371,-1.673,-1.673,-1.6524,-1.5998,-1.5891,-1.5891,-1.5891,-1.5891,-1.5891,-1.5891,-1.569,-1.5487,-1.5487,-1.4611,-1.4175,-1.4175,-1.3522,-1.2971,-1.2655,-1.2507,-1.2025,-1.122,-1.1224,-1.0647,-2.0566,-2.0566,-2.0566,-2.0566,-2.0566,-2.0566,-2.0566,-2.0566,-2.0566,-2.0566,-2.0566,-2.0566,-2.0566,-2.0566,-2.0566,-2.0566,-2.0947,-2.1387,-2.1826,-2.2246,0.0,-2.3086,-2.3779,-2.4385,0.0,0.0,-2.5742,-2.5742,-2.5742,-2.5742,-2.5742,-2.5742,-2.5742,-2.5742,-2.5742,-2.5742,-2.5742,-2.5742,-2.5742,-2.5742,-2.5742,-2.5742,-2.5742,-2.5742,-2.5742,-2.5742,-2.5742,-2.5742,0.0,-2.5742,-2.5635,-2.544,-2.5333,-2.503,-2.4627,-2.4332,-2.3728,-2.3138,-2.2728,-2.2123,-2.1326,-2.0822,-2.0101,-1.9472,-1.8848,-1.8534,-1.8331,-1.7905,-1.7687,-1.7582,-1.7582,-1.7582,-1.7582,-1.7582,-1.7582,-1.7582,-1.7582,-1.7582,-1.7582,-1.7582,-1.7582,-1.7582,-1.7582,-1.7582,-1.7582,-1.7582,-1.7582,-1.7371,-1.673,-1.673,-1.6524,-1.5998,-1.5891,-1.5891,-1.5891,-1.5891,-1.5891,-1.5891,-1.5785,-1.5684,-1.5482,-1.5261,-1.4826,-1.4169,-1.4023,-1.352,-1.2874,-1.2606,-1.193,-1.1045,-1.1045,-1.0539,-2.0566,-2.0566,-2.0566,-2.0566,-2.0566,-2.0566,-2.0566,-2.0566,-2.0566,-2.0566,-2.0566,-2.0566,-2.0566,-2.0566,-2.0566,-2.0566,-2.0801,-2.1191,-2.1797,-2.2119,0.0,-2.3066,0.0,0.0,0.0,-2.5371,-2.5742,-2.5742,-2.5742,-2.5742,-2.5742,-2.5742,-2.5742,-2.5742,-2.5742,-2.5742,-2.5742,-2.5742,-2.5742,-2.5742,-2.5742,-2.5742,-2.5742,-2.5742,-2.5742,-2.5742,-2.5742,0.0,0.0,-2.5742,-2.5538,-2.5333,-2.5235,-2.4833,-2.4332,-2.3926,-2.3329,-2.271,-2.2063,-2.1317,-2.0601,-1.9867,-1.9199,-1.8572,-1.8047,-1.7921,-1.7799,-1.7687,-1.7582,-1.7582,-1.7582,-1.7582,-1.7582,-1.7582,-1.7582,-1.7582,-1.7582,-1.7582,-1.7582,-1.7582,-1.7582,-1.7582,-1.7582,-1.7582,-1.7582,-1.7582,-1.7477,-1.7272,-1.673,-1.663,-1.6418,-1.5998,-1.5891,-1.5891,-1.5891,-1.5891,-1.5891,-1.5891,-1.5891,-1.5791,-1.569,-1.5589,-1.5261,-1.4713,-1.4606,-1.4169,-1.3418,-1.2767,-1.2069,-1.1415,-1.097,-1.0583,0.0,-2.0566,-2.0566,-2.0566,-2.0566,-2.0566,-2.0566,0.0,0.0,-2.0566,-2.0566,-2.0566,-2.0566,-2.0566,-2.0566,-2.0566,-2.0566,-2.0859,-2.1719,-2.1894,0.0,0.0,-2.3867,0.0,-2.4414,-2.5185,-2.5703,-2.5742,-2.5742,-2.5742,-2.5742,-2.5742,-2.5742,-2.5742,-2.5742,-2.5742,-2.5742,-2.5742,-2.5742,-2.5742,-2.5742,-2.5742,-2.5742,-2.5742,-2.5742,0.0,-2.5742,0.0,0.0,-2.5635,-2.5538,-2.5235,-2.4932,-2.4529,-2.4026,-2.3402,-2.2885,-2.2231,-2.1172,-2.0552,-2.0006,-1.8699,-1.7909,-1.7545,-1.7224,-1.7335,-1.7582,-1.7582,-1.7582,-1.7582,-1.7582,-1.7582,-1.7582,-1.7582,-1.7582,-1.7582,-1.7582,-1.7582,-1.7582,-1.7582,-1.7582,-1.7582,-1.7582,-1.7582,-1.7582,-1.7582,-1.7378,-1.7067,-1.673,-1.6424,-1.6217,-1.5891,-1.5891,-1.5891,-1.5891,-1.5891,-1.5891,-1.5891,-1.5891,-1.5891,-1.5891,-1.569,-1.5482,-1.5482,-1.5154,-1.4713,-1.4169,-1.3088,-1.2441,-1.2332,-1.135,-1.0802,-2.0644,0.0,-2.0566,-2.0566,-2.0566,-2.0566,0.0,0.0,0.0,0.0,0.0,0.0,0.0,-2.0566,-2.0566,-2.0566,-2.0566,-2.0762,-2.1309,-2.1953,0.0,-2.3076,-2.3613,-2.4062,-2.4385,-2.4912,-2.5371,-2.5713,-2.5742,-2.5742,-2.5742,-2.5742,-2.5742,-2.5742,-2.5742,-2.5742,-2.5742,-2.5742,-2.5742,-2.5742,-2.5742,-2.5742,-2.5742,-2.5742,-2.5742,-2.5742,0.0,0.0,-2.5635,-2.544,-2.5235,-2.4941,-2.443,-2.3935,-2.3393,-2.2597,-2.1793,-2.1056,-2.0402,-1.9496,-1.86,-1.7733,-1.7268,-1.7123,-1.6914,-1.7168,-1.7582,-1.7582,-1.7582,-1.7582,-1.7582,-1.7582,-1.7582,-1.7582,-1.7582,-1.7582,-1.7582,-1.7582,-1.7582,-1.7582,-1.7582,-1.7582,-1.7582,-1.7582,-1.7582,-1.7582,-1.7378,-1.7067,-1.673,-1.6424,-1.6217,-1.5891,-1.5891,-1.5891,-1.5891,-1.5891,-1.5891,-1.5891,-1.5891,-1.5891,-1.5891,-1.5891,-1.569,-1.5482,-1.5154,-1.4713,-1.4169,-1.3954,-1.3305,-1.2436,-1.211,-1.1564,-2.0741,-2.0654,-2.0566,-2.0566,-2.0566,-2.0566,-2.0566,0.0,0.0,0.0,0.0,0.0,0.0,-2.0566,-2.0566,-2.0566,-2.0566,-2.0791,-2.1435,0.0,-2.2666,-2.3086,-2.3525,-2.3887,0.0,-2.4697,-2.5166,-2.541,-2.5625,-2.5742,-2.5742,-2.5742,-2.5742,-2.5742,-2.5742,-2.5742,-2.5742,-2.5742,-2.5742,-2.5742,-2.5742,-2.5742,-2.5742,-2.5742,-2.5742,-2.5742,0.0,0.0,-2.5635,-2.543,-2.5039,-2.4637,-2.4233,-2.3628,-2.2785,-2.1999,-2.1172,-2.042,-1.9318,-1.8275,-1.7287,-1.6808,-1.6701,-1.6711,-1.6605,-1.682,-1.7208,-1.7348,-1.7482,-1.7582,-1.7582,-1.7582,-1.7582,-1.7582,-1.7582,-1.7582,-1.7582,-1.7582,-1.7582,-1.7582,-1.7582,-1.7582,-1.7582,-1.7582,-1.7582,-1.7582,-1.7272,-1.6955,-1.673,-1.6311,-1.6105,-1.5891,-1.5891,-1.5891,-1.5891,-1.5891,-1.5891,-1.5891,-1.5891,-1.5891,-1.5891,-1.5891,-1.5785,-1.569,-1.5363,-1.5041,-1.4821,-1.439,-1.384,-1.3197,-1.2654,-1.2114,-2.0906,-2.0819,-2.0644,-2.0644,-2.0566,-2.0566,-2.0566,0.0,0.0,0.0,0.0,0.0,0.0,-2.0566,0.0,-2.0566,-2.0566,-2.0879,-2.1758,-2.2197,-2.2598,-2.3076,-2.3467,0.0,-2.3779,-2.4443,-2.4932,-2.5059,-2.542,-2.5664,-2.5732,-2.5742,-2.5742,-2.5742,-2.5742,-2.5742,-2.5742,-2.5742,-2.5742,-2.5742,-2.5742,-2.5742,-2.5742,-2.5742,-2.5742,-2.5742,0.0,0.0,-2.5635,-2.5342,-2.4932,-2.443,-2.3962,-2.324,-2.2189,-2.1263,-2.0522,-1.9842,-1.8245,-1.7003,-1.6224,-1.6123,-1.6197,-1.6206,-1.6206,-1.6406,-1.6693,-1.6941,-1.7255,-1.7515,-1.7515,-1.7549,-1.7582,-1.7582,-1.7582,-1.7582,-1.7582,-1.7582,-1.7582,-1.7582,-1.7582,-1.7582,-1.7582,-1.7582,-1.7582,-1.7589,-1.7047,-1.673,-1.663,-1.6205,-1.5891,-1.5891,-1.5891,-1.5891,-1.5891,-1.5891,-1.5891,-1.5891,-1.5891,-1.5891,-1.5891,-1.5891,-1.5891,-1.5891,-1.569,-1.5589,-1.5482,-1.4713,-1.4277,-1.4169,-1.3197,-1.2545,-2.1061,-2.0906,-2.0819,-2.0644,-2.0566,-2.0566,-2.0566,0.0,0.0,0.0,0.0,0.0,0.0,-2.0566,-2.0566,0.0,0.0,-2.0879,0.0,0.0,-2.2266,-2.3047,0.0,-2.3379,-2.375,-2.3906,-2.4287,-2.501,0.0,-2.5332,-2.5713,-2.5742,-2.5742,-2.5742,-2.5742,-2.5742,-2.5742,-2.5742,-2.5742,-2.5742,-2.5742,-2.5742,-2.5742,-2.5742,-2.5742,-2.5742,0.0,-2.5538,-2.5333,-2.503,-2.4637,-2.4097,-2.3064,-2.2146,-2.1279,-2.0119,-1.9208,-1.8378,-1.7158,-1.6543,-1.613,-1.5933,-1.5865,-1.5899,-1.5899,-1.6106,-1.6346,-1.6393,-1.68,-1.7215,-1.7215,-1.7402,-1.7582,-1.7582,-1.7582,-1.7582,-1.7582,-1.7582,-1.7582,-1.7582,-1.7582,-1.7582,-1.7582,-1.7582,-1.7483,-1.7279,-1.6948,-1.663,-1.6424,-1.6105,-1.5891,-1.5891,-1.5891,-1.5891,-1.5891,-1.5891,-1.5891,-1.5891,-1.5891,-1.5891,-1.5891,-1.5891,-1.5891,-1.5891,-1.5891,-1.5684,-1.5482,-1.5374,-1.4934,-1.4169,-1.4056,-1.3413,-2.1436,-2.1128,-2.0906,-2.0819,-2.0654,-2.0566,-2.0566,-2.0566,0.0,0.0,0.0,0.0,0.0,0.0,-2.0566,-2.0566,0.0,-2.0879,-2.1758,-2.1885,-2.2197,0.0,0.0,-2.3213,-2.3418,0.0,0.0,0.0,0.0,0.0,-2.501,-2.5029,-2.5029,-2.5029,-2.5029,-2.5029,-2.5029,-2.5029,-2.5264,-2.5732,-2.5488,-2.5371,-2.5371,-2.5127,-2.5029,-2.5029,0.0,-2.483,-2.464,-2.425,-2.3771,-2.3175,-2.232,-2.1371,-2.0525,-1.9143,-1.8088,-1.7246,-1.6637,-1.6218,-1.5927,-1.5832,-1.5832,-1.5832,-1.5832,-1.5925,-1.6032,-1.6032,-1.6453,-1.6907,-1.6907,-1.7128,-1.7348,-1.7348,-1.7468,-1.7582,-1.7582,-1.7582,-1.7582,-1.7582,-1.7582,-1.7582,-1.7582,-1.7582,-1.7483,-1.7279,-1.6955,-1.663,-1.6324,-1.6105,-1.5891,-1.5891,-1.5891,-1.5891,-1.5891,-1.5891,-1.5891,-1.5891,-1.5891,-1.5891,-1.5891,-1.5891,-1.5891,-1.5891,-1.5891,-1.5891,-1.5684,-1.5583,-1.5261,-1.4934,-1.4385,-1.3914,-2.1883,-2.1425,-2.1061,-2.0906,0.0,-2.0566,-2.0566,-2.0566,0.0,0.0,0.0,0.0,0.0,-2.0566,0.0,-2.0566,-2.0566,-2.0879,-2.1758,-2.1885,-2.2197,-2.3037,-2.3135,-2.3135,0.0,0.0,0.0,0.0,0.0,0.0,-2.4414,-2.4414,-2.4414,-2.4414,-2.4414,-2.4414,-2.4414,-2.4414,-2.4756,-2.542,-2.5078,-2.4912,-2.4902,-2.457,-2.4414,-2.4414,-2.4322,-2.4239,-2.3961,-2.3392,-2.2923,-2.2357,-2.1605,-2.0654,-1.9582,-1.8185,-1.7268,-1.6588,-1.6312,-1.6028,-1.5832,-1.5832,-1.5832,-1.5832,-1.5832,-1.5832,-1.5832,-1.5832,-1.6152,-1.6513,-1.6587,-1.6827,-1.7061,-1.7134,-1.7321,-1.7502,-1.7569,-1.7582,-1.7582,-1.7582,-1.7582,-1.7582,-1.7582,-1.7582,-1.7477,-1.7173,-1.6842,-1.663,-1.6211,-1.5998,-1.5891,-1.5891,-1.5891,-1.5891,-1.5891,-1.5891,-1.5891,-1.5891,-1.5891,-1.5891,-1.5891,-1.5891,-1.5891,-1.5891,-1.5891,-1.5891,-1.5891,-1.5684,-1.5589,-1.5487,-1.4883,-1.4571,-2.2025,-2.1807,-2.1578,-2.1061,-2.0741,0.0,-2.0566,-2.0566,0.0,-2.0566,0.0,0.0,0.0,-2.0566,-2.0566,-2.0566,-2.0566,-2.0879,-2.1758,0.0,-2.2197,-2.3037,-2.3135,-2.3135,0.0,0.0,0.0,0.0,0.0,0.0,-2.4394,-2.4414,-2.4414,-2.4414,-2.4414,-2.4414,-2.4414,-2.4414,-2.4453,-2.4512,-2.4482,-2.4463,-2.4463,-2.4434,-2.4414,-2.4414,-2.4239,-2.3961,-2.3682,-2.3214,-2.2555,-2.1752,-2.0925,-1.9646,-1.8155,-1.7391,-1.6899,-1.6588,-1.6312,-1.6028,-1.5832,-1.5832,-1.5832,-1.5832,-1.5832,-1.5832,-1.5832,-1.5832,-1.5858,-1.5952,-1.6233,-1.652,-1.6807,-1.7081,-1.7161,-1.7255,-1.7522,-1.7582,-1.7582,-1.7582,-1.7582,-1.7582,-1.7582,-1.7582,-1.7371,-1.6836,-1.673,-1.6518,-1.5998,-1.5891,-1.5891,-1.5891,-1.5891,-1.5891,-1.5891,-1.5891,-1.5891,-1.5891,-1.5891,-1.5891,-1.5891,-1.5891,-1.5891,-1.5891,-1.5891,-1.5891,-1.5891,-1.5891,-1.5791,-1.5487,-1.5722,-1.5511,-2.2327,-2.1949,-2.1655,-2.1215,-2.0974,0.0,0.0,-2.0566,-2.0566,-2.0566,-2.0566,0.0,0.0,0.0,-2.0566,-2.0566,-2.0566,-2.0781,-2.1396,-2.1719,-2.21,-2.2685,-2.2978,0.0,0.0,0.0,0.0,0.0,0.0,0.0,-2.3613,-2.3623,-2.3623,-2.3623,-2.3623,-2.3623,-2.3623,-2.3623,-2.3623,-2.3623,-2.3896,-2.4033,-2.4014,-2.374,-2.3623,-2.3623,-2.3364,-2.3185,-2.2815,-2.2281,-2.1642,-2.0971,-1.9717,-1.8652,-1.7721,-1.7059,-1.6683,-1.6494,-1.6116,-1.5927,-1.5832,-1.5832,-1.5832,-1.5832,-1.5832,-1.5832,-1.5832,-1.5832,-1.5832,-1.5852,-1.5965,-1.6213,-1.6466,-1.658,-1.6881,-1.7181,-1.7288,-1.7455,-1.7582,-1.7582,-1.7582,-1.7582,-1.7582,-1.7582,-1.7371,-1.6836,-1.673,-1.6518,-1.5992,-1.5891,-1.5891,-1.5891,-1.5891,-1.5891,-1.5891,-1.5891,-1.5891,-1.5891,-1.5891,-1.5891,-1.5891,-1.5891,-1.5891,-1.5891,-1.5891,-1.5891,-1.5891,-1.5891,-1.5976,-1.6036,-1.5926,-1.5917,-2.2553,-2.2176,-2.1883,-2.1359,0.0,0.0,-2.0654,-2.0566,-2.0566,-2.0566,-2.0566,-2.0566,-2.0566,0.0,0.0,0.0,-2.0566,-2.0723,-2.1172,-2.1494,-2.1885,-2.2441,-2.2764,0.0,0.0,0.0,0.0,0.0,0.0,0.0,0.0,-2.3135,-2.3135,-2.3135,-2.3135,-2.3135,-2.3135,-2.3135,-2.3135,-2.3144,-2.3437,-2.3584,-2.3574,-2.3271,-2.3135,-2.3047,-2.2794,-2.253,-2.2264,-2.1472,-2.0753,-2.0019,-1.8819,-1.8079,-1.7527,-1.6871,-1.6588,-1.64,-1.592,-1.5832,-1.5832,-1.5832,-1.5832,-1.5832,-1.5832,-1.5832,-1.5832,-1.5832,-1.5832,-1.5832,-1.5832,-1.5979,-1.6159,-1.6253,-1.6653,-1.7034,-1.7134,-1.7375,-1.7582,-1.7582,-1.7582,-1.7582,-1.7582,-1.7582,-1.7371,-1.6836,-1.673,-1.6518,-1.5992,-1.5891,-1.5891,-1.5891,-1.5891,-1.5891,-1.5891,-1.5891,-1.5891,-1.5891,-1.5891,-1.5891,-1.5891,-1.5891,-1.5891,-1.5891,-1.5891,-1.5891,-1.5891,-1.597,-1.6103,-1.6284,-1.6244,-1.6405,-2.2628,-2.2402,-2.2176,-2.1436,0.0,0.0,-2.0722,-2.0566,-2.0566,-2.0566,-2.0566,-2.0566,-2.0566,-2.0566,0.0,-2.0566,-2.0566,-2.0723,-2.1172,-2.123,-2.1553,-2.2402,0.0,0.0,0.0,0.0,0.0,0.0,0.0,0.0,0.0,-2.3135,-2.3135,-2.3135,-2.3135,-2.3135,-2.3135,-2.3135,-2.3135,-2.3135,-2.3135,-2.3135,-2.3135,-2.3135,-2.3135,-2.3057,-2.2608,-2.2264,-2.2008,-2.1105,-1.992,-1.8735,-1.8272,-1.78,-1.7239,-1.677,-1.64,-1.613,-1.5927,-1.5832,-1.5832,-1.5832,-1.5832,-1.5832,-1.5832,-1.5832,-1.5832,-1.5832,-1.5832,-1.5832,-1.5832,-1.5832,-1.5905,-1.6199,-1.6486,-1.678,-1.7081,-1.7375,-1.7582,-1.7582,-1.7582,-1.7582,-1.7582,-1.7582,-1.7371,-1.6836,-1.673,-1.6518,-1.5992,-1.5891,-1.5891,-1.5891,-1.5891,-1.5891,-1.5891,-1.5891,-1.5891,-1.5891,-1.5891,-1.5891,-1.5891,-1.5891,-1.5891,-1.5891,-1.5891,-1.5891,-1.5891,-1.6151,-1.6284,-1.6302,-1.6839,-1.7092,-2.2628,-2.2402,-2.2176,-2.1436,0.0,0.0,0.0,-2.0566,0.0,0.0,-2.0566,-2.0566,-2.0566,-2.0566,0.0,-2.0566,-2.0566,-2.0605,-2.0742,-2.1035,0.0,0.0,0.0,0.0,0.0,0.0,0.0,0.0,0.0,0.0,0.0,-2.3135,-2.3135,-2.3135,-2.3135,-2.3135,-2.3135,-2.3135,-2.3135,-2.3135,-2.3135,-2.3135,-2.3135,-2.3135,-2.3057,-2.2882,-2.253,-2.2176,-2.1741,-2.0464,-1.9371,-1.8542,-1.7994,-1.7535,-1.7066,-1.6683,-1.64,-1.613,-1.5927,-1.5832,-1.5832,-1.5832,-1.5832,-1.5832,-1.5832,-1.5832,-1.5832,-1.5832,-1.5832,-1.5832,-1.5832,-1.5832,-1.5852,-1.5939,-1.6186,-1.648,-1.6774,-1.7068,-1.7335,-1.7542,-1.7582,-1.7582,-1.7582,-1.7582,-1.7371,-1.6836,-1.673,-1.6518,-1.5992,-1.5891,-1.5891,-1.5891,-1.5891,-1.5891,-1.5891,-1.5891,-1.5891,-1.5891,-1.5891,-1.5891,-1.5891,-1.5891,-1.5891,-1.5891,-1.5891,-1.5982,-1.6163,-1.6241,-1.6477,-1.6857,-1.702,-1.7189,-2.2628,-2.2327,-2.2111,-2.1359,-2.1128,-2.0974,-2.0644,0.0,0.0,0.0,-2.0566,-2.0566,-2.0566,-2.0566,0.0,-2.0566,-2.0566,-2.0566,-2.0566,-2.0801,0.0,0.0,0.0,0.0,0.0,0.0,0.0,0.0,0.0,0.0,0.0,-2.2891,-2.2969,-2.3135,-2.3135,-2.3135,-2.3135,-2.3135,-2.3135,-2.3135,-2.3135,-2.3135,-2.3135,-2.3135,-2.2969,-2.2803,-2.2078,-2.1544,-2.0925,-1.9737,-1.8912,-1.8265,-1.7714,-1.7246,-1.6784,-1.6494,-1.6312,-1.6028,-1.5832,-1.5832,-1.5832,-1.5832,-1.5832,-1.5832,-1.5832,-1.5832,-1.5832,-1.5832,-1.5832,-1.5832,-1.5832,-1.5832,-1.5832,-1.5832,-1.6052,-1.6353,-1.6647,-1.6941,-1.7235,-1.7522,-1.7582,-1.7582,-1.7582,-1.7582,-1.7371,-1.6836,-1.6524,-1.6311,-1.5885,-1.5891,-1.5891,-1.5891,-1.5891,-1.5891,-1.5891,-1.5891,-1.5891,-1.5891,-1.5891,-1.5891,-1.5891,-1.5891,-1.5891,-1.5891,-1.5891,-1.6018,-1.6278,-1.6392,-1.667,-1.7092,-1.7201,-1.7334,-2.2628,-2.2252,-2.1949,-2.1359,-2.1061,0.0,-2.0644,-2.0566,-2.0566,-2.0566,0.0,-2.0566,-2.0566,-2.0566,-2.0566,-2.0566,-2.0566,-2.0566,-2.0566,-2.0566,0.0,0.0,0.0,0.0,0.0,0.0,0.0,0.0,0.0,0.0,0.0,-2.2461,-2.2646,-2.3066,-2.3086,-2.3096,-2.3135,-2.3135,-2.3135,-2.3135,-2.3135,-2.3057,-2.3057,-2.3057,-2.2969,-2.2627,-2.1445,-2.0546,-1.9837,-1.9104,-1.8458,-1.7994,-1.7426,-1.6958,-1.6494,-1.6319,-1.6028,-1.5832,-1.5832,-1.5832,-1.5832,-1.5832,-1.5832,-1.5832,-1.5832,-1.5832,-1.5832,-1.5832,-1.5832,-1.5832,-1.5832,-1.5832,-1.5832,-1.5832,-1.6039,-1.6319,-1.664,-1.6914,-1.7201,-1.7522,-1.7582,-1.7582,-1.7582,-1.7582,-1.7371,-1.6836,-1.6311,-1.5891,-1.5891,-1.5891,-1.5891,-1.5891,-1.5891,-1.5891,-1.5891,-1.5891,-1.5891,-1.5891,-1.5891,-1.5891,-1.5891,-1.5891,-1.5891,-1.5891,-1.5891,-1.603,-1.632,-1.6573,-1.6845,-1.7135,-1.737,-1.7485,-2.2553,-2.2101,0.0,-2.1282,-2.0964,-2.0644,-2.0644,-2.0566,-2.0566,-2.0566,-2.0566,-2.0566,-2.0566,-2.0566,-2.0566,-2.0566,-2.0566,-2.0566,-2.0566,-2.0566,-2.0596,-2.0703,0.0,0.0,0.0,0.0,0.0,0.0,0.0,0.0,-2.2012,-2.2021,-2.2207,-2.2637,-2.2646,-2.2803,-2.3135,-2.3135,-2.3135,0.0,-2.3135,-2.3057,-2.2882,-2.2882,-2.2539,-2.1909,-2.1105,-2.0374,-1.9646,-1.8912,-1.8172,-1.7426,-1.716,-1.6784,-1.6312,-1.6224,-1.6028,-1.5832,-1.5832,-1.5832,-1.5832,-1.5832,-1.5832,-1.5832,-1.5832,-1.5832,-1.5832,-1.5832,-1.5832,-1.5832,-1.5832,-1.5832,-1.5832,-1.5832,-1.5879,-1.6066,-1.6593,-1.676,-1.6954,-1.7482,-1.7582,-1.7582,-1.7582,-1.7582,-1.7371,-1.6836,-1.6424,-1.6111,-1.5891,-1.5891,-1.5891,-1.5891,-1.5891,-1.5891,-1.5891,-1.5891,-1.5891,-1.5891,-1.5891,-1.5891,-1.5891,-1.5891,-1.5891,-1.5891,-1.5891,-1.6127,-1.661,-1.667,-1.6942,-1.74,-1.7455,-1.7485,-2.2553,-2.2025,0.0,-2.1041,0.0,-2.0566,-2.0566,-2.0566,-2.0566,-2.0566,-2.0566,-2.0566,-2.0566,-2.0566,-2.0566,-2.0566,-2.0566,-2.0566,-2.0566,-2.0566,-2.0566,-2.0566,0.0,0.0,0.0,0.0,0.0,0.0,0.0,-2.1348,-2.1562,-2.1572,-2.1768,-2.2197,-2.2207,-2.2314,-2.2539,-2.2539,-2.2539,-2.2539,-2.2539,-2.2475,-2.2331,-2.2268,-2.1909,-2.1275,-2.0555,-1.9828,-1.9188,-1.8257,-1.7699,-1.7232,-1.6784,-1.6414,-1.6218,-1.6028,-1.5927,-1.5832,-1.5832,-1.5832,-1.5832,-1.5832,-1.5832,-1.5832,-1.5832,-1.5832,-1.5832,-1.5832,-1.5832,-1.5832,-1.5832,-1.5832,-1.5832,-1.5832,-1.5832,-1.5952,-1.64,-1.6607,-1.684,-1.7288,-1.7488,-1.7582,-1.7582,-1.7483,-1.7272,-1.673,-1.6424,-1.6217,-1.5891,-1.5891,-1.5891,-1.5891,-1.5891,-1.5891,-1.5891,-1.5891,-1.5891,-1.5891,-1.5891,-1.5891,-1.5891,-1.5891,-1.5891,-1.5891,-1.5891,-1.6091,-1.6501,-1.6634,-1.6905,-1.7298,-1.7424,-1.7485,-2.2553,-2.1949,-2.1272,-2.0722,-2.0566,0.0,-2.0566,-2.0566,-2.0566,-2.0566,-2.0566,-2.0566,-2.0566,-2.0566,-2.0566,-2.0566,-2.0566,-2.0566,-2.0566,-2.0566,-2.0566,-2.0566,-2.0566,0.0,0.0,0.0,0.0,0.0,0.0,-2.0732,-2.1103,-2.1123,-2.1318,-2.1758,-2.1777,-2.1807,-2.1885,-2.1885,-2.1885,-2.1885,-2.1802,-2.1726,-2.1569,-2.1447,-2.1212,-2.0907,-2.0002,-1.9279,-1.8643,-1.7707,-1.7232,-1.7145,-1.6501,-1.613,-1.6123,-1.5927,-1.5832,-1.5832,-1.5832,-1.5832,-1.5832,-1.5832,-1.5832,-1.5832,-1.5832,-1.5832,-1.5832,-1.5832,-1.5832,-1.5832,-1.5832,-1.5832,-1.5832,-1.5832,-1.5832,-1.5912,-1.6213,-1.65,-1.6794,-1.7088,-1.7382,-1.7582,-1.7582,-1.7378,-1.7173,-1.6842,-1.653,-1.6318,-1.5998,-1.5891,-1.5891,-1.5891,-1.5891,-1.5891,-1.5891,-1.5891,-1.5891,-1.5891,-1.5891,-1.5891,-1.5891,-1.5891,-1.5891,-1.5891,-1.5891,-1.6018,-1.6278,-1.6513,-1.6767,-1.7032,-1.7292,-1.7412,-2.2478,0.0,-2.1128,0.0,-2.0566,-2.0566,0.0,0.0,-2.0566,0.0,-2.0566,-2.0566,-2.0566,-2.0566,-2.0566,-2.0566,-2.0566,-2.0566,-2.0566,-2.0566,-2.0566,-2.0566,-2.0566,0.0,0.0,0.0,0.0,0.0,-2.0566,-2.0596,-2.0654,-2.0654,-2.0859,-2.1309,-2.1318,-2.1504,-2.1885,-2.1885,-2.1885,-2.1885,-2.1534,-2.1136,-2.0716,-2.0419,-2.0421,-2.0736,-1.992,-1.9188,-1.845,-1.7606,-1.7052,-1.6683,-1.6312,-1.6028,-1.5832,-1.5832,-1.5832,-1.5832,-1.5832,-1.5832,-1.5832,-1.5832,-1.5832,-1.5832,-1.5832,-1.5832,-1.5832,-1.5832,-1.5832,-1.5832,-1.5832,-1.5832,-1.5832,-1.5832,-1.5832,-1.5912,-1.6213,-1.65,-1.6794,-1.7088,-1.7382,-1.7582,-1.7582,-1.7582,-1.7483,-1.7173,-1.6849,-1.6524,-1.6324,-1.5998,-1.5891,-1.5891,-1.5891,-1.5891,-1.5891,-1.5891,-1.5891,-1.5891,-1.5891,-1.5891,-1.5891,-1.5891,-1.5891,-1.5891,-1.5891,-1.6018,-1.6278,-1.632,-1.6483,-1.6761,-1.7026,-1.7141,-2.1883,-2.1359,-2.0974,0.0,-2.0566,-2.0566,-2.0566,-2.0566,-2.0566,-2.0566,-2.0566,-2.0566,-2.0566,-2.0566,-2.0566,-2.0566,-2.0566,-2.0566,-2.0566,-2.0566,-2.0566,-2.0566,-2.0566,0.0,0.0,0.0,0.0,0.0,-2.0566,-2.0566,-2.0566,-2.0566,-2.0654,-2.0859,-2.0859,-2.0947,-2.1143,-2.1143,-2.1152,-2.0992,-2.0727,-2.0512,-2.0209,-1.9753,-1.9615,-1.9715,-1.919,-1.8535,-1.7792,-1.7145,-1.6676,-1.6312,-1.6123,-1.5927,-1.5832,-1.5832,-1.5832,-1.5832,-1.5832,-1.5832,-1.5832,-1.5832,-1.5832,-1.5832,-1.5832,-1.5832,-1.5832,-1.5832,-1.5832,-1.5832,-1.5832,-1.5832,-1.5832,-1.5832,-1.5832,-1.5912,-1.6213,-1.65,-1.684,-1.7301,-1.7495,-1.7582,-1.7582,-1.7582,-1.7483,-1.7279,-1.7067,-1.6855,-1.6324,-1.6217,-1.6105,-1.5891,-1.5891,-1.5891,-1.5891,-1.5891,-1.5891,-1.5891,-1.5891,-1.5891,-1.5891,-1.5891,-1.5891,-1.5891,-1.5891,-1.5946,-1.606,-1.6211,-1.6344,-1.6471,-1.6748,-1.6875,-2.1359,0.0,-2.0829,-2.0644,-2.0566,-2.0566,0.0,0.0,-2.0566,0.0,-2.0566,-2.0566,-2.0566,-2.0566,-2.0566,-2.0566,-2.0566,-2.0566,-2.0566,-2.0566,-2.0566,-2.0566,-2.0566,0.0,0.0,0.0,0.0,0.0,-2.0566,-2.0566,-2.0566,-2.0566,-2.0566,-2.0566,-2.0566,-2.0566,-2.0566,-2.0566,-2.0411,-2.0186,-2.0014,-1.9841,-1.9462,-1.9106,-1.874,-1.8418,-1.8312,-1.7857,-1.7123,-1.6648,-1.6407,-1.613,-1.5927,-1.5832,-1.5832,-1.5832,-1.5832,-1.5832,-1.5832,-1.5832,-1.5832,-1.5832,-1.5832,-1.5832,-1.5832,-1.5832,-1.5832,-1.5832,-1.5832,-1.5832,-1.5832,-1.5832,-1.5832,-1.5832,-1.5885,-1.6025,-1.6319,-1.6613,-1.6967,-1.7482,-1.7582,-1.7582,-1.7582,-1.7582,-1.7477,-1.7384,-1.7279,-1.7067,-1.6537,-1.643,-1.6217,-1.5998,-1.5891,-1.5891,-1.5891,-1.5891,-1.5891,-1.5891,-1.5891,-1.5891,-1.5891,-1.5891,-1.5891,-1.5891,-1.5891,-1.5891,-1.5891,-1.6085,-1.6181,-1.6187,-1.6471,-1.6604,-2.1061,-2.0906,0.0,-2.0644,-2.0566,-2.0566,0.0,0.0,-2.0566,-2.0566,-2.0566,-2.0566,-2.0566,-2.0566,-2.0566,-2.0566,-2.0566,-2.0566,-2.0566,-2.0566,-2.0566,-2.0566,-2.0566,-2.0566,0.0,0.0,0.0,0.0,-2.0566,-2.0566,-2.0566,-2.0566,-2.0566,-2.0566,-2.0566,-2.0566,-2.0566,-2.042,-2.0186,-1.9942,-1.9566,-1.902,-1.8477,-1.8103,-1.7616,-1.7001,-1.7494,-1.7334,-1.6901,-1.6383,-1.6224,-1.613,-1.5927,-1.5832,-1.5832,-1.5832,-1.5832,-1.5832,-1.5832,-1.5832,-1.5832,-1.5832,-1.5832,-1.5832,-1.5832,-1.5832,-1.5832,-1.5832,-1.5832,-1.5832,-1.5832,-1.5832,-1.5832,-1.5832,-1.6046,-1.6333,-1.662,-1.6914,-1.7215,-1.7522,-1.7582,-1.7582,-1.7582,-1.7582,-1.7582,-1.7582,-1.7384,-1.7179,-1.7179,-1.6643,-1.6324,-1.6324,-1.5998,-1.5891,-1.5891,-1.5891,-1.5891,-1.5891,-1.5891,-1.5891,-1.5891,-1.5891,-1.5891,-1.5891,-1.5891,-1.5891,-1.5891,-1.5903,-1.591,-1.5916,-1.6199,-1.6332,-2.0984,0.0,0.0,-2.0644,-2.0566,-2.0566,-2.0566,-2.0566,-2.0566,-2.0566,-2.0566,-2.0566,-2.0566,-2.0566,-2.0566,-2.0566,-2.0566,-2.0566,-2.0566,-2.0566,-2.0566,-2.0566,-2.0566,-2.0566,0.0,0.0,0.0,0.0,0.0,-2.0566,-2.0566,-2.0566,-2.0566,-2.0566,-2.0566,-2.0566,-2.0566,-2.042,-2.0108,-1.9715,-1.9143,-1.8665,-1.8121,-1.7434,-1.683,-1.6369,-1.6305,-1.6291,-1.6401,-1.6075,-1.5953,-1.5927,-1.5832,-1.5832,-1.5832,-1.5832,-1.5832,-1.5832,-1.5832,-1.5832,-1.5832,-1.5832,-1.5832,-1.5832,-1.5832,-1.5832,-1.5832,-1.5832,-1.5832,-1.5832,-1.5832,-1.5832,-1.5879,-1.6072,-1.6486,-1.6867,-1.6967,-1.7221,-1.7462,-1.7562,-1.7582,-1.7582,-1.7582,-1.7582,-1.7582,-1.7582,-1.7483,-1.7378,-1.7179,-1.6961,-1.6755,-1.6324,-1.6217,-1.6105,-1.5891,-1.5891,-1.5891,-1.5891,-1.5891,-1.5891,-1.5891,-1.5891,-1.5891,-1.5891,-1.5891,-1.5891,-1.5891,-1.5891,-1.5891,-1.5891,-1.5994,-1.6042,-2.0819,0.0,0.0,0.0,-2.0566,-2.0566,-2.0566,0.0,-2.0566,-2.0566,-2.0566,-2.0566,-2.0566,-2.0566,-2.0566,-2.0566,-2.0566,-2.0566,-2.0566,-2.0566,-2.0566,-2.0566,-2.0566,-2.0566,0.0,0.0,0.0,0.0,0.0,0.0,-2.0566,-2.0566,-2.0566,-2.0566,-2.0566,-2.0566,-2.0489,-2.0264,-1.9951,-1.9478,-1.8913,-1.8353,-1.7797,-1.6976,-1.6319,-1.5839,-1.5382,-1.5486,-1.5798,-1.5732,-1.5758,-1.5832,-1.5832,-1.5832,-1.5832,-1.5832,-1.5832,-1.5832,-1.5832,-1.5832,-1.5832,-1.5832,-1.5832,-1.5832,-1.5832,-1.5832,-1.5832,-1.5832,-1.5832,-1.5832,-1.5832,-1.5905,-1.6079,-1.6473,-1.6867,-1.7174,-1.7275,-1.7442,-1.7582,-1.7582,-1.7582,-1.7582,-1.7582,-1.7582,-1.7582,-1.7582,-1.7582,-1.7582,-1.7384,-1.7279,-1.6961,-1.653,-1.6324,-1.6217,-1.5891,-1.5891,-1.5891,-1.5891,-1.5891,-1.5891,-1.5891,-1.5891,-1.5891,-1.5891,-1.5891,-1.5891,-1.5891,-1.5891,-1.5891,-1.5891,-1.5891,-1.5891,0.0,0.0,0.0,0.0,0.0,0.0,-2.0566,0.0,-2.0566,-2.0566,-2.0566,-2.0566,-2.0566,-2.0566,-2.0566,-2.0566,-2.0566,-2.0566,-2.0566,-2.0566,-2.0566,-2.0566,-2.0566,-2.0566,0.0,0.0,0.0,0.0,-2.0566,-2.0566,-2.0566,-2.0566,-2.0566,-2.0566,-2.0566,-2.0489,-2.0264,-2.002,-1.9706,-1.9301,-1.8674,-1.804,-1.7392,-1.6648,-1.5982,-1.5394,-1.4901,-1.4919,-1.5246,-1.5355,-1.5558,-1.5818,-1.5825,-1.5832,-1.5832,-1.5832,-1.5832,-1.5832,-1.5832,-1.5832,-1.5832,-1.5832,-1.5832,-1.5832,-1.5832,-1.5832,-1.5832,-1.5832,-1.5832,-1.5832,-1.5838,-1.6059,-1.6433,-1.7014,-1.7257,-1.7241,-1.7522,-1.7582,-1.7582,-1.7582,-1.7582,-1.7582,-1.7582,-1.7582,-1.7582,-1.7582,-1.7582,-1.7582,-1.7582,-1.7378,-1.7067,-1.673,-1.6424,-1.6217,-1.5891,-1.5891,-1.5891,-1.5891,-1.5891,-1.5891,-1.5891,-1.5891,-1.5891,-1.5891,-1.5891,-1.5891,-1.5891,-1.5891,-1.5891,-1.5891,-1.5891,-1.5891,-2.0644,0.0,0.0,0.0,0.0,0.0,0.0,0.0,-2.0566,-2.0566,-2.0566,-2.0566,-2.0566,-2.0566,-2.0566,-2.0566,-2.0566,-2.0566,-2.0566,-2.0566,-2.0566,-2.0566,-2.0566,-2.0566,0.0,0.0,0.0,0.0,-2.0566,-2.0566,-2.0566,-2.0566,-2.0566,-2.042,-2.0411,-2.0264,-2.002,-1.9627,-1.9222,-1.8895,-1.8031,-1.7392,-1.6902,-1.6057,-1.5484,-1.5166,-1.4657,-1.4538,-1.4757,-1.4963,-1.5257,-1.5538,-1.5745,-1.5832,-1.5832,-1.5832,-1.5832,-1.5832,-1.5832,-1.5832,-1.5832,-1.5832,-1.5832,-1.5832,-1.5832,-1.5832,-1.5832,-1.5832,-1.5832,-1.5879,-1.6092,-1.6366,-1.668,-1.7061,-1.7308,-1.7482,-1.7562,-1.7582,-1.7582,-1.7582,-1.7582,-1.7582,-1.7582,-1.7582,-1.7582,-1.7582,-1.7582,-1.7582,-1.7582,-1.7582,-1.7265,-1.673,-1.6624,-1.6418,-1.5891,-1.5891,-1.5891,-1.5891,-1.5891,-1.5891,-1.5891,-1.5891,-1.5891,-1.5891,-1.5891,-1.5891,-1.5891,-1.5891,-1.5891,-1.5891,-1.5891,-1.5891,-2.0566,-2.0566,-2.0566,-2.0566,0.0,0.0,-2.0566,-2.0566,-2.0566,0.0,-2.0566,-2.0566,-2.0566,-2.0566,-2.0566,-2.0566,-2.0566,-2.0566,-2.0566,-2.0566,-2.0566,-2.0566,-2.0566,-2.0566,0.0,-2.0566,-2.0566,-2.0566,-2.0566,-2.0566,-2.0566,-2.0489,-2.042,-2.0264,-2.0186,-1.9942,-1.9618,-1.9311,-1.8904,-1.8425,-1.7627,-1.6984,-1.6409,-1.5733,-1.5151,-1.4824,-1.4482,-1.4331,-1.4376,-1.479,-1.5137,-1.5424,-1.5718,-1.5832,-1.5832,-1.5832,-1.5832,-1.5832,-1.5832,-1.5832,-1.5832,-1.5832,-1.5832,-1.5832,-1.5832,-1.5832,-1.5832,-1.5832,-1.5919,-1.6086,-1.638,-1.6673,-1.6967,-1.7261,-1.7462,-1.7582,-1.7582,-1.7582,-1.7582,-1.7582,-1.7582,-1.7582,-1.7582,-1.7582,-1.7582,-1.7582,-1.7582,-1.7582,-1.7582,-1.7582,-1.7371,-1.673,-1.673,-1.6518,-1.5998,-1.5891,-1.5891,-1.5891,-1.5891,-1.5891,-1.5891,-1.5891,-1.5891,-1.5891,-1.5891,-1.5891,-1.5891,-1.5891,-1.5891,-1.5891,-1.5891,-1.5891,-2.0566,-2.0566,-2.0566,-2.0566,-2.0566,0.0,-2.0566,-2.0566,-2.0566,0.0,-2.0566,-2.0566,-2.0566,-2.0566,-2.0566,-2.0566,-2.0566,-2.0566,-2.0566,-2.0566,-2.0566,-2.0566,-2.0566,0.0,-2.0566,-2.0566,-2.0566,-2.0566,-2.0566,-2.0566,-2.0566,-2.042,-2.0264,-2.0264,-1.9942,-1.9627,-1.9301,-1.8993,-1.8603,-1.7959,-1.7302,-1.6648,-1.6004,-1.5567,-1.4977,-1.4398,-1.4398,-1.4243,-1.4135,-1.4723,-1.5117,-1.5384,-1.5705,-1.5832,-1.5832,-1.5832,-1.5832,-1.5832,-1.5832,-1.5832,-1.5832,-1.5832,-1.5832,-1.5832,-1.5832,-1.5832,-1.5832,-1.5832,-1.6046,-1.6339,-1.6627,-1.6927,-1.7221,-1.7515,-1.7582,-1.7582,-1.7582,-1.7582,-1.7582,-1.7582,-1.7582,-1.7582,-1.7582,-1.7582,-1.7582,-1.7582,-1.7582,-1.7582,-1.7582,-1.7582,-1.7371,-1.673,-1.673,-1.6518,-1.5998,-1.5891,-1.5891,-1.5891,-1.5891,-1.5891,-1.5891,-1.5891,-1.5891,-1.5891,-1.5891,-1.5891,-1.5891,-1.5891,-1.5891,-1.5891,-1.5891,-1.5891,-2.0566,-2.0566,-2.0566,-2.0566,-2.0566,0.0,-2.0566,-2.0566,-2.0566,0.0,-2.0566,-2.0566,-2.0566,-2.0566,-2.0566,-2.0566,-2.0566,-2.0566,-2.0566,-2.0566,-2.0566,-2.0566,-2.0566,0.0,-2.0566,-2.0566,-2.0566,-2.0566,-2.0566,-2.0566,-2.0566,-2.042,-2.0186,-1.9942,-1.9618,-1.9301,-1.9073,-1.8514,-1.7959,-1.7473,-1.6886,-1.6229,-1.5484,-1.5068,-1.465,-1.4398,-1.4243,-1.4173,-1.4135,-1.4723,-1.4997,-1.5104,-1.5625,-1.5832,-1.5832,-1.5832,-1.5832,-1.5832,-1.5832,-1.5832,-1.5832,-1.5832,-1.5832,-1.5832,-1.5832,-1.5832,-1.5832,-1.5832,-1.6046,-1.6339,-1.6627,-1.6927,-1.7221,-1.7515,-1.7582,-1.7582,-1.7582,-1.7582,-1.7582,-1.7582,-1.7582,-1.7582,-1.7582,-1.7582,-1.7582,-1.7582,-1.7582,-1.7582,-1.7582,-1.7582,-1.7371,-1.673,-1.673,-1.6518,-1.5998,-1.5891,-1.5891,-1.5891,-1.5891,-1.5891,-1.5891,-1.5891,-1.5891,-1.5891,-1.5891,-1.5891,-1.5891,-1.5891,-1.5891,-1.5891,-1.5891,-1.5891,-2.0566,-2.0566,-2.0566,-2.0566,-2.0566,0.0,0.0,-2.0566,-2.0566,-2.0566,-2.0566,-2.0566,-2.0566,-2.0566,-2.0566,-2.0566,-2.0566,-2.0566,-2.0566,-2.0566,-2.0566,-2.0566,-2.0566,0.0,-2.0566,-2.0566,-2.0566,-2.0566,-2.0566,-2.0566,-2.0498,-2.0264,-1.9942,-1.9618,-1.9311,-1.8913,-1.8523,-1.7959,-1.7473,-1.7066,-1.6394,-1.5733,-1.5242,-1.4901,-1.4573,-1.4243,-1.4166,-1.4088,-1.4135,-1.4723,-1.4963,-1.5023,-1.5605,-1.5832,-1.5832,-1.5832,-1.5832,-1.5832,-1.5832,-1.5832,-1.5832,-1.5832,-1.5832,-1.5832,-1.5832,-1.5832,-1.5832,-1.5832,-1.6146,-1.652,-1.6667,-1.7034,-1.7402,-1.7549,-1.7582,-1.7582,-1.7582,-1.7582,-1.7582,-1.7582,-1.7582,-1.7582,-1.7582,-1.7582,-1.7582,-1.7582,-1.7582,-1.7582,-1.7582,-1.7582,-1.7371,-1.673,-1.673,-1.6518,-1.5998,-1.5891,-1.5891,-1.5891,-1.5891,-1.5891,-1.5891,-1.5891,-1.5891,-1.5891,-1.5891,-1.5891,-1.5891,-1.5891,-1.5891,-1.5891,-1.5891,-1.5891,-2.0566,-2.0566,-2.0566,-2.0566,-2.0566,-2.0566,0.0,0.0,0.0,-2.0566,0.0,-2.0566,-2.0566,0.0,0.0,0.0,0.0,0.0,0.0,-2.0566,0.0,-2.0566,-2.0566,0.0,-2.0566,-2.0566,-2.0566,-2.0566,-2.0566,-2.0498,-2.0342,-2.0029,-1.9706,-1.9301,-1.9082,-1.8603,-1.804,-1.7554,-1.7147,-1.6648,-1.5982,-1.5401,-1.4999,-1.4741,-1.4405,-1.4088,-1.4088,-1.4088,-1.4128,-1.4663,-1.491,-1.5023,-1.5605,-1.5832,-1.5832,-1.5832,-1.5832,-1.5832,-1.5832,-1.5832,-1.5832,-1.5832,-1.5832,-1.5832,-1.5832,-1.5832,-1.5832,-1.5832,-1.6253,-1.6707,-1.6707,-1.7141,-1.7582,-1.7582,-1.7582,-1.7582,-1.7582,-1.7582,-1.7582,-1.7582,-1.7582,-1.7582,-1.7582,-1.7582,-1.7582,-1.7582,-1.7582,-1.7582,-1.7582,-1.7582,-1.7371,-1.673,-1.673,-1.6518,-1.5998,-1.5891,-1.5891,-1.5891,-1.5891,-1.5891,-1.5891,-1.5891,-1.5891,-1.5891,-1.5891,-1.5891,-1.5891,-1.5891,-1.5891,-1.5891,-1.5891,-1.5891,-2.0566,-2.0566,-2.0566,-2.0566,-2.0566,-2.0566,-2.0566,0.0,-2.0566,-2.0566,0.0,-2.0566,-2.0566,0.0,0.0,0.0,0.0,0.0,-2.0566,-2.0566,-2.0566,-2.0566,-2.0566,-2.0566,0.0,-2.0566,-2.0566,-2.0566,-2.0411,-2.0342,-2.0264,-1.9872,-1.9548,-1.9301,-1.8922,-1.8531,-1.804,-1.7383,-1.6894,-1.6394,-1.5726,-1.5228,-1.4734,-1.4566,-1.4321,-1.4088,-1.4088,-1.4088,-1.4115,-1.4436,-1.473,-1.5023,-1.5605,-1.5832,-1.5832,-1.5832,-1.5832,-1.5832,-1.5832,-1.5832,-1.5832,-1.5832,-1.5832,-1.5832,-1.5832,-1.5832,-1.5832,-1.5832,-1.6253,-1.6707,-1.6707,-1.7141,-1.7582,-1.7582,-1.7582,-1.7582,-1.7582,-1.7582,-1.7582,-1.7582,-1.7582,-1.7582,-1.7582,-1.7582,-1.7582,-1.7582,-1.7582,-1.7582,-1.7582,-1.7582,-1.7371,-1.673,-1.673,-1.6518,-1.5998,-1.5891,-1.5891,-1.5891,-1.5891,-1.5891,-1.5891,-1.5891,-1.5891,-1.5891,-1.5891,-1.5891,-1.5891,-1.5891,-1.5891,-1.5891,-1.5891,-1.5891,-2.0566,-2.0566,-2.0566,0.0,0.0,0.0,-2.0566,0.0,-2.0566,0.0,0.0,0.0,0.0,0.0,0.0,0.0,-2.0566,0.0,0.0,0.0,-2.0566,0.0,0.0,0.0,0.0,0.0,0.0,0.0,-2.0177,-2.0029,-1.9872,-1.9636,-1.9311,-1.8922,-1.8523,-1.8121,-1.7635,-1.6968,-1.6566,-1.6245,-1.5575,-1.5075,-1.465,-1.4482,-1.4321,-1.4088,-1.4088,-1.4088,-1.4108,-1.4402,-1.4696,-1.5003,-1.5418,-1.5678,-1.5832,-1.5832,-1.5832,-1.5832,-1.5832,-1.5832,-1.5832,-1.5832,-1.5832,-1.5832,-1.5832,-1.5832,-1.5832,-1.5832,-1.6132,-1.6493,-1.666,-1.7014,-1.7375,-1.7542,-1.7582,-1.7582,-1.7582,-1.7582,-1.7582,-1.7582,-1.7582,-1.7582,-1.7582,-1.7582,-1.7582,-1.7582,-1.7582,-1.7582,-1.7582,-1.7483,-1.7166,-1.673,-1.6524,-1.6318,-1.5891,-1.5891,-1.5891,-1.5891,-1.5891,-1.5891,-1.5891,-1.5891,-1.5891,-1.5891,-1.5891,-1.5891,-1.5891,-1.5891,-1.5891,-1.5891,-1.5891,-1.5891,-2.0566,0.0,0.0,0.0,0.0,0.0,0.0,0.0,0.0,0.0,0.0,0.0,0.0,0.0,-2.0489,-2.0489,0.0,-2.0411,0.0,-2.0411,0.0,0.0,0.0,0.0,0.0,0.0,0.0,-2.0186,-1.9942,-1.9706,-1.9557,-1.9231,-1.8913,-1.8531,-1.8201,-1.7716,-1.7229,-1.664,-1.6237,-1.5997,-1.5333,-1.4908,-1.465,-1.4405,-1.4243,-1.4088,-1.4088,-1.4088,-1.4108,-1.4315,-1.4623,-1.4983,-1.5197,-1.5504,-1.5832,-1.5832,-1.5832,-1.5832,-1.5832,-1.5832,-1.5832,-1.5832,-1.5832,-1.5832,-1.5832,-1.5832,-1.5832,-1.5832,-1.6046,-1.6319,-1.6533,-1.6867,-1.7201,-1.7415,-1.7522,-1.7582,-1.7582,-1.7582,-1.7582,-1.7582,-1.7582,-1.7582,-1.7582,-1.7582,-1.7582,-1.7582,-1.7582,-1.7582,-1.7483,-1.7279,-1.7067,-1.663,-1.6424,-1.6217,-1.5891,-1.5891,-1.5891,-1.5891,-1.5891,-1.5891,-1.5891,-1.5891,-1.5891,-1.5891,-1.5891,-1.5891,-1.5891,-1.5891,-1.5891,-1.5891,-1.5891,-1.5891,0.0,0.0,0.0,-2.0566,0.0,0.0,0.0,0.0,-2.0566,0.0,0.0,0.0,-2.0566,-2.042,-2.0342,-2.0342,-2.0098,0.0,0.0,-1.9942,-2.002,-2.0264,0.0,0.0,0.0,-1.9942,-1.9942,-1.9942,-1.9539,-1.9301,-1.9301,-1.8922,-1.8531,-1.804,-1.804,-1.7627,-1.6738,-1.6476,-1.6147,-1.5733,-1.5068,-1.4734,-1.4657,-1.4328,-1.4088,-1.4088,-1.4088,-1.4088,-1.4088,-1.4095,-1.4442,-1.4963,-1.4977,-1.5331,-1.5832,-1.5832,-1.5832,-1.5832,-1.5832,-1.5832,-1.5832,-1.5832,-1.5832,-1.5832,-1.5832,-1.5832,-1.5832,-1.5832,-1.6046,-1.6279,-1.6286,-1.6714,-1.7154,-1.7161,-1.7375,-1.7582,-1.7582,-1.7582,-1.7582,-1.7582,-1.7582,-1.7582,-1.7582,-1.7582,-1.7582,-1.7582,-1.7582,-1.7483,-1.7285,-1.7179,-1.6967,-1.643,-1.6324,-1.6217,-1.5891,-1.5891,-1.5891,-1.5891,-1.5891,-1.5891,-1.5891,-1.5891,-1.5891,-1.5891,-1.5891,-1.5891,-1.5891,-1.5891,-1.5891,-1.5891,-1.5891,-1.5891,0.0,0.0,-2.0566,-2.0566,0.0,0.0,0.0,0.0,0.0,0.0,0.0,0.0,0.0,-2.0177,-2.002,-2.002,-1.9942,-1.9863,0.0,-1.9478,-1.9311,-1.9399,-1.9706,-1.9863,0.0,0.0,0.0,-1.9311,-1.9082,-1.8922,-1.8922,-1.8442,-1.8121,-1.804,-1.7627,-1.7221,-1.673,-1.6409,-1.5989,-1.5477,-1.4985,-1.465,-1.4482,-1.425,-1.4088,-1.4088,-1.4088,-1.4088,-1.4088,-1.4088,-1.4315,-1.4689,-1.4883,-1.5204,-1.5565,-1.5758,-1.5832,-1.5832,-1.5832,-1.5832,-1.5832,-1.5832,-1.5832,-1.5832,-1.5832,-1.5832,-1.5832,-1.5832,-1.5905,-1.6025,-1.6219,-1.642,-1.662,-1.6814,-1.6927,-1.7054,-1.7255,-1.7295,-1.7355,-1.7549,-1.7582,-1.7582,-1.7582,-1.7582,-1.7582,-1.7582,-1.7582,-1.7483,-1.7279,-1.6955,-1.6743,-1.6324,-1.6111,-1.5998,-1.5891,-1.5891,-1.5891,-1.5891,-1.5891,-1.5891,-1.5891,-1.5891,-1.5891,-1.5891,-1.5891,-1.5891,-1.5891,-1.5891,-1.5891,-1.5891,-1.5891,-1.5891,-2.0906,-2.0819,0.0,-2.0644,-2.0566,0.0,-2.0566,0.0,-2.0566,0.0,0.0,0.0,0.0,-2.0029,-1.9784,-1.9706,-1.9627,-1.9469,0.0,-1.9002,-1.8763,-1.8763,-1.9152,-1.9399,-1.9329,-1.9161,-1.8993,-1.8843,-1.8603,-1.8451,0.0,0.0,-1.7716,-1.7708,-1.7221,-1.6812,-1.6492,-1.6162,-1.5741,-1.5318,-1.4901,-1.4566,-1.4391,-1.4166,-1.4088,-1.4088,-1.4088,-1.4088,-1.4088,-1.4088,-1.4255,-1.4549,-1.485,-1.5137,-1.5431,-1.5718,-1.5832,-1.5832,-1.5832,-1.5832,-1.5832,-1.5832,-1.5832,-1.5832,-1.5832,-1.5832,-1.5832,-1.5832,-1.5832,-1.5872,-1.6066,-1.6192,-1.6319,-1.6506,-1.6627,-1.676,-1.6947,-1.6987,-1.7081,-1.7375,-1.7428,-1.7462,-1.7562,-1.7582,-1.7582,-1.7582,-1.7483,-1.7378,-1.706,-1.6736,-1.6418,-1.6211,-1.5998,-1.5891,-1.5891,-1.5891,-1.5891,-1.5891,-1.5891,-1.5891,-1.5891,-1.5891,-1.5891,-1.5891,-1.5891,-1.5891,-1.5891,-1.5891,-1.5891,-1.5891,-1.5891,-1.5891]},{"header":{"parameterUnit":"m.s-1","parameterCategory":1,"la1":30.6,"la2":29.2853,"lo1":-89.7004,"lo2":-87.6739,"dy":0.0162,"dx":0.0183,"nx":112,"ny":82,"refTime":"2023-07-04T12:00:00:Z","depth":0,"parameterNumber":3,"parameterNumberName":"V-component_of_WINDS"},"data":[0.0,0.0,0.0,0.0,0.0,0.0,0.0,0.0,0.0,0.0,0.0,0.0,0.0,0.0,0.0,0.0,0.0,0.0,0.0,0.0,0.0,0.0,0.0,0.0,0.0,0.0,0.0,0.0,0.0,0.0,0.0,0.0,0.0,0.0,0.0,0.0,0.0,0.0,0.0,0.0,0.0,0.0,0.0,0.0,0.0,0.0,0.0,0.0,0.0,0.0,0.0,0.0,0.0,0.0,0.0,0.0,0.0,0.0,0.0,0.0,0.0,0.0,0.0,0.0,0.0,0.0,0.0,0.0,0.0,0.0,0.0,0.0,0.0,0.0,0.0,0.0,0.0,0.0,0.0,0.0,0.0,0.0,0.0,0.0,0.0,0.0,0.0,0.0,0.0,0.0,-4.2287,-4.2287,-4.2287,-4.2287,-4.2287,-4.2287,-4.2287,-4.2287,0.0,0.0,0.0,0.0,0.0,0.0,0.0,0.0,0.0,0.0,0.0,0.0,0.0,0.0,0.0,0.0,0.0,0.0,0.0,0.0,0.0,0.0,0.0,0.0,0.0,0.0,0.0,0.0,0.0,0.0,0.0,0.0,0.0,0.0,0.0,0.0,0.0,0.0,0.0,0.0,0.0,0.0,0.0,0.0,0.0,0.0,0.0,0.0,0.0,0.0,0.0,0.0,0.0,0.0,0.0,0.0,0.0,0.0,0.0,0.0,0.0,0.0,0.0,0.0,0.0,0.0,0.0,0.0,0.0,0.0,0.0,0.0,0.0,0.0,0.0,0.0,0.0,0.0,0.0,0.0,0.0,0.0,0.0,0.0,0.0,0.0,0.0,0.0,0.0,0.0,0.0,0.0,0.0,0.0,0.0,0.0,0.0,0.0,0.0,0.0,0.0,0.0,0.0,0.0,-4.2287,-4.2287,-4.2287,-4.2287,-4.2287,-4.2287,-4.2287,-4.2287,0.0,0.0,0.0,0.0,0.0,0.0,0.0,0.0,0.0,0.0,0.0,0.0,0.0,0.0,0.0,0.0,0.0,0.0,0.0,0.0,0.0,0.0,0.0,0.0,0.0,0.0,0.0,0.0,0.0,0.0,0.0,0.0,0.0,0.0,0.0,0.0,0.0,0.0,0.0,0.0,0.0,0.0,0.0,0.0,0.0,0.0,0.0,0.0,0.0,0.0,0.0,0.0,0.0,0.0,0.0,0.0,0.0,0.0,0.0,0.0,0.0,0.0,0.0,0.0,0.0,0.0,0.0,0.0,0.0,0.0,0.0,0.0,0.0,0.0,0.0,0.0,0.0,0.0,0.0,0.0,0.0,0.0,0.0,0.0,0.0,0.0,0.0,0.0,0.0,0.0,0.0,0.0,0.0,0.0,0.0,0.0,0.0,0.0,0.0,0.0,0.0,0.0,0.0,-4.353,-4.3781,-4.3781,-4.3781,-4.3781,-4.3781,-4.3781,-4.3781,-4.3781,-4.3904,0.0,0.0,0.0,0.0,0.0,0.0,0.0,0.0,0.0,0.0,0.0,0.0,0.0,0.0,0.0,0.0,0.0,0.0,0.0,0.0,0.0,0.0,0.0,0.0,0.0,0.0,0.0,0.0,0.0,0.0,0.0,0.0,0.0,0.0,0.0,0.0,0.0,0.0,0.0,0.0,0.0,0.0,0.0,0.0,0.0,0.0,0.0,0.0,0.0,0.0,0.0,0.0,0.0,0.0,0.0,0.0,0.0,0.0,0.0,0.0,0.0,0.0,0.0,0.0,0.0,0.0,0.0,0.0,0.0,0.0,0.0,0.0,0.0,0.0,0.0,0.0,0.0,0.0,0.0,0.0,0.0,0.0,0.0,0.0,0.0,0.0,0.0,0.0,0.0,0.0,0.0,0.0,0.0,0.0,0.0,0.0,0.0,0.0,0.0,0.0,0.0,0.0,-4.4664,-4.5042,-4.5,-4.5,-4.5,-4.5,-4.5,-4.5,-4.5,-4.5142,0.0,0.0,0.0,0.0,0.0,0.0,0.0,0.0,0.0,0.0,0.0,0.0,0.0,0.0,0.0,0.0,0.0,0.0,0.0,0.0,0.0,0.0,0.0,0.0,0.0,0.0,0.0,0.0,0.0,0.0,0.0,0.0,0.0,0.0,0.0,0.0,0.0,0.0,0.0,0.0,0.0,0.0,0.0,0.0,0.0,0.0,0.0,0.0,0.0,0.0,0.0,0.0,0.0,0.0,0.0,0.0,0.0,0.0,0.0,0.0,0.0,0.0,0.0,0.0,0.0,0.0,0.0,0.0,0.0,0.0,0.0,0.0,0.0,0.0,0.0,0.0,0.0,0.0,0.0,0.0,0.0,0.0,0.0,0.0,0.0,0.0,0.0,0.0,0.0,0.0,0.0,0.0,0.0,0.0,0.0,0.0,0.0,0.0,0.0,0.0,0.0,0.0,-4.5065,-4.5142,-4.5,-4.5,-4.5,-4.5,-4.5,-4.5,-4.5,-4.5142,0.0,0.0,0.0,0.0,0.0,0.0,0.0,0.0,0.0,0.0,0.0,0.0,0.0,0.0,0.0,0.0,0.0,0.0,0.0,0.0,0.0,0.0,0.0,0.0,0.0,0.0,0.0,0.0,0.0,0.0,0.0,0.0,0.0,0.0,0.0,0.0,0.0,0.0,0.0,0.0,0.0,0.0,0.0,0.0,0.0,0.0,0.0,0.0,0.0,0.0,0.0,0.0,0.0,0.0,0.0,0.0,0.0,0.0,0.0,0.0,0.0,0.0,0.0,0.0,0.0,0.0,0.0,0.0,0.0,0.0,0.0,0.0,0.0,0.0,0.0,0.0,0.0,0.0,0.0,0.0,0.0,0.0,0.0,0.0,0.0,0.0,0.0,0.0,0.0,0.0,0.0,0.0,0.0,0.0,0.0,0.0,0.0,0.0,0.0,0.0,0.0,0.0,-4.6585,-4.6916,-4.6858,-4.6858,-4.6858,-4.6858,-4.6858,-4.6858,-4.6858,0.0,0.0,0.0,0.0,0.0,0.0,0.0,0.0,0.0,0.0,0.0,0.0,0.0,0.0,0.0,0.0,0.0,0.0,0.0,0.0,0.0,0.0,0.0,0.0,0.0,0.0,0.0,0.0,0.0,0.0,0.0,0.0,0.0,0.0,0.0,0.0,0.0,0.0,0.0,0.0,0.0,0.0,0.0,0.0,0.0,0.0,0.0,0.0,0.0,0.0,0.0,0.0,0.0,0.0,0.0,0.0,0.0,0.0,0.0,0.0,0.0,0.0,0.0,0.0,0.0,0.0,0.0,0.0,0.0,0.0,0.0,0.0,0.0,0.0,0.0,0.0,0.0,0.0,0.0,0.0,0.0,0.0,0.0,0.0,0.0,0.0,0.0,0.0,0.0,0.0,0.0,0.0,0.0,0.0,0.0,0.0,0.0,0.0,0.0,0.0,0.0,0.0,-4.7088,-4.7624,-4.7992,-4.7992,-4.7992,-4.7992,-4.7992,-4.7992,-4.7992,-4.7992,0.0,0.0,0.0,0.0,0.0,0.0,0.0,0.0,0.0,0.0,0.0,0.0,0.0,0.0,0.0,0.0,0.0,0.0,0.0,0.0,0.0,0.0,0.0,0.0,0.0,0.0,0.0,0.0,0.0,0.0,0.0,0.0,0.0,0.0,0.0,0.0,0.0,0.0,0.0,0.0,0.0,0.0,0.0,0.0,0.0,0.0,0.0,0.0,0.0,0.0,0.0,0.0,0.0,0.0,0.0,0.0,0.0,0.0,0.0,0.0,0.0,0.0,0.0,0.0,0.0,0.0,0.0,0.0,0.0,0.0,0.0,0.0,0.0,0.0,0.0,0.0,0.0,0.0,0.0,0.0,0.0,0.0,0.0,0.0,0.0,0.0,0.0,0.0,0.0,0.0,0.0,0.0,0.0,0.0,0.0,0.0,0.0,0.0,0.0,0.0,0.0,0.0,-4.7992,-4.7992,-4.7992,-4.7992,-4.7992,-4.7992,-4.7992,-4.7992,-4.7992,0.0,0.0,0.0,0.0,0.0,0.0,0.0,0.0,0.0,0.0,0.0,0.0,0.0,0.0,0.0,0.0,0.0,0.0,0.0,0.0,0.0,0.0,0.0,0.0,0.0,0.0,0.0,0.0,0.0,0.0,0.0,0.0,0.0,0.0,0.0,0.0,0.0,0.0,0.0,0.0,0.0,0.0,0.0,0.0,0.0,0.0,0.0,0.0,0.0,0.0,0.0,0.0,0.0,0.0,0.0,0.0,0.0,0.0,0.0,0.0,0.0,0.0,0.0,0.0,0.0,0.0,0.0,0.0,0.0,0.0,0.0,0.0,0.0,0.0,0.0,0.0,0.0,0.0,0.0,0.0,0.0,0.0,0.0,0.0,0.0,0.0,0.0,0.0,0.0,0.0,0.0,0.0,0.0,0.0,0.0,0.0,0.0,0.0,0.0,0.0,0.0,0.0,0.0,-4.819,-4.8286,-4.8363,-4.8402,-4.8439,-4.8439,-4.8439,-4.8439,-4.842,-4.8381,0.0,0.0,0.0,0.0,0.0,0.0,0.0,0.0,0.0,0.0,0.0,0.0,0.0,0.0,0.0,0.0,0.0,0.0,0.0,0.0,0.0,0.0,0.0,0.0,0.0,0.0,0.0,0.0,0.0,0.0,0.0,0.0,0.0,0.0,0.0,0.0,0.0,0.0,0.0,0.0,0.0,0.0,0.0,0.0,0.0,0.0,0.0,0.0,0.0,0.0,0.0,0.0,0.0,0.0,0.0,0.0,0.0,0.0,0.0,0.0,0.0,0.0,0.0,0.0,0.0,0.0,0.0,0.0,0.0,0.0,0.0,0.0,0.0,0.0,0.0,0.0,0.0,0.0,0.0,0.0,0.0,0.0,0.0,0.0,0.0,0.0,0.0,0.0,0.0,0.0,0.0,0.0,0.0,0.0,0.0,0.0,0.0,0.0,0.0,0.0,0.0,0.0,-4.842,-4.8513,-4.855,-4.8587,-4.8587,-4.8587,-4.8587,-4.8587,-4.8569,-4.855,0.0,0.0,0.0,0.0,0.0,0.0,0.0,0.0,0.0,0.0,0.0,0.0,0.0,0.0,0.0,0.0,0.0,0.0,0.0,0.0,0.0,0.0,0.0,0.0,0.0,0.0,0.0,0.0,0.0,0.0,0.0,0.0,0.0,0.0,0.0,0.0,0.0,0.0,0.0,0.0,0.0,0.0,0.0,0.0,0.0,0.0,0.0,0.0,0.0,0.0,0.0,0.0,0.0,0.0,0.0,0.0,0.0,0.0,0.0,0.0,0.0,0.0,0.0,0.0,0.0,0.0,0.0,0.0,0.0,0.0,0.0,0.0,0.0,0.0,0.0,0.0,0.0,0.0,0.0,0.0,0.0,0.0,0.0,0.0,0.0,0.0,0.0,0.0,0.0,0.0,0.0,0.0,0.0,0.0,0.0,0.0,0.0,0.0,0.0,0.0,0.0,0.0,-4.8495,-4.8457,-4.8402,-4.8402,-4.8402,-4.8402,-4.8402,-4.8402,-4.8402,-4.8402,0.0,0.0,0.0,0.0,0.0,0.0,0.0,0.0,0.0,0.0,0.0,0.0,0.0,0.0,0.0,0.0,0.0,0.0,0.0,0.0,0.0,0.0,0.0,0.0,0.0,0.0,0.0,0.0,0.0,0.0,0.0,0.0,0.0,0.0,0.0,0.0,0.0,0.0,0.0,0.0,0.0,0.0,0.0,0.0,0.0,0.0,0.0,0.0,0.0,0.0,0.0,0.0,0.0,0.0,0.0,0.0,0.0,0.0,0.0,0.0,-4.2589,0.0,0.0,0.0,0.0,0.0,0.0,0.0,0.0,0.0,0.0,0.0,0.0,0.0,0.0,0.0,0.0,0.0,0.0,0.0,0.0,0.0,0.0,0.0,0.0,0.0,0.0,0.0,0.0,0.0,0.0,0.0,0.0,0.0,0.0,0.0,0.0,0.0,0.0,0.0,0.0,0.0,-4.7807,-4.7196,-4.6842,-4.6928,-4.6928,-4.6928,-4.6928,-4.6928,-4.6895,-4.6789,-4.6789,0.0,0.0,0.0,0.0,0.0,0.0,0.0,0.0,0.0,0.0,0.0,0.0,0.0,0.0,0.0,0.0,0.0,0.0,0.0,0.0,0.0,0.0,0.0,0.0,0.0,0.0,0.0,0.0,0.0,0.0,0.0,0.0,0.0,0.0,0.0,0.0,0.0,0.0,0.0,0.0,0.0,0.0,0.0,0.0,0.0,0.0,0.0,0.0,0.0,0.0,0.0,0.0,0.0,0.0,0.0,0.0,0.0,0.0,0.0,0.0,-4.2865,0.0,0.0,0.0,0.0,0.0,0.0,0.0,0.0,0.0,0.0,0.0,0.0,0.0,0.0,0.0,0.0,0.0,0.0,0.0,0.0,0.0,0.0,0.0,0.0,0.0,0.0,0.0,0.0,0.0,0.0,0.0,0.0,0.0,0.0,0.0,0.0,0.0,0.0,0.0,0.0,-4.7058,-4.6687,-4.6442,-4.6494,-4.6494,-4.6494,-4.6494,-4.6494,-4.6461,-4.6409,-4.6409,0.0,0.0,0.0,0.0,0.0,0.0,0.0,0.0,0.0,0.0,0.0,0.0,0.0,0.0,0.0,0.0,0.0,0.0,0.0,0.0,0.0,0.0,0.0,0.0,0.0,0.0,0.0,0.0,0.0,0.0,0.0,0.0,0.0,0.0,0.0,0.0,0.0,0.0,0.0,0.0,0.0,0.0,0.0,0.0,0.0,0.0,0.0,0.0,0.0,0.0,0.0,0.0,0.0,-4.249,-4.2468,-4.2422,-4.2422,-4.2364,-4.2264,-4.2553,-4.3104,-4.3732,-4.3632,0.0,0.0,0.0,0.0,0.0,0.0,0.0,0.0,0.0,0.0,0.0,0.0,0.0,0.0,0.0,0.0,0.0,0.0,0.0,0.0,0.0,0.0,0.0,0.0,-4.834,-4.8601,0.0,0.0,0.0,0.0,0.0,0.0,0.0,0.0,0.0,0.0,0.0,0.0,-4.629,-4.616,-4.6067,-4.6067,-4.6067,-4.6067,-4.6067,-4.6067,-4.6067,-4.6067,-4.6067,-4.6067,0.0,0.0,0.0,0.0,0.0,0.0,0.0,0.0,0.0,0.0,0.0,0.0,0.0,0.0,0.0,0.0,0.0,0.0,0.0,0.0,0.0,0.0,0.0,0.0,0.0,0.0,0.0,0.0,0.0,0.0,0.0,0.0,-3.8554,-3.8478,0.0,0.0,0.0,0.0,0.0,0.0,0.0,0.0,0.0,0.0,0.0,0.0,0.0,-4.0877,-4.0994,-4.1647,-4.2015,-4.2072,-4.2072,-4.2072,-4.209,-4.209,-4.2048,-4.2083,-4.2746,0.0,-4.3543,-4.35,0.0,0.0,0.0,0.0,0.0,0.0,0.0,0.0,0.0,0.0,0.0,0.0,0.0,0.0,0.0,0.0,0.0,0.0,0.0,0.0,0.0,0.0,-4.8742,-4.8742,-4.88,-4.8837,0.0,-4.8547,-4.8458,-4.8569,-4.8033,0.0,0.0,0.0,0.0,0.0,0.0,0.0,-4.5454,-4.4804,-4.4339,-4.4339,-4.4339,-4.4339,-4.4339,-4.4339,-4.4339,-4.4339,-4.4339,-4.4371,-4.4519,-4.519,0.0,0.0,0.0,0.0,0.0,0.0,0.0,0.0,0.0,0.0,0.0,0.0,0.0,0.0,0.0,0.0,0.0,0.0,0.0,0.0,0.0,0.0,0.0,0.0,0.0,0.0,0.0,0.0,0.0,-3.8415,-3.8252,-3.8138,-3.8036,-3.7915,0.0,0.0,0.0,0.0,0.0,0.0,0.0,0.0,0.0,-3.9842,-4.0534,-4.112,-4.1498,-4.1895,-4.203,-4.2005,-4.2005,-4.2005,-4.2005,-4.2005,-4.2005,-4.2041,-4.2784,-4.3412,-4.3979,-4.4387,-4.5222,-4.6262,0.0,0.0,0.0,0.0,-4.7178,-4.7294,-4.7529,-4.7681,0.0,-4.8006,0.0,0.0,0.0,0.0,0.0,0.0,0.0,0.0,0.0,0.0,-4.8909,-4.8909,-4.8909,-4.8909,-4.8909,-4.882,-4.8655,0.0,-4.7821,-4.7302,-4.6446,0.0,0.0,0.0,0.0,-4.4562,-4.4562,-4.4246,-4.4005,-4.4005,-4.4005,-4.4005,-4.4005,-4.4005,-4.4005,-4.4005,-4.4055,-4.4135,-4.4184,-4.461,-4.4867,0.0,0.0,0.0,0.0,0.0,0.0,0.0,0.0,0.0,0.0,0.0,0.0,0.0,0.0,0.0,0.0,0.0,0.0,0.0,0.0,0.0,0.0,0.0,0.0,0.0,0.0,0.0,0.0,-3.8086,-3.7915,-3.7775,-3.7649,-3.7577,0.0,0.0,0.0,0.0,0.0,0.0,-3.8214,-3.8619,-3.9376,-4.0581,-4.081,-4.1198,-4.1797,-4.1815,-4.1815,-4.1815,-4.1815,-4.1815,-4.1815,-4.1815,-4.1815,-4.185,-4.2802,-4.356,-4.4177,-4.5057,-4.5882,-4.659,-4.659,-4.6637,-4.6731,-4.6842,-4.698,-4.7178,-4.7294,-4.7468,-4.7657,-4.7819,-4.8006,-4.8187,-4.8187,0.0,0.0,0.0,0.0,-4.8715,-4.8787,-4.8857,-4.8874,-4.8909,-4.8909,-4.8909,-4.8909,-4.8909,-4.8723,0.0,-4.785,-4.7311,-4.6122,0.0,0.0,0.0,0.0,-4.4636,-4.4636,-4.4636,-4.4636,-4.4636,-4.4636,-4.4636,-4.4636,-4.4636,-4.4636,-4.4668,-4.4768,-4.4829,-4.492,-4.499,-4.5021,-4.4944,0.0,0.0,0.0,0.0,0.0,0.0,0.0,0.0,0.0,0.0,0.0,0.0,0.0,0.0,0.0,0.0,0.0,0.0,0.0,0.0,0.0,0.0,0.0,0.0,0.0,0.0,0.0,0.0,0.0,-3.7429,-3.7354,0.0,0.0,0.0,0.0,-3.7009,-3.7609,-3.7923,-3.7857,-3.9208,-4.0043,-4.0113,-4.0837,-4.122,-4.1255,-4.1255,-4.1255,-4.1255,-4.1255,-4.1255,-4.1255,-4.1255,-4.1255,-4.1324,-4.2857,-4.3471,-4.3624,-4.49,-4.5882,-4.659,-4.659,-4.659,-4.659,-4.6637,-4.6795,-4.6998,-4.7025,-4.7249,-4.7511,-4.7675,-4.7907,-4.8187,-4.8187,-4.8247,0.0,0.0,-4.8513,-4.855,-4.8751,-4.8787,-4.8822,-4.8874,-4.8909,-4.8909,-4.8909,-4.8909,-4.889,0.0,-4.8221,-4.7664,-4.759,0.0,-4.642,-4.6382,-4.6364,-4.6364,-4.6364,-4.6364,-4.6364,-4.6364,-4.6364,-4.6364,-4.6364,-4.6364,-4.6397,-4.6475,-4.6475,-4.6601,-4.6861,-4.6861,-4.6629,-4.6121,-4.6127,0.0,0.0,0.0,0.0,0.0,0.0,0.0,0.0,0.0,0.0,0.0,0.0,0.0,0.0,0.0,0.0,0.0,0.0,0.0,0.0,0.0,0.0,0.0,0.0,0.0,0.0,0.0,0.0,-3.7164,-3.7066,0.0,-3.6926,-3.6869,-3.7038,-3.7487,-3.776,-3.8293,-3.9242,-3.9772,-4.0294,-4.0809,-4.107,-4.1209,-4.1209,-4.1209,-4.1209,-4.1209,-4.1209,-4.1209,-4.1226,-4.1748,-4.1975,-4.2062,-4.361,-4.4289,-4.4341,-4.5288,-4.586,-4.6204,-4.6319,-4.6398,-4.6495,-4.6495,-4.659,-4.6731,-4.6842,-4.7025,-4.7249,-4.7572,-4.7783,-4.7907,-4.8148,-4.8226,-4.8247,-4.8363,-4.8419,-4.8513,-4.8587,-4.8624,-4.8678,-4.8714,-4.8714,-4.8714,-4.8714,-4.8714,-4.8714,-4.8714,-4.8171,-4.7534,-4.7014,-4.668,-4.6494,-4.6494,-4.6494,-4.6494,-4.6494,-4.6494,-4.6494,-4.6494,-4.6494,-4.6494,-4.6494,-4.6494,-4.6527,-4.6605,-4.6682,-4.6806,-4.6974,-4.7174,-4.7159,-4.698,-4.7105,-4.7048,0.0,0.0,0.0,0.0,0.0,0.0,0.0,0.0,0.0,0.0,0.0,0.0,0.0,0.0,0.0,0.0,0.0,0.0,0.0,0.0,0.0,0.0,0.0,0.0,0.0,0.0,-3.7105,-3.6908,-3.6829,-3.6766,-3.6702,-3.6869,-3.7234,-3.7679,-3.8157,-3.8885,-3.9909,-4.0221,-4.0585,-4.1071,-4.1088,-4.1088,-4.1088,-4.1088,-4.1209,-4.1452,-4.1452,-4.1591,-4.1868,-4.2406,-4.2649,-4.2718,-4.4002,-4.4557,-4.4609,-4.5423,-4.577,-4.5871,-4.6023,-4.6122,-4.6204,-4.6204,-4.6301,-4.6495,-4.6684,-4.6842,-4.7025,-4.7356,-4.7572,-4.7741,-4.7947,-4.8108,-4.8226,-4.8247,-4.8324,-4.8457,-4.8513,-4.8513,-4.8569,-4.8587,-4.8587,-4.8587,-4.8587,-4.8587,-4.8587,-4.8587,-4.8288,-4.7856,-4.737,-4.7296,-4.7278,-4.7311,-4.7311,-4.7311,-4.7311,-4.7311,-4.7311,-4.7311,-4.7311,-4.7311,-4.7311,-4.7363,-4.7429,-4.7457,-4.7598,-4.7751,-4.7937,-4.8143,-4.8143,-4.7935,-4.7838,-4.7777,-4.7799,0.0,0.0,0.0,0.0,0.0,0.0,0.0,0.0,0.0,0.0,0.0,0.0,0.0,0.0,0.0,0.0,0.0,0.0,0.0,0.0,0.0,0.0,0.0,-3.697,-3.6987,-3.6908,-3.6702,-3.6702,-3.6702,-3.6737,-3.7238,-3.7629,-3.7681,-3.8915,-3.9715,-3.9733,-4.0474,-4.0888,-4.0888,-4.0888,-4.0888,-4.0888,-4.0905,-4.1267,-4.1992,-4.2009,-4.2423,-4.3214,-4.3249,-4.3249,-4.3301,-4.3992,-4.4302,-4.4423,-4.5269,-4.5563,-4.5632,-4.5736,-4.577,-4.577,-4.577,-4.5955,-4.6235,-4.6477,-4.6731,-4.698,-4.698,-4.7312,-4.7675,-4.7717,-4.7907,-4.8187,-4.8187,-4.8247,-4.8306,-4.8457,-4.8494,-4.8494,-4.8569,-4.8587,-4.8587,-4.8587,-4.8587,-4.8587,-4.8587,-4.8587,-4.8642,-4.8787,-4.8787,-4.8822,-4.8874,-4.8909,0.0,-4.8909,-4.8909,-4.8909,-4.8909,-4.8909,-4.8909,-4.8946,-4.9052,-4.9172,-4.9272,-4.9377,-4.9544,-4.9844,-4.989,-4.9625,-4.9063,-4.8337,-4.8005,-4.8065,0.0,0.0,0.0,0.0,0.0,0.0,0.0,0.0,0.0,0.0,0.0,0.0,0.0,0.0,0.0,0.0,0.0,0.0,0.0,0.0,0.0,0.0,-3.6806,-3.6869,-3.6748,-3.6626,-3.6544,-3.6461,-3.6627,-3.7197,-3.7439,-3.7966,-3.9036,-3.9457,-3.9939,-4.0526,-4.0767,-4.0888,-4.0888,-4.0888,-4.0888,-4.0888,-4.1405,-4.1785,-4.1992,-4.2578,-4.3007,-4.3249,-4.3767,-4.3975,-4.4009,-4.4785,-4.5113,-4.513,-4.5337,-4.5476,-4.5476,-4.5718,-4.577,-4.577,-4.577,-4.5821,-4.5972,-4.6253,-4.6332,-4.6477,-4.6888,-4.7133,-4.7356,-4.7633,-4.7866,-4.809,-4.8187,-4.8247,-4.8306,-4.8363,-4.8363,-4.8363,-4.8382,-4.8382,-4.8382,-4.8382,-4.8382,-4.8382,-4.8382,-4.8382,-4.8458,-4.8642,-4.8732,-4.8822,-4.8822,-4.8874,0.0,-4.8909,-4.8909,-4.8909,-4.8909,-4.8909,-4.915,-4.9726,-4.9905,-5.0269,-5.1035,-5.0654,-5.05,-5.0733,-5.0282,-5.0038,-5.0019,-4.986,-4.981,0.0,0.0,0.0,0.0,0.0,0.0,0.0,0.0,0.0,0.0,0.0,0.0,0.0,0.0,0.0,0.0,0.0,0.0,0.0,0.0,0.0,0.0,-3.6626,-3.6585,-3.6609,-3.6544,-3.6502,-3.6402,-3.6636,-3.6973,-3.7439,-3.8043,-3.8767,-3.9629,-4.0008,-4.0388,-4.0853,-4.0888,-4.0888,-4.0888,-4.0888,-4.1026,-4.1336,-4.1767,-4.2302,-4.2957,-4.3423,-4.3802,-4.413,-4.4561,-4.4751,-4.4785,-4.5234,-4.5423,-4.5423,-4.5423,-4.5423,0.0,0.0,0.0,0.0,0.0,-4.5736,-4.577,-4.6005,-4.6137,-4.6284,-4.6684,-4.6934,-4.7178,-4.7425,-4.7681,-4.7929,-4.805,-4.8169,-4.8286,-4.8306,-4.8306,-4.8306,-4.8306,-4.8306,-4.8306,-4.8306,-4.8306,-4.8306,-4.8306,-4.8306,0.0,-4.8439,-4.8587,-4.8679,-4.8697,-4.8804,-4.8839,-4.8839,-4.8874,-4.9039,-4.9373,-4.9429,-4.9763,-5.058,-5.0778,0.0,0.0,0.0,-5.1546,-5.1787,-5.1154,0.0,0.0,0.0,-5.0563,-5.0643,0.0,0.0,0.0,-4.8818,-4.8452,0.0,0.0,0.0,0.0,0.0,0.0,0.0,0.0,0.0,0.0,0.0,0.0,0.0,0.0,0.0,0.0,-3.6444,-3.6402,-3.6301,-3.636,-3.6402,-3.6301,-3.7008,-3.7508,-3.7594,-3.887,-3.9733,-3.9819,-4.0491,-4.0888,-4.0888,0.0,0.0,0.0,0.0,-4.1319,-4.1974,-4.2164,-4.2923,-4.4285,-4.4354,-4.4768,-4.5423,-4.5423,-4.5423,-4.5423,-4.5423,-4.5423,-4.5423,-4.5423,-4.5423,-4.5423,-4.5423,-4.5423,-4.5423,-4.5528,-4.5581,-4.5615,-4.5871,0.0,0.0,-4.6495,-4.6749,-4.7025,-4.7232,-4.7468,-4.7741,-4.7951,-4.809,-4.8226,-4.8267,-4.8306,-4.8306,-4.8306,-4.8306,-4.8306,-4.8306,-4.8306,-4.8306,-4.8306,-4.8306,-4.8306,-4.8306,-4.8401,-4.8532,-4.8569,-4.8697,-4.8787,-4.8787,-4.8932,-4.9317,-5.0042,0.0,0.0,-5.1472,-5.167,-5.1828,-5.2094,-5.2322,-5.2579,-5.2805,-5.2188,-5.1877,-5.1947,-5.116,-5.0797,-5.0837,-5.0741,-5.0702,-5.0664,-4.9913,-4.9125,0.0,0.0,0.0,0.0,0.0,0.0,0.0,0.0,0.0,0.0,0.0,0.0,0.0,0.0,0.0,-3.6105,-3.6105,-3.6105,-3.6062,-3.6062,-3.6148,-3.6301,-3.7008,-3.7715,-3.8318,-3.9181,-3.9957,-4.0612,-4.0802,-4.0888,-4.0888,-4.0888,-4.0888,-4.0888,-4.1457,-4.1836,-4.1992,-4.3216,-4.3975,-4.4285,0.0,0.0,-4.5423,-4.5423,-4.5423,-4.5423,-4.5423,-4.5423,-4.5423,-4.5423,-4.5423,-4.5423,-4.5423,-4.5423,-4.5423,-4.5423,-4.5423,-4.5476,-4.5632,-4.577,-4.5922,-4.6186,-4.6542,-4.6888,-4.7133,-4.7443,0.0,-4.7951,-4.809,-4.8226,-4.8267,-4.8306,-4.8306,-4.8306,-4.8306,-4.8306,-4.8306,-4.8306,-4.8306,-4.8306,-4.8306,-4.8306,-4.8306,-4.8401,-4.8494,-4.8532,-4.8587,-4.8678,-4.8787,-4.9397,-4.9896,-5.0153,-5.0766,-5.1527,-5.2381,-5.258,-5.3019,-5.3912,-5.3724,-5.3351,-5.2824,-5.2771,-5.2785,-5.285,-5.2066,-5.1644,-5.1683,-5.101,-5.0702,-5.0702,-5.0529,-5.0356,0.0,0.0,0.0,0.0,0.0,0.0,0.0,0.0,0.0,0.0,0.0,-3.6019,0.0,0.0,-3.6019,-3.6019,-3.6019,-3.6019,-3.6019,-3.63,-3.6583,-3.6715,-3.7384,-3.8156,-3.8912,-3.9714,-4.0363,-4.0758,-4.0888,-4.0888,-4.0888,-4.0888,-4.0888,-4.0888,-4.1595,-4.2181,-4.2578,-4.3716,-4.4475,-4.4854,-4.5234,-4.5423,-4.5423,-4.5423,-4.5423,-4.5423,-4.5423,-4.5423,-4.5423,-4.5423,-4.5423,-4.5423,-4.5423,-4.5423,-4.5423,-4.5423,-4.5423,-4.5423,-4.5563,-4.5667,-4.5821,-4.6087,-4.6447,-4.6731,-4.7043,-4.7294,-4.7554,-4.7811,-4.7992,-4.813,-4.8267,-4.8306,-4.8306,-4.8306,-4.8306,-4.8306,-4.8306,-4.8306,-4.8306,-4.8306,-4.8306,-4.8306,-4.8306,-4.8363,-4.8401,-4.8401,-4.8476,-4.8587,-4.8642,-4.9454,-5.0194,-5.0657,-5.1473,-5.2364,-5.3274,-5.3545,-5.4006,-5.468,-5.4572,-5.4421,-5.4164,-5.3828,-5.3708,-5.3795,-5.297,-5.2549,-5.2549,-5.2145,-5.1952,-5.1952,-5.1952,-5.1491,0.0,0.0,0.0,0.0,0.0,0.0,0.0,-3.5773,-3.5817,-3.5888,-3.5932,-3.5932,-3.5932,-3.5932,-3.5932,-3.5932,-3.5932,-3.5932,-3.5932,-3.6553,-3.7081,-3.7234,-3.7945,-3.8692,-3.9324,-4.0155,-4.0648,-4.0648,-4.0793,-4.0888,-4.0888,-4.0888,-4.0957,-4.1095,-4.1819,-4.2595,-4.3439,-4.413,-4.482,-4.5423,-4.5423,-4.5423,-4.5423,-4.5423,-4.5423,-4.5423,-4.5423,-4.5423,-4.5423,-4.5423,-4.5423,-4.5423,-4.5423,-4.5423,-4.5423,-4.5423,-4.5423,-4.5423,-4.5528,-4.5667,-4.5821,-4.6055,-4.6284,-4.659,-4.6888,-4.7116,-4.7363,-4.7687,-4.7911,-4.8032,-4.8229,-4.8267,-4.8306,-4.8306,-4.8306,-4.8306,-4.8306,-4.8306,-4.8306,-4.8306,-4.8306,-4.8306,-4.8306,-4.8306,-4.8306,-4.8306,-4.8401,-4.8457,-4.8513,-4.9492,-5.0472,-5.112,-5.2159,-5.3144,-5.3963,-5.4356,-5.4635,-5.4871,-5.5028,-5.5229,-5.548,-5.489,-5.4591,-5.4722,-5.3895,-5.3453,-5.3453,-5.328,-5.3203,-5.3203,-5.3203,-5.2472,-3.5622,-3.5622,-3.5622,-3.5622,-3.5622,-3.5622,0.0,-3.5622,-3.5622,-3.5622,-3.5667,-3.5667,-3.5667,-3.5667,-3.5667,-3.5667,-3.5667,-3.5667,-3.5667,-3.6327,-3.7072,-3.775,-3.8653,-3.9289,-3.9375,-4.0089,-4.0534,-4.0534,-4.0648,-4.0697,-4.0697,-4.084,-4.1181,-4.1836,-4.263,-4.3388,-4.4147,-4.4906,-4.5337,-4.5423,-4.5423,-4.5423,-4.5423,-4.5423,-4.5423,-4.5423,-4.5423,-4.5423,-4.5423,-4.5423,-4.5423,-4.5423,-4.5423,-4.5423,-4.5423,-4.5423,-4.5423,-4.5423,-4.5423,-4.5528,-4.5667,-4.577,-4.6005,-4.6332,-4.6684,-4.698,-4.7267,-4.7615,-4.7847,-4.8032,-4.8169,-4.8247,-4.8306,-4.8306,-4.8306,-4.8306,-4.8306,-4.8306,-4.8306,-4.8306,-4.8306,-4.8306,-4.8306,-4.8306,-4.8306,-4.8306,-4.8306,-4.8363,-4.8457,-4.9953,-5.1027,-5.1176,-5.266,-5.3777,-5.4055,-5.4458,-5.4736,-5.4901,-5.5028,-5.5229,-5.548,-5.5408,-5.5439,-5.5568,-5.4761,-5.4357,-5.4357,-5.3587,-5.3203,-5.3203,-5.3203,-5.3106,-3.5622,-3.5622,-3.5622,-3.5622,-3.5622,-3.5622,-3.5622,-3.5622,-3.5622,-3.5622,-3.5622,-3.5622,-3.5622,-3.5622,-3.5622,0.0,-3.5622,-3.5774,-3.6231,-3.6958,-3.7702,-3.8447,-3.9272,-3.9829,-3.9829,-4.015,-4.0387,-4.0387,-4.0485,-4.0648,-4.0697,-4.1157,-4.1616,-4.1974,-4.3182,-4.3958,-4.4285,-4.5044,-4.5423,-4.5423,-4.5423,-4.5423,-4.5423,-4.5423,-4.5423,-4.5423,-4.5423,-4.5423,-4.5423,-4.5423,-4.5423,-4.5423,-4.5423,-4.5423,-4.5423,-4.5423,-4.5423,-4.5423,-4.5423,-4.5476,-4.5632,-4.5787,-4.5955,-4.6235,-4.659,-4.6934,-4.7267,-4.7529,-4.7788,-4.8032,-4.8148,-4.8247,-4.8306,-4.8306,-4.8306,-4.8306,-4.8306,-4.8306,-4.8306,-4.8306,-4.8306,-4.8306,-4.8306,-4.8306,-4.8306,-4.8306,-4.8306,-4.8306,-4.8363,-4.997,-5.1508,-5.2604,-5.3461,-5.4018,-5.4144,-5.4491,-5.4767,-5.496,-5.5066,-5.5262,-5.5504,-5.5527,-5.5596,-5.5703,-5.5376,-5.5203,-5.5203,-5.4838,-5.4645,-5.4645,-5.4645,-5.4645,-3.5622,-3.5622,-3.5622,-3.5622,-3.5622,-3.5622,-3.5622,-3.5622,-3.5622,-3.5622,-3.5622,-3.5622,-3.5622,-3.5622,-3.5622,-3.5622,-3.5622,-3.5893,-3.6671,-3.7432,-3.8176,-3.8903,-3.9631,-4.007,-4.007,-4.0188,-4.0238,-4.0238,-4.0387,-4.0588,-4.0891,-4.1454,-4.2034,-4.2563,-4.3699,-4.4371,-4.4596,-4.5147,-4.5423,-4.5423,-4.5423,-4.5423,-4.5423,-4.5423,-4.5423,-4.5423,-4.5423,-4.5423,-4.5423,-4.5423,-4.5423,-4.5423,-4.5423,-4.5423,-4.5423,-4.5423,-4.5423,-4.5423,-4.5423,-4.5476,-4.5581,-4.5718,-4.5905,-4.6154,-4.6447,-4.6795,-4.7133,-4.7381,-4.7663,-4.797,-4.8108,-4.8208,-4.8286,-4.8306,-4.8306,-4.8306,-4.8306,-4.8306,-4.8306,-4.8306,-4.8306,-4.8306,-4.8306,-4.8306,-4.8306,-4.8306,-4.8306,-4.8306,-4.8306,-4.9932,-5.1805,-5.3589,-5.3981,-5.4127,-5.4179,-5.4524,-5.4799,-5.5,-5.5121,-5.5288,-5.5504,-5.5573,-5.5618,-5.5703,-5.5703,-5.5703,-5.5703,-5.5703,-5.5703,-5.5703,-5.5703,-5.5703,-3.5622,-3.5622,-3.5622,-3.5622,-3.5622,-3.5622,-3.5622,-3.5622,-3.5622,-3.5622,-3.5622,-3.5622,-3.5622,-3.5622,-3.5622,-3.5622,-3.5622,-3.5893,-3.6671,-3.7432,-3.8176,-3.8903,-3.9631,-4.007,0.0,-4.0121,-4.0138,-4.0138,-4.0238,-4.0611,-4.1325,-4.1646,-4.2482,-4.3975,-4.4199,-4.463,-4.5389,-4.5406,-4.5423,-4.5423,-4.5423,-4.5423,-4.5423,-4.5423,-4.5423,-4.5423,-4.5423,-4.5423,-4.5423,-4.5423,-4.5423,-4.5423,-4.5423,-4.5423,-4.5423,-4.5423,-4.5423,-4.5423,-4.5423,-4.5423,-4.5423,-4.5581,-4.5718,-4.5871,-4.6301,-4.659,-4.687,-4.7214,-4.7511,-4.7741,-4.7951,-4.809,-4.8226,-4.8267,-4.8306,-4.8306,-4.8306,-4.8306,-4.8306,-4.8306,-4.8306,-4.8306,-4.8306,-4.8306,-4.8306,-4.8306,-4.8306,-4.8306,-4.8306,-4.9932,-5.1805,-5.3589,-5.3981,-5.4127,-5.4179,-5.4524,-5.4799,-5.5,-5.5121,-5.5288,-5.5504,-5.5573,-5.5618,-5.5703,-5.5703,-5.5703,-5.5703,-5.5703,-5.5703,-5.5703,-5.5703,-5.5703,-3.5622,-3.5622,-3.5622,-3.5622,-3.5622,-3.5622,-3.5622,-3.5622,-3.5622,-3.5622,-3.5622,-3.5622,-3.5622,-3.5622,-3.5622,-3.5622,-3.6045,-3.6654,-3.7415,-3.8159,-3.8903,-3.9631,-3.9935,0.0,0.0,0.0,0.0,-4.007,-4.0595,-4.1036,-4.1376,-4.2466,-4.3355,-4.4061,-4.4611,-4.5042,-4.5423,-4.5423,-4.5423,-4.5423,-4.5423,-4.5423,-4.5423,-4.5423,-4.5423,-4.5423,-4.5423,-4.5423,-4.5423,-4.5423,-4.5423,-4.5423,-4.5423,-4.5423,-4.5423,-4.5423,-4.5423,-4.5423,-4.5423,-4.5423,-4.5423,-4.5581,-4.5667,-4.5871,-4.6186,-4.6542,-4.6888,-4.716,-4.7443,-4.7741,-4.797,-4.809,-4.8226,-4.8267,-4.8306,-4.8306,-4.8306,-4.8306,-4.8306,-4.8306,-4.8306,-4.8306,-4.8306,-4.8306,-4.8306,-4.8306,-4.8306,-4.873,-4.9987,-5.0729,-5.1805,-5.3589,-5.3981,-5.4163,-5.4321,-5.4576,-5.481,-5.5038,-5.5203,-5.5333,-5.5504,-5.5596,-5.5682,-5.5703,-5.5703,-5.5703,-5.5703,-5.5703,-5.5703,-5.5703,-5.5703,-5.5703,-3.5622,-3.5622,-3.5622,-3.5622,-3.5622,-3.5622,-3.5622,-3.5622,-3.5622,-3.5622,-3.5622,-3.5622,-3.5622,-3.5622,-3.5622,-3.5622,-3.6282,-3.7043,-3.7804,-3.8531,-3.9259,-3.9986,-4.007,-4.007,0.0,0.0,0.0,-4.0476,-4.0933,-4.1493,-4.2053,-4.3144,-4.3914,-4.4314,-4.4883,-4.5247,-4.5318,-4.5371,-4.5423,-4.5423,-4.5423,-4.5423,-4.5423,-4.5423,-4.5423,-4.5423,-4.5423,-4.5423,-4.5423,-4.5423,-4.5423,-4.5423,-4.5423,-4.5423,-4.5423,-4.5423,-4.5423,-4.5423,-4.5423,-4.5423,-4.5423,-4.5528,-4.5667,-4.5821,-4.6038,-4.6381,-4.6778,-4.7088,-4.7356,-4.7639,-4.7911,-4.8032,-4.8169,-4.8267,-4.8306,-4.8306,-4.8306,-4.8306,-4.8306,-4.8306,-4.8306,-4.8306,-4.8306,-4.8306,-4.8306,-4.8306,-4.8306,-4.886,-5.0471,-5.0933,-5.1694,-5.3199,-5.3814,-5.4163,-5.4321,-5.4576,-5.478,-5.5038,-5.5203,-5.5333,-5.5504,-5.5596,-5.5682,-5.5703,-5.5703,-5.5703,-5.5703,-5.5703,-5.5703,-5.5703,-5.5703,-5.5703,-3.5622,-3.5622,-3.5622,-3.5622,-3.5622,-3.5622,-3.5622,-3.5622,-3.5622,-3.5622,-3.5622,-3.5622,-3.5622,0.0,-3.5622,-3.5622,-3.6315,-3.7094,-3.7804,-3.8565,-3.9309,-4.0003,-4.007,-4.0087,-4.0121,-4.0781,0.0,-4.1322,0.0,-4.1931,-4.3352,-4.3596,-4.4062,-4.4759,-4.5032,-4.5194,-4.5177,-4.53,-4.5423,-4.5423,-4.5423,-4.5423,-4.5423,-4.5423,-4.5423,-4.5423,-4.5423,-4.5423,-4.5423,-4.5423,-4.5423,-4.5423,-4.5423,-4.5423,-4.5423,-4.5423,-4.5423,-4.5423,-4.5423,-4.5423,-4.5423,-4.5423,-4.5581,-4.5821,-4.5938,-4.6284,-4.6684,-4.7088,-4.7249,-4.7432,-4.787,-4.7992,-4.8072,-4.8267,-4.8306,-4.8306,-4.8306,-4.8306,-4.8306,-4.8306,-4.8306,-4.8306,-4.8306,-4.8306,-4.8306,-4.8306,-4.8306,-4.8695,-4.9769,-5.0582,-5.1453,-5.2475,-5.346,-5.4071,-5.4179,-5.4524,-5.4799,-5.5,-5.5121,-5.5288,-5.5504,-5.5573,-5.5618,-5.5703,-5.5703,-5.5703,-5.5703,-5.5703,-5.5703,-5.5703,-5.5703,-5.5703,-3.5622,-3.5622,-3.5622,-3.5622,-3.5622,-3.5622,-3.5622,-3.5622,-3.5622,-3.5622,-3.5622,-3.5622,-3.5622,-3.5622,0.0,-3.5622,-3.6755,0.0,-3.7872,-3.9005,0.0,-4.0054,-4.007,-4.0307,-4.0865,-4.1085,0.0,0.0,-4.2861,-4.3014,-4.3403,-4.4033,-4.4478,-4.4776,-4.4886,-4.4978,-4.5177,-4.53,-4.5423,-4.5423,-4.5423,-4.5423,-4.5423,-4.5423,-4.5423,-4.5423,-4.5423,-4.5423,-4.5423,-4.5423,-4.5423,-4.5423,-4.5423,-4.5423,-4.5423,-4.5423,-4.5423,-4.5423,-4.5423,-4.5423,-4.5423,-4.5423,-4.5581,-4.5821,-4.5821,-4.6204,-4.6684,-4.6998,-4.7249,-4.7536,-4.7911,-4.809,-4.8169,-4.8267,-4.8306,-4.8306,-4.8306,-4.8306,-4.8306,-4.8306,-4.8306,-4.8306,-4.8306,-4.8306,-4.8306,-4.8306,-4.8306,-4.8695,-4.9769,-5.0083,-5.0842,-5.2419,-5.2956,-5.3473,-5.4123,-5.4524,-5.4799,-5.5,-5.5121,-5.5288,-5.5504,-5.5573,-5.5618,-5.5703,-5.5703,-5.5703,-5.5703,-5.5703,-5.5703,-5.5703,-5.5703,-5.5703,-3.5622,-3.5622,-3.5622,-3.5622,-3.5622,-3.5622,-3.5622,-3.5622,-3.5622,-3.5622,-3.5622,-3.5622,-3.5622,-3.5622,-3.5622,0.0,0.0,0.0,-3.7905,-3.9157,-4.007,-4.007,-4.0375,-4.0747,-4.117,-4.1796,-4.2523,0.0,-4.342,-4.3572,-4.391,-4.4333,-4.4626,-4.4737,-4.4776,-4.494,-4.5194,-4.53,-4.5423,-4.5423,-4.5423,-4.5423,-4.5423,-4.5423,-4.5423,-4.5423,0.0,-4.5423,-4.5423,-4.5423,-4.5423,-4.5423,-4.5423,-4.5423,-4.5423,-4.5423,-4.5423,-4.5423,-4.5423,-4.5423,-4.5423,-4.5423,-4.5581,-4.5821,-4.5871,-4.6204,-4.6684,-4.6998,-4.7294,-4.7597,-4.7911,-4.809,-4.8226,-4.8267,-4.8306,-4.8306,-4.8306,-4.8306,-4.8306,-4.8306,-4.8306,-4.8306,-4.8306,-4.8306,-4.8306,-4.8306,-4.8306,-4.8548,-4.9252,-4.9677,-5.0324,-5.138,-5.2287,-5.3045,-5.3583,-5.4217,-5.4673,-5.4901,-5.5057,-5.5203,-5.5408,-5.548,-5.5551,-5.564,-5.566,-5.5662,-5.5703,-5.5703,-5.5703,-5.5703,-5.5703,-5.5703,-3.5622,-3.5622,-3.5622,-3.5622,-3.5622,-3.5622,-3.5622,-3.5622,-3.5622,-3.5622,-3.5622,-3.5622,-3.5622,-3.5622,-3.5622,-3.5622,0.0,-3.7905,-3.7905,-3.9157,-4.007,-4.007,-4.0747,-4.1238,-4.1339,-4.2608,-4.3453,-4.3572,-4.3572,-4.3859,-4.4536,-4.4587,-4.4587,-4.4587,-4.4737,-4.494,-4.5123,-4.53,-4.5371,-4.5371,-4.5371,-4.5423,-4.5423,-4.5423,-4.5423,-4.5423,-4.5423,-4.5423,-4.5423,-4.5423,-4.5423,-4.5423,-4.5423,-4.5423,-4.5423,-4.5423,-4.5423,-4.5423,-4.5423,-4.5423,-4.5423,-4.5423,-4.5581,-4.5821,-4.5988,-4.6284,-4.6702,-4.7088,-4.7338,-4.7621,-4.7911,-4.809,-4.8226,-4.8286,-4.8306,-4.8306,-4.8306,-4.8306,-4.8306,-4.8306,-4.8306,-4.8306,-4.8306,-4.8306,-4.8306,-4.8306,-4.8306,-4.8382,-4.8587,-4.927,-4.9806,-5.0062,-5.1452,-5.2453,-5.2709,-5.365,-5.434,-5.4585,-5.4825,-5.5085,-5.5281,-5.5358,-5.5456,-5.5573,-5.5596,-5.5618,-5.5703,-5.5703,-5.5703,-5.5703,-5.5703,-5.5703,-3.5622,-3.5622,-3.5622,-3.5622,-3.5622,-3.5622,-3.5622,-3.5622,-3.5622,-3.5622,-3.5622,-3.5622,-3.5622,-3.5622,-3.5622,-3.5622,-3.6907,-3.7905,-3.7905,-3.9157,-4.007,-4.007,-4.0747,-4.1441,-4.2049,-4.2895,0.0,0.0,-4.4384,-4.4434,-4.457,-4.4587,-4.4587,-4.4587,-4.4737,-4.4831,-4.4886,-4.5086,-4.523,-4.5247,-4.5371,-4.5423,-4.5423,-4.5423,-4.5423,-4.5423,-4.5423,0.0,-4.5423,-4.5423,-4.5423,-4.5423,-4.5423,-4.5423,-4.5423,-4.5423,-4.5423,-4.5423,-4.5423,-4.5476,-4.5581,-4.5581,-4.5667,-4.5821,-4.6087,-4.6447,-4.6842,-4.7133,-4.745,-4.7811,-4.7951,-4.8151,-4.8286,-4.8306,-4.8306,-4.8306,-4.8306,-4.8306,-4.8306,-4.8306,-4.8306,-4.8306,-4.8306,-4.8306,-4.8306,-4.8306,-4.8306,-4.8382,-4.8587,-4.8716,-4.914,-5.0006,-5.0482,-5.0999,-5.1689,-5.2772,-5.3442,-5.3553,-5.4413,-5.5,-5.5229,-5.5281,-5.5383,-5.5504,-5.5573,-5.5596,-5.5618,-5.5662,-5.5703,-5.5703,-5.5703,-5.5703,-3.5622,-3.5622,-3.5622,-3.5622,-3.5622,-3.5622,-3.5622,-3.5622,-3.5622,-3.5622,-3.5622,-3.5622,-3.5622,-3.5622,-3.5622,-3.5622,-3.6907,-3.7905,-3.7905,-3.9157,-4.007,-4.007,-4.1085,-4.1914,-4.2252,-4.3335,-4.4181,-4.4553,-4.4587,-4.4587,-4.4587,-4.4587,-4.4587,-4.4587,-4.4737,-4.4776,-4.4776,-4.4978,-4.5086,-4.5086,-4.514,-4.5194,-4.5194,-4.5194,-4.5194,-4.5194,-4.5194,-4.5194,-4.5194,-4.5194,-4.5247,-4.53,-4.53,-4.5371,-4.5423,-4.5423,-4.5423,-4.5423,-4.5423,-4.5476,-4.5615,-4.5752,-4.5905,-4.6055,-4.6235,-4.659,-4.6934,-4.7205,-4.7518,-4.7834,-4.7992,-4.8151,-4.8306,-4.8306,-4.8306,-4.8306,-4.8306,-4.8306,-4.8306,-4.8306,-4.8306,-4.8306,-4.8306,-4.8306,-4.8306,-4.8306,-4.8306,-4.8382,-4.8587,-4.8587,-4.8807,-4.9394,-4.9928,-5.0426,-5.0834,-5.1791,-5.2428,-5.254,-5.3157,-5.3754,-5.4391,-5.4493,-5.4809,-5.5389,-5.5432,-5.5504,-5.5596,-5.5618,-5.5682,-5.5703,-5.5703,-5.5703,-3.5622,-3.5622,-3.5622,-3.5622,-3.5622,-3.5622,-3.5622,-3.5622,-3.5622,-3.5622,-3.5622,-3.5622,-3.5622,-3.5622,-3.5622,-3.5622,-3.6907,-3.7905,-3.7905,-3.9157,-4.007,-4.007,-4.139,-4.2286,-4.2286,-4.3673,0.0,-4.4587,-4.4587,-4.4587,-4.4587,-4.4587,-4.4587,-4.4587,-4.4682,-4.4737,-4.4737,-4.4886,-4.494,-4.494,-4.4978,-4.4978,-4.4978,-4.4978,-4.4978,-4.4978,-4.4978,-4.4978,0.0,-4.4978,-4.5086,-4.514,-4.514,-4.5247,-4.5371,-4.5371,-4.5371,-4.5423,-4.5423,-4.5528,-4.5667,-4.5955,-4.6137,-4.6235,-4.6447,-4.6795,-4.707,-4.732,-4.7603,-4.7875,-4.7992,-4.8151,-4.8306,-4.8306,-4.8306,-4.8306,-4.8306,-4.8306,-4.8306,-4.8306,-4.8306,-4.8306,-4.8306,-4.8306,-4.8306,-4.8306,-4.8306,-4.8382,-4.8587,-4.8587,-4.8678,-4.8874,-4.9503,-4.9947,-4.998,-5.0829,-5.1379,-5.1565,-5.1927,-5.2496,-5.3308,-5.3433,-5.3886,-5.4676,-5.4938,-5.5115,-5.5278,-5.5497,-5.5618,-5.5682,-5.5682,-5.5703,-3.5622,-3.5622,-3.5622,-3.5622,-3.5622,-3.5622,-3.5622,-3.5622,-3.5622,-3.5622,-3.5622,-3.5622,-3.5622,-3.5622,-3.5622,-3.5622,-3.6907,-3.7905,-3.7905,-3.9157,-4.007,-4.007,-4.139,-4.2286,-4.2286,-4.3673,-4.4587,-4.4587,-4.4587,-4.4587,-4.4587,-4.4587,-4.4587,-4.4587,-4.4626,-4.4626,-4.4626,-4.4737,-4.4831,-4.4831,-4.4923,-4.4978,-4.4978,-4.4978,-4.4978,-4.4978,-4.4978,-4.4978,0.0,-4.4978,-4.4978,-4.5032,-4.5032,-4.5086,-4.5247,-4.5247,-4.53,-4.5423,-4.5528,-4.5667,-4.5821,-4.6087,-4.6186,-4.6284,-4.6778,-4.7043,-4.7223,-4.7572,-4.7806,-4.7992,-4.8148,-4.8247,-4.8306,-4.8306,-4.8306,-4.8306,-4.8306,-4.8306,-4.8306,-4.8306,-4.8306,-4.8306,-4.8306,-4.8306,-4.8306,-4.8306,-4.8306,-4.8382,-4.8587,-4.8587,-4.8678,-4.8874,-4.8964,-4.902,-4.902,-4.9887,-5.0421,-5.0456,-5.1382,-5.2008,-5.2146,-5.2408,-5.2589,-5.2756,-5.3722,-5.4218,-5.4243,-5.5092,-5.5551,-5.5596,-5.5596,-5.564,-3.5622,-3.5622,-3.5622,-3.5622,-3.5622,-3.5622,-3.5622,-3.5622,-3.5622,-3.5622,-3.5622,-3.5622,-3.5622,-3.5622,-3.5622,-3.5622,-3.6907,-3.7905,-3.7905,-3.9157,-4.007,-4.007,-4.139,-4.2286,0.0,0.0,-4.4587,-4.4587,-4.4587,-4.4587,-4.4587,-4.4587,-4.4587,-4.4587,-4.4587,-4.4587,-4.4587,-4.4626,-4.4682,-4.4682,-4.472,-4.4776,-4.4776,-4.4776,-4.4776,-4.4776,-4.4776,-4.4776,0.0,-4.4776,-4.4776,-4.4886,-4.4886,-4.5032,-4.5177,-4.5177,-4.5353,-4.5528,-4.5581,-4.5821,-4.6105,-4.6332,-4.6542,-4.6731,-4.6952,-4.7205,-4.7529,-4.7657,-4.7907,-4.813,-4.8187,-4.8247,-4.8306,-4.8306,-4.8306,-4.8306,-4.8306,-4.8306,-4.8306,-4.8306,-4.8306,-4.8306,-4.8306,-4.8306,-4.8306,-4.8306,-4.8306,-4.8382,-4.8587,-4.8587,-4.8678,-4.8874,-4.8909,-4.8909,-4.8909,-4.9312,-4.9567,-4.9567,-5.0015,-5.0571,-5.1206,-5.1318,-5.1695,-5.2418,-5.2862,-5.3167,-5.332,-5.3675,-5.392,-5.4054,-5.4617,-5.4888,-3.5622,-3.5622,-3.5622,-3.5622,-3.5622,-3.5622,-3.5622,-3.5622,-3.5622,-3.5622,-3.5622,-3.5622,-3.5622,-3.5622,-3.5622,-3.5622,-3.6721,-3.7652,-3.7872,-3.8971,-3.9834,-4.0054,0.0,-4.2049,-4.2269,-4.3673,-4.4587,-4.4587,-4.4587,-4.4587,-4.4587,-4.4587,-4.4587,-4.4587,-4.4587,-4.4587,-4.4587,-4.4587,-4.4587,-4.4587,-4.4587,-4.4587,-4.4587,-4.4587,-4.4587,-4.4587,-4.4587,-4.4587,0.0,-4.4587,-4.4626,-4.472,-4.4776,-4.4923,-4.514,-4.5194,-4.5353,-4.5615,-4.5667,-4.5955,-4.6235,-4.659,-4.6888,-4.7116,-4.716,-4.7443,-4.7717,-4.7824,-4.8028,-4.8226,-4.8226,-4.8286,-4.8306,-4.8306,-4.8306,-4.8306,-4.8306,-4.8306,-4.8306,-4.8306,-4.8306,-4.8306,-4.8306,-4.8306,-4.8306,-4.8306,-4.8306,-4.8382,-4.8587,-4.8587,-4.8678,-4.8874,-4.8909,-4.8909,-4.8909,-4.8996,-4.9049,-4.9049,-4.9098,-4.9492,-5.022,-5.0284,-5.0703,-5.1508,-5.1812,-5.2085,-5.2342,-5.2571,-5.2785,-5.2966,-5.3625,-5.3958,-3.5622,-3.5622,-3.5622,-3.5622,-3.5622,-3.5622,-3.5622,-3.5622,-3.5622,-3.5622,-3.5622,-3.5622,-3.5622,-3.5622,-3.5622,-3.5622,-3.6282,-3.706,-3.7804,-3.8531,-3.9276,0.0,-4.0747,-4.1508,-4.2219,-4.3673,-4.4587,-4.4587,-4.4587,0.0,-4.4587,-4.4587,-4.4587,-4.4587,-4.4587,-4.4587,-4.4587,-4.4587,-4.4587,-4.4587,-4.4587,-4.4587,-4.4587,-4.4587,-4.4587,-4.4587,-4.4587,-4.4587,0.0,-4.4587,-4.4587,-4.4643,-4.4737,-4.4886,-4.5032,-4.514,-4.5353,-4.5615,-4.5887,-4.6087,-4.6284,-4.6842,-4.7143,-4.7363,-4.7615,-4.7717,-4.7741,-4.8108,-4.8247,-4.8306,-4.8306,-4.8306,-4.8306,-4.8306,-4.8306,-4.8306,-4.8306,-4.8306,-4.8306,-4.8306,-4.8306,-4.8306,-4.8306,-4.8306,-4.8306,-4.8306,-4.8306,-4.8382,-4.8587,-4.8587,-4.8678,-4.8874,-4.8909,-4.8909,-4.8909,-4.8909,-4.8909,-4.8909,-4.9015,-4.912,-4.912,-4.9327,-4.9434,-4.9434,-5.0466,-5.1074,-5.1233,-5.2094,-5.2608,-5.2785,-5.2805,-5.2924,-3.5622,-3.5622,-3.5622,-3.5622,-3.5622,-3.5622,-3.5622,-3.5622,-3.5622,-3.5622,-3.5622,-3.5622,-3.5622,-3.5622,-3.5622,-3.5622,-3.6282,-3.7043,-3.7804,-3.8531,0.0,-3.9986,-4.1187,-4.2236,0.0,0.0,-4.4587,-4.4587,-4.4587,-4.4587,-4.4587,-4.4587,-4.4587,-4.4587,-4.4587,-4.4587,-4.4587,-4.4587,-4.4587,-4.4587,-4.4587,-4.4587,-4.4587,-4.4587,-4.4587,-4.4587,-4.4587,-4.4587,0.0,-4.4587,-4.4626,-4.4737,-4.4776,-4.4923,-4.5123,-4.5283,-4.558,-4.5905,-4.6087,-4.6381,-4.6795,-4.7043,-4.7356,-4.7597,-4.7847,-4.797,-4.8068,-4.8208,-4.8267,-4.8306,-4.8306,-4.8306,-4.8306,-4.8306,-4.8306,-4.8306,-4.8306,-4.8306,-4.8306,-4.8306,-4.8306,-4.8306,-4.8306,-4.8306,-4.8306,-4.8306,-4.8306,-4.8382,-4.8587,-4.8587,-4.8678,-4.8874,-4.8909,-4.8909,-4.8909,-4.8909,-4.8909,-4.8909,-4.8943,-4.8996,-4.9101,-4.915,-4.9262,-4.9415,-4.972,-5.0021,-5.0232,-5.0561,-5.1166,-5.1964,-5.1964,-5.2388,-3.5622,-3.5622,-3.5622,-3.5622,-3.5622,-3.5622,-3.5622,-3.5622,-3.5622,-3.5622,-3.5622,-3.5622,-3.5622,-3.5622,-3.5622,-3.5622,-3.6028,-3.6705,-3.7753,-3.8311,0.0,-3.9952,0.0,0.0,0.0,-4.3944,-4.4587,-4.4587,-4.4587,-4.4587,-4.4587,-4.4587,-4.4587,-4.4587,-4.4587,-4.4587,-4.4587,-4.4587,-4.4587,-4.4587,-4.4587,-4.4587,-4.4587,-4.4587,-4.4587,-4.4587,-4.4587,0.0,0.0,-4.4587,-4.4682,-4.4776,-4.4831,-4.5032,-4.5283,-4.5477,-4.5786,-4.6052,-4.5998,-4.6241,-4.6543,-4.6521,-4.6928,-4.7452,-4.7633,-4.7931,-4.8247,-4.8267,-4.8306,-4.8306,-4.8306,-4.8306,-4.8306,-4.8306,-4.8306,-4.8306,-4.8306,-4.8306,-4.8306,-4.8306,-4.8306,-4.8306,-4.8306,-4.8306,-4.8306,-4.8306,-4.8344,-4.8438,-4.8587,-4.8642,-4.8714,-4.8874,-4.8909,-4.8909,-4.8909,-4.8909,-4.8909,-4.8909,-4.8909,-4.8962,-4.9015,-4.9068,-4.915,-4.9276,-4.9308,-4.9415,-4.9644,-4.9816,-5.0271,-5.0964,-5.1061,-5.1442,0.0,-3.5622,-3.5622,-3.5622,-3.5622,-3.5622,-3.5622,0.0,0.0,-3.5622,-3.5622,-3.5622,-3.5622,-3.5622,-3.5622,-3.5622,-3.5622,-3.6129,-3.7618,-3.7922,0.0,0.0,-4.1339,0.0,-4.2286,-4.3623,-4.4519,-4.4587,-4.4587,-4.4587,-4.4587,-4.4587,-4.4587,-4.4587,-4.4587,-4.4587,-4.4587,-4.4587,-4.4587,-4.4587,-4.4587,-4.4587,-4.4587,-4.4587,-4.4587,0.0,-4.4587,0.0,0.0,-4.4626,-4.4682,-4.4831,-4.4978,-4.5177,-4.5424,-4.5683,-4.59,-4.609,-4.5663,-4.5624,-4.5738,-4.5423,-4.6054,-4.6925,-4.7002,-4.7627,-4.8306,-4.8306,-4.8306,-4.8306,-4.8306,-4.8306,-4.8306,-4.8306,-4.8306,-4.8306,-4.8306,-4.8306,-4.8306,-4.8306,-4.8306,-4.8306,-4.8306,-4.8306,-4.8306,-4.8306,-4.8401,-4.8532,-4.8587,-4.8732,-4.8822,-4.8909,-4.8909,-4.8909,-4.8909,-4.8909,-4.8909,-4.8909,-4.8909,-4.8909,-4.8909,-4.9015,-4.9101,-4.9101,-4.9183,-4.9276,-4.9415,-4.9712,-4.9898,-4.9925,-5.0158,-5.0278,-3.5577,0.0,-3.5622,-3.5622,-3.5622,-3.5622,0.0,0.0,0.0,0.0,0.0,0.0,0.0,-3.5622,-3.5622,-3.5622,-3.5622,-3.596,-3.6907,-3.8024,0.0,-3.9969,-4.0899,-4.1677,-4.2236,-4.3149,-4.3944,-4.4536,-4.4587,-4.4587,-4.4587,-4.4587,-4.4587,-4.4587,-4.4587,-4.4587,-4.4587,-4.4587,-4.4587,-4.4587,-4.4587,-4.4587,-4.4587,-4.4587,-4.4587,-4.4587,0.0,0.0,-4.4626,-4.4737,-4.4831,-4.4995,-4.523,-4.5494,-4.5665,-4.5323,-4.5434,-4.5673,-4.5027,-4.5107,-4.5463,-4.5599,-4.5881,-4.6103,-4.6159,-4.7168,-4.8306,-4.8306,-4.8306,-4.8306,-4.8306,-4.8306,-4.8306,-4.8306,-4.8306,-4.8306,-4.8306,-4.8306,-4.8306,-4.8306,-4.8306,-4.8306,-4.8306,-4.8306,-4.8306,-4.8306,-4.8401,-4.8532,-4.8587,-4.8732,-4.8822,-4.8909,-4.8909,-4.8909,-4.8909,-4.8909,-4.8909,-4.8909,-4.8909,-4.8909,-4.8909,-4.8909,-4.9015,-4.9101,-4.9183,-4.9276,-4.9415,-4.9476,-4.9655,-4.9879,-4.9959,-5.0089,-3.5566,-3.5594,-3.5622,-3.5622,-3.5622,-3.5622,-3.5622,0.0,0.0,0.0,0.0,0.0,0.0,-3.5622,-3.5622,-3.5622,-3.5622,-3.6011,-3.7127,0.0,-3.9259,-3.9986,-4.0747,-4.1373,0.0,-4.2777,-4.3589,-4.4012,-4.4384,-4.4587,-4.4587,-4.4587,-4.4587,-4.4587,-4.4587,-4.4587,-4.4587,-4.4587,-4.4587,-4.4587,-4.4587,-4.4587,-4.4587,-4.4587,-4.4587,-4.4587,0.0,0.0,-4.4626,-4.472,-4.494,-4.514,-4.5336,-4.5632,-4.595,-4.5356,-4.5404,-4.5597,-4.4695,-4.4393,-4.4452,-4.4657,-4.4967,-4.5297,-4.5315,-4.6214,-4.7278,-4.7664,-4.8031,-4.8306,-4.8306,-4.8306,-4.8306,-4.8306,-4.8306,-4.8306,-4.8306,-4.8306,-4.8306,-4.8306,-4.8306,-4.8306,-4.8306,-4.8306,-4.8306,-4.8306,-4.8438,-4.855,-4.8587,-4.875,-4.8839,-4.8909,-4.8909,-4.8909,-4.8909,-4.8909,-4.8909,-4.8909,-4.8909,-4.8909,-4.8909,-4.8909,-4.8943,-4.9015,-4.9098,-4.9197,-4.9244,-4.9371,-4.9488,-4.9683,-4.9824,-4.9978,-3.5492,-3.552,-3.5577,-3.5577,-3.5622,-3.5622,-3.5622,0.0,0.0,0.0,0.0,0.0,0.0,-3.5622,0.0,-3.5622,-3.5622,-3.6163,-3.7686,-3.8447,-3.914,-3.9969,-4.0646,0.0,-4.1187,-4.2337,-4.3183,-4.3403,-4.4028,-4.4451,-4.457,-4.4587,-4.4587,-4.4587,-4.4587,-4.4587,-4.4587,-4.4587,-4.4587,-4.4587,-4.4587,-4.4587,-4.4587,-4.4587,-4.4587,-4.4587,0.0,0.0,-4.4626,-4.4793,-4.4978,-4.523,-4.5303,-4.5612,-4.6002,-4.534,-4.5294,-4.5362,-4.4321,-4.3724,-4.3394,-4.3411,-4.3904,-4.4525,-4.4525,-4.5076,-4.5865,-4.6544,-4.7407,-4.8122,-4.8122,-4.8214,-4.8306,-4.8306,-4.8306,-4.8306,-4.8306,-4.8306,-4.8306,-4.8306,-4.8306,-4.8306,-4.8306,-4.8306,-4.8306,-4.8324,-4.8476,-4.8587,-4.8642,-4.8785,-4.8909,-4.8909,-4.8909,-4.8909,-4.8909,-4.8909,-4.8909,-4.8909,-4.8909,-4.8909,-4.8909,-4.8909,-4.8909,-4.8909,-4.9015,-4.9068,-4.9101,-4.9276,-4.9384,-4.9415,-4.9683,-4.9852,-3.54,-3.5492,-3.552,-3.5577,-3.5622,-3.5622,-3.5622,0.0,0.0,0.0,0.0,0.0,0.0,-3.5622,-3.5622,0.0,0.0,-3.6163,0.0,0.0,-3.8565,-3.9918,0.0,-4.0493,-4.1136,-4.1407,-4.2066,-4.3318,0.0,-4.3876,-4.4536,-4.4587,-4.4587,-4.4587,-4.4587,-4.4587,-4.4587,-4.4587,-4.4587,-4.4587,-4.4587,-4.4587,-4.4587,-4.4587,-4.4587,-4.4587,0.0,-4.4682,-4.4776,-4.4923,-4.514,-4.532,-4.5022,-4.5155,-4.5375,-4.4147,-4.3913,-4.4097,-4.3559,-4.3378,-4.3429,-4.3481,-4.3589,-4.3681,-4.3681,-4.425,-4.4911,-4.5039,-4.6159,-4.7297,-4.7297,-4.781,-4.8306,-4.8306,-4.8306,-4.8306,-4.8306,-4.8306,-4.8306,-4.8306,-4.8306,-4.8306,-4.8306,-4.8306,-4.8363,-4.8457,-4.8532,-4.8642,-4.8732,-4.8839,-4.8909,-4.8909,-4.8909,-4.8909,-4.8909,-4.8909,-4.8909,-4.8909,-4.8909,-4.8909,-4.8909,-4.8909,-4.8909,-4.8909,-4.8909,-4.8996,-4.9101,-4.9135,-4.923,-4.9415,-4.9427,-4.9625,-3.5152,-3.5337,-3.5492,-3.552,-3.5594,-3.5622,-3.5622,-3.5622,0.0,0.0,0.0,0.0,0.0,0.0,-3.5622,-3.5622,0.0,-3.6163,-3.7686,-3.7905,-3.8447,0.0,0.0,-4.0206,-4.0561,0.0,0.0,0.0,0.0,0.0,-4.3318,-4.3352,-4.3352,-4.3352,-4.3352,-4.3352,-4.3352,-4.3352,-4.3758,-4.457,-4.4147,-4.3944,-4.3944,-4.3521,-4.3352,-4.3352,0.0,-4.3444,-4.3552,-4.3748,-4.401,-4.4283,-4.4283,-4.4554,-4.4778,-4.4026,-4.3668,-4.3503,-4.3342,-4.3376,-4.3463,-4.3497,-4.3497,-4.3497,-4.3497,-4.3754,-4.4048,-4.4048,-4.5204,-4.6452,-4.6452,-4.7058,-4.7664,-4.7664,-4.7994,-4.8306,-4.8306,-4.8306,-4.8306,-4.8306,-4.8306,-4.8306,-4.8306,-4.8306,-4.8363,-4.8457,-4.855,-4.8642,-4.8787,-4.8839,-4.8909,-4.8909,-4.8909,-4.8909,-4.8909,-4.8909,-4.8909,-4.8909,-4.8909,-4.8909,-4.8909,-4.8909,-4.8909,-4.8909,-4.8909,-4.8909,-4.8996,-4.9049,-4.915,-4.923,-4.9352,-4.9751,-3.4851,-3.5135,-3.54,-3.5492,0.0,-3.5622,-3.5622,-3.5622,0.0,0.0,0.0,0.0,0.0,-3.5622,0.0,-3.5622,-3.5622,-3.6163,-3.7686,-3.7905,-3.8447,-3.9901,-4.007,-4.007,0.0,0.0,0.0,0.0,0.0,0.0,-4.2286,-4.2286,-4.2286,-4.2286,-4.2286,-4.2286,-4.2286,-4.2286,-4.2878,-4.4028,-4.3436,-4.3149,-4.3132,-4.2557,-4.2286,-4.2286,-4.2339,-4.2409,-4.2567,-4.286,-4.3113,-4.3409,-4.357,-4.3792,-4.3982,-4.3902,-4.3557,-4.3214,-4.334,-4.3446,-4.3497,-4.3497,-4.3497,-4.3497,-4.3497,-4.3497,-4.3497,-4.3497,-4.4378,-4.5369,-4.5571,-4.6232,-4.6874,-4.7076,-4.759,-4.8086,-4.8269,-4.8306,-4.8306,-4.8306,-4.8306,-4.8306,-4.8306,-4.8306,-4.8344,-4.8494,-4.8569,-4.8642,-4.8804,-4.8874,-4.8909,-4.8909,-4.8909,-4.8909,-4.8909,-4.8909,-4.8909,-4.8909,-4.8909,-4.8909,-4.8909,-4.8909,-4.8909,-4.8909,-4.8909,-4.8909,-4.8909,-4.8996,-4.9068,-4.912,-4.9449,-4.999,-3.4739,-3.4899,-3.5041,-3.54,-3.5566,0.0,-3.5622,-3.5622,0.0,-3.5622,0.0,0.0,0.0,-3.5622,-3.5622,-3.5622,-3.5622,-3.6163,-3.7686,0.0,-3.8447,-3.9901,-4.007,-4.007,0.0,0.0,0.0,0.0,0.0,0.0,-4.2252,-4.2286,-4.2286,-4.2286,-4.2286,-4.2286,-4.2286,-4.2286,-4.2354,-4.2455,-4.2405,-4.2371,-4.2371,-4.232,-4.2286,-4.2286,-4.2409,-4.2567,-4.2723,-4.2979,-4.3328,-4.3628,-4.3142,-4.286,-4.2771,-4.3045,-4.3178,-4.3214,-4.334,-4.3446,-4.3497,-4.3497,-4.3497,-4.3497,-4.3497,-4.3497,-4.3497,-4.3497,-4.3571,-4.3828,-4.4599,-4.5388,-4.6177,-4.6929,-4.715,-4.7407,-4.8141,-4.8306,-4.8306,-4.8306,-4.8306,-4.8306,-4.8306,-4.8306,-4.8382,-4.855,-4.8587,-4.866,-4.8874,-4.8909,-4.8909,-4.8909,-4.8909,-4.8909,-4.8909,-4.8909,-4.8909,-4.8909,-4.8909,-4.8909,-4.8909,-4.8909,-4.8909,-4.8909,-4.8909,-4.8909,-4.8909,-4.8909,-4.8962,-4.912,-4.9865,-5.034,-3.4546,-3.4787,-3.4994,-3.5308,-3.5429,0.0,0.0,-3.5622,-3.5622,-3.5622,-3.5622,0.0,0.0,0.0,-3.5622,-3.5622,-3.5622,-3.5994,-3.706,-3.7618,-3.8278,-3.9292,-3.98,0.0,0.0,0.0,0.0,0.0,0.0,0.0,-4.0899,-4.0916,-4.0916,-4.0916,-4.0916,-4.0916,-4.0916,-4.0916,-4.0916,-4.0916,-4.139,-4.1627,-4.1593,-4.1119,-4.0916,-4.0916,-4.1087,-4.1188,-4.1372,-4.1684,-4.202,-4.2293,-4.2526,-4.2642,-4.2783,-4.3031,-4.3178,-4.3251,-4.3393,-4.3463,-4.3497,-4.3497,-4.3497,-4.3497,-4.3497,-4.3497,-4.3497,-4.3497,-4.3497,-4.3552,-4.3864,-4.4544,-4.5241,-4.5553,-4.6379,-4.7205,-4.7498,-4.7957,-4.8306,-4.8306,-4.8306,-4.8306,-4.8306,-4.8306,-4.8382,-4.855,-4.8587,-4.866,-4.8855,-4.8909,-4.8909,-4.8909,-4.8909,-4.8909,-4.8909,-4.8909,-4.8909,-4.8909,-4.8909,-4.8909,-4.8909,-4.8909,-4.8909,-4.8909,-4.8909,-4.8909,-4.8909,-4.8909,-4.9169,-4.9724,-5.0129,-5.0869,-3.4399,-3.4643,-3.4851,-3.5198,0.0,0.0,-3.5594,-3.5622,-3.5622,-3.5622,-3.5622,-3.5622,-3.5622,0.0,0.0,0.0,-3.5622,-3.5893,-3.6671,-3.7229,-3.7905,-3.887,-3.9428,0.0,0.0,0.0,0.0,0.0,0.0,0.0,0.0,-4.007,-4.007,-4.007,-4.007,-4.007,-4.007,-4.007,-4.007,-4.0087,-4.0595,-4.0849,-4.0832,-4.0307,-4.007,-4.0121,-4.0288,-4.0436,-4.0583,-4.1029,-4.1398,-4.1736,-4.2269,-4.2591,-4.2842,-4.3105,-4.3214,-4.3286,-4.3444,-4.3497,-4.3497,-4.3497,-4.3497,-4.3497,-4.3497,-4.3497,-4.3497,-4.3497,-4.3497,-4.3497,-4.3497,-4.3901,-4.4397,-4.4654,-4.5755,-4.6801,-4.7076,-4.7737,-4.8306,-4.8306,-4.8306,-4.8306,-4.8306,-4.8306,-4.8382,-4.855,-4.8587,-4.866,-4.8855,-4.8909,-4.8909,-4.8909,-4.8909,-4.8909,-4.8909,-4.8909,-4.8909,-4.8909,-4.8909,-4.8909,-4.8909,-4.8909,-4.8909,-4.8909,-4.8909,-4.8909,-4.8909,-4.915,-4.9559,-5.0116,-5.0745,-5.1636,-3.4349,-3.4497,-3.4643,-3.5152,0.0,0.0,-3.5532,-3.5622,-3.5622,-3.5622,-3.5622,-3.5622,-3.5622,-3.5622,0.0,-3.5622,-3.5622,-3.5893,-3.6671,-3.6772,-3.733,-3.8802,0.0,0.0,0.0,0.0,0.0,0.0,0.0,0.0,0.0,-4.007,-4.007,-4.007,-4.007,-4.007,-4.007,-4.007,-4.007,-4.007,-4.007,-4.007,-4.007,-4.007,-4.007,-4.0138,-4.037,-4.0583,-4.0745,-4.1198,-4.1762,-4.2328,-4.253,-4.2709,-4.2938,-4.3123,-4.3286,-4.3429,-4.3463,-4.3497,-4.3497,-4.3497,-4.3497,-4.3497,-4.3497,-4.3497,-4.3497,-4.3497,-4.3497,-4.3497,-4.3497,-4.3497,-4.3699,-4.4507,-4.5296,-4.6104,-4.6929,-4.7737,-4.8306,-4.8306,-4.8306,-4.8306,-4.8306,-4.8306,-4.8382,-4.855,-4.8587,-4.866,-4.8855,-4.8909,-4.8909,-4.8909,-4.8909,-4.8909,-4.8909,-4.8909,-4.8909,-4.8909,-4.8909,-4.8909,-4.8909,-4.8909,-4.8909,-4.8909,-4.8909,-4.8909,-4.8909,-4.9707,-5.0116,-5.0172,-5.1825,-5.2605,-3.4349,-3.4497,-3.4643,-3.5152,0.0,0.0,0.0,-3.5622,0.0,0.0,-3.5622,-3.5622,-3.5622,-3.5622,0.0,-3.5622,-3.5622,-3.569,-3.5926,-3.6434,0.0,0.0,0.0,0.0,0.0,0.0,0.0,0.0,0.0,0.0,0.0,-4.007,-4.007,-4.007,-4.007,-4.007,-4.007,-4.007,-4.007,-4.007,-4.007,-4.007,-4.007,-4.007,-4.0138,-4.0238,-4.0436,-4.0631,-4.0888,-4.1498,-4.2019,-4.2391,-4.2649,-4.286,-4.3049,-4.3178,-4.3286,-4.3429,-4.3463,-4.3497,-4.3497,-4.3497,-4.3497,-4.3497,-4.3497,-4.3497,-4.3497,-4.3497,-4.3497,-4.3497,-4.3497,-4.3497,-4.3552,-4.3791,-4.447,-4.5278,-4.6085,-4.6893,-4.7627,-4.8196,-4.8306,-4.8306,-4.8306,-4.8306,-4.8382,-4.855,-4.8587,-4.866,-4.8855,-4.8909,-4.8909,-4.8909,-4.8909,-4.8909,-4.8909,-4.8909,-4.8909,-4.8909,-4.8909,-4.8909,-4.8909,-4.8909,-4.8909,-4.8909,-4.8909,-4.9187,-4.9745,-4.9986,-5.0711,-5.1881,-5.2382,-5.2902,-3.4349,-3.4546,-3.4707,-3.5198,-3.5337,-3.5429,-3.5577,0.0,0.0,0.0,-3.5622,-3.5622,-3.5622,-3.5622,0.0,-3.5622,-3.5622,-3.5622,-3.5622,-3.6028,0.0,0.0,0.0,0.0,0.0,0.0,0.0,0.0,0.0,0.0,0.0,-3.9648,-3.9783,-4.007,-4.007,-4.007,-4.007,-4.007,-4.007,-4.007,-4.007,-4.007,-4.007,-4.007,-4.0188,-4.0305,-4.0662,-4.0948,-4.129,-4.1849,-4.2228,-4.2512,-4.2765,-4.2956,-4.316,-4.3251,-4.334,-4.3446,-4.3497,-4.3497,-4.3497,-4.3497,-4.3497,-4.3497,-4.3497,-4.3497,-4.3497,-4.3497,-4.3497,-4.3497,-4.3497,-4.3497,-4.3497,-4.3497,-4.4103,-4.4929,-4.5736,-4.6544,-4.7352,-4.8141,-4.8306,-4.8306,-4.8306,-4.8306,-4.8382,-4.855,-4.8678,-4.875,-4.889,-4.8909,-4.8909,-4.8909,-4.8909,-4.8909,-4.8909,-4.8909,-4.8909,-4.8909,-4.8909,-4.8909,-4.8909,-4.8909,-4.8909,-4.8909,-4.8909,-4.9299,-5.0098,-5.045,-5.1305,-5.2605,-5.294,-5.3348,-3.4349,-3.4594,-3.4787,-3.5198,-3.54,0.0,-3.5577,-3.5622,-3.5622,-3.5622,0.0,-3.5622,-3.5622,-3.5622,-3.5622,-3.5622,-3.5622,-3.5622,-3.5622,-3.5622,0.0,0.0,0.0,0.0,0.0,0.0,0.0,0.0,0.0,0.0,0.0,-3.8903,-3.9225,-3.9952,-3.9986,-4.0003,-4.007,-4.007,-4.007,-4.007,-4.007,-4.0138,-4.0138,-4.0138,-4.0188,-4.0404,-4.0977,-4.1436,-4.1823,-4.2163,-4.245,-4.2649,-4.2862,-4.305,-4.3251,-4.3359,-4.3446,-4.3497,-4.3497,-4.3497,-4.3497,-4.3497,-4.3497,-4.3497,-4.3497,-4.3497,-4.3497,-4.3497,-4.3497,-4.3497,-4.3497,-4.3497,-4.3497,-4.3497,-4.4066,-4.4837,-4.5718,-4.6471,-4.726,-4.8141,-4.8306,-4.8306,-4.8306,-4.8306,-4.8382,-4.855,-4.875,-4.8909,-4.8909,-4.8909,-4.8909,-4.8909,-4.8909,-4.8909,-4.8909,-4.8909,-4.8909,-4.8909,-4.8909,-4.8909,-4.8909,-4.8909,-4.8909,-4.8909,-4.8909,-4.9336,-5.0228,-5.1008,-5.1844,-5.2735,-5.346,-5.3813,-3.4399,-3.4691,0.0,-3.5245,-3.5412,-3.5577,-3.5577,-3.5622,-3.5622,-3.5622,-3.5622,-3.5622,-3.5622,-3.5622,-3.5622,-3.5622,-3.5622,-3.5622,-3.5622,-3.5622,-3.5673,-3.5859,0.0,0.0,0.0,0.0,0.0,0.0,0.0,0.0,-3.8125,-3.8142,-3.8464,-3.9208,-3.9225,-3.9495,-4.007,-4.007,-4.007,0.0,-4.007,-4.0138,-4.0238,-4.0238,-4.0453,-4.0776,-4.1198,-4.1542,-4.1892,-4.2228,-4.2552,-4.2862,-4.3012,-4.316,-4.334,-4.3394,-4.3446,-4.3497,-4.3497,-4.3497,-4.3497,-4.3497,-4.3497,-4.3497,-4.3497,-4.3497,-4.3497,-4.3497,-4.3497,-4.3497,-4.3497,-4.3497,-4.3497,-4.3497,-4.3626,-4.414,-4.559,-4.6049,-4.6581,-4.8031,-4.8306,-4.8306,-4.8306,-4.8306,-4.8382,-4.855,-4.8732,-4.8857,-4.8909,-4.8909,-4.8909,-4.8909,-4.8909,-4.8909,-4.8909,-4.8909,-4.8909,-4.8909,-4.8909,-4.8909,-4.8909,-4.8909,-4.8909,-4.8909,-4.8909,-4.9633,-5.1119,-5.1305,-5.2141,-5.3553,-5.372,-5.3813,-3.4399,-3.4739,0.0,-3.5367,0.0,-3.5622,-3.5622,-3.5622,-3.5622,-3.5622,-3.5622,-3.5622,-3.5622,-3.5622,-3.5622,-3.5622,-3.5622,-3.5622,-3.5622,-3.5622,-3.5622,-3.5622,0.0,0.0,0.0,0.0,0.0,0.0,0.0,-3.6975,-3.7347,-3.7364,-3.7702,-3.8447,-3.8464,-3.865,-3.9039,-3.9039,-3.9039,-3.9039,-3.9039,-3.9323,-3.9876,-4.038,-4.0776,-4.1088,-4.1453,-4.1805,-4.2103,-4.2494,-4.2729,-4.292,-4.316,-4.3323,-4.3376,-4.3446,-4.3463,-4.3497,-4.3497,-4.3497,-4.3497,-4.3497,-4.3497,-4.3497,-4.3497,-4.3497,-4.3497,-4.3497,-4.3497,-4.3497,-4.3497,-4.3497,-4.3497,-4.3497,-4.3497,-4.3828,-4.5057,-4.5626,-4.6269,-4.7498,-4.8049,-4.8306,-4.8306,-4.8363,-4.8438,-4.8587,-4.8732,-4.8822,-4.8909,-4.8909,-4.8909,-4.8909,-4.8909,-4.8909,-4.8909,-4.8909,-4.8909,-4.8909,-4.8909,-4.8909,-4.8909,-4.8909,-4.8909,-4.8909,-4.8909,-4.9522,-5.0785,-5.1193,-5.2029,-5.3237,-5.3627,-5.3813,-3.4399,-3.4787,-3.5228,-3.5532,-3.5622,0.0,-3.5622,-3.5622,-3.5622,-3.5622,-3.5622,-3.5622,-3.5622,-3.5622,-3.5622,-3.5622,-3.5622,-3.5622,-3.5622,-3.5622,-3.5622,-3.5622,-3.5622,0.0,0.0,0.0,0.0,0.0,0.0,-3.591,-3.6552,-3.6586,-3.6924,-3.7686,-3.7719,-3.777,-3.7905,-3.7905,-3.7905,-3.7905,-3.7953,-3.8401,-3.9316,-4.0336,-4.0967,-4.1255,-4.1701,-4.2061,-4.2369,-4.2747,-4.292,-4.2975,-4.3269,-4.3429,-4.3411,-4.3463,-4.3497,-4.3497,-4.3497,-4.3497,-4.3497,-4.3497,-4.3497,-4.3497,-4.3497,-4.3497,-4.3497,-4.3497,-4.3497,-4.3497,-4.3497,-4.3497,-4.3497,-4.3497,-4.3497,-4.3718,-4.4544,-4.5333,-4.614,-4.6948,-4.7755,-4.8306,-4.8306,-4.8401,-4.8494,-4.8569,-4.8697,-4.8768,-4.8874,-4.8909,-4.8909,-4.8909,-4.8909,-4.8909,-4.8909,-4.8909,-4.8909,-4.8909,-4.8909,-4.8909,-4.8909,-4.8909,-4.8909,-4.8909,-4.8909,-4.9299,-5.0098,-5.0822,-5.1602,-5.2419,-5.3218,-5.359,-3.4448,0.0,-3.5337,0.0,-3.5622,-3.5622,0.0,0.0,-3.5622,0.0,-3.5622,-3.5622,-3.5622,-3.5622,-3.5622,-3.5622,-3.5622,-3.5622,-3.5622,-3.5622,-3.5622,-3.5622,-3.5622,0.0,0.0,0.0,0.0,0.0,-3.5622,-3.5673,-3.5774,-3.5774,-3.6129,-3.6907,-3.6924,-3.7246,-3.7905,-3.7905,-3.7905,-3.7905,-3.8061,-3.8328,-3.8756,-3.9859,-4.0734,-4.1363,-4.1762,-4.2103,-4.2432,-4.2768,-4.3013,-4.3178,-4.334,-4.3446,-4.3497,-4.3497,-4.3497,-4.3497,-4.3497,-4.3497,-4.3497,-4.3497,-4.3497,-4.3497,-4.3497,-4.3497,-4.3497,-4.3497,-4.3497,-4.3497,-4.3497,-4.3497,-4.3497,-4.3497,-4.3497,-4.3718,-4.4544,-4.5333,-4.614,-4.6948,-4.7755,-4.8306,-4.8306,-4.8306,-4.8363,-4.8494,-4.8587,-4.8678,-4.8787,-4.8874,-4.8909,-4.8909,-4.8909,-4.8909,-4.8909,-4.8909,-4.8909,-4.8909,-4.8909,-4.8909,-4.8909,-4.8909,-4.8909,-4.8909,-4.8909,-4.9299,-5.0098,-5.0228,-5.0729,-5.1584,-5.2401,-5.2754,-3.4851,-3.5198,-3.5429,0.0,-3.5622,-3.5622,-3.5622,-3.5622,-3.5622,-3.5622,-3.5622,-3.5622,-3.5622,-3.5622,-3.5622,-3.5622,-3.5622,-3.5622,-3.5622,-3.5622,-3.5622,-3.5622,-3.5622,0.0,0.0,0.0,0.0,0.0,-3.5622,-3.5622,-3.5622,-3.5622,-3.5774,-3.6129,-3.6129,-3.6282,-3.662,-3.662,-3.6637,-3.6729,-3.7393,-3.7779,-3.8008,-3.919,-4.0217,-4.1102,-4.1866,-4.2374,-4.2691,-4.2975,-4.316,-4.334,-4.3411,-4.3463,-4.3497,-4.3497,-4.3497,-4.3497,-4.3497,-4.3497,-4.3497,-4.3497,-4.3497,-4.3497,-4.3497,-4.3497,-4.3497,-4.3497,-4.3497,-4.3497,-4.3497,-4.3497,-4.3497,-4.3497,-4.3497,-4.3718,-4.4544,-4.5333,-4.6269,-4.7535,-4.8067,-4.8306,-4.8306,-4.8306,-4.8363,-4.8457,-4.8532,-4.8606,-4.8787,-4.8822,-4.8839,-4.8909,-4.8909,-4.8909,-4.8909,-4.8909,-4.8909,-4.8909,-4.8909,-4.8909,-4.8909,-4.8909,-4.8909,-4.8909,-4.8909,-4.9076,-4.9429,-4.9893,-5.0302,-5.0692,-5.1546,-5.1936,-3.5198,0.0,-3.5537,-3.5577,-3.5622,-3.5622,0.0,0.0,-3.5622,0.0,-3.5622,-3.5622,-3.5622,-3.5622,-3.5622,-3.5622,-3.5622,-3.5622,-3.5622,-3.5622,-3.5622,-3.5622,-3.5622,0.0,0.0,0.0,0.0,0.0,-3.5622,-3.5622,-3.5622,-3.5622,-3.5622,-3.5622,-3.5622,-3.5622,-3.5622,-3.5622,-3.5711,-3.5861,-3.6671,-3.712,-3.7386,-3.8531,-3.9511,-4.0415,-4.1618,-4.2325,-4.2648,-4.3087,-4.3305,-4.3429,-4.3463,-4.3497,-4.3497,-4.3497,-4.3497,-4.3497,-4.3497,-4.3497,-4.3497,-4.3497,-4.3497,-4.3497,-4.3497,-4.3497,-4.3497,-4.3497,-4.3497,-4.3497,-4.3497,-4.3497,-4.3497,-4.3497,-4.3644,-4.403,-4.4837,-4.5645,-4.6617,-4.8031,-4.8306,-4.8306,-4.8306,-4.8306,-4.8344,-4.8419,-4.8457,-4.8532,-4.8715,-4.8751,-4.8822,-4.8874,-4.8909,-4.8909,-4.8909,-4.8909,-4.8909,-4.8909,-4.8909,-4.8909,-4.8909,-4.8909,-4.8909,-4.8909,-4.8909,-4.8909,-4.8909,-4.9503,-4.98,-4.9819,-5.0692,-5.1101,-3.54,-3.5492,0.0,-3.5577,-3.5622,-3.5622,0.0,0.0,-3.5622,-3.5622,-3.5622,-3.5622,-3.5622,-3.5622,-3.5622,-3.5622,-3.5622,-3.5622,-3.5622,-3.5622,-3.5622,-3.5622,-3.5622,-3.5622,0.0,0.0,0.0,0.0,-3.5622,-3.5622,-3.5622,-3.5622,-3.5622,-3.5622,-3.5622,-3.5622,-3.5622,-3.5728,-3.5861,-3.5975,-3.6225,-3.6537,-3.6858,-3.7954,-3.8655,-3.91,-4.0717,-4.1591,-4.1832,-4.2959,-4.3394,-4.3429,-4.3463,-4.3497,-4.3497,-4.3497,-4.3497,-4.3497,-4.3497,-4.3497,-4.3497,-4.3497,-4.3497,-4.3497,-4.3497,-4.3497,-4.3497,-4.3497,-4.3497,-4.3497,-4.3497,-4.3497,-4.3497,-4.3497,-4.4085,-4.4874,-4.5663,-4.6471,-4.7297,-4.8141,-4.8306,-4.8306,-4.8306,-4.8306,-4.8306,-4.8306,-4.8419,-4.8513,-4.8513,-4.8679,-4.8787,-4.8787,-4.8874,-4.8909,-4.8909,-4.8909,-4.8909,-4.8909,-4.8909,-4.8909,-4.8909,-4.8909,-4.8909,-4.8909,-4.8909,-4.8909,-4.8909,-4.8946,-4.8964,-4.8983,-4.9856,-5.0265,-3.5446,0.0,0.0,-3.5577,-3.5622,-3.5622,-3.5622,-3.5622,-3.5622,-3.5622,-3.5622,-3.5622,-3.5622,-3.5622,-3.5622,-3.5622,-3.5622,-3.5622,-3.5622,-3.5622,-3.5622,-3.5622,-3.5622,-3.5622,0.0,0.0,0.0,0.0,0.0,-3.5622,-3.5622,-3.5622,-3.5622,-3.5622,-3.5622,-3.5622,-3.5622,-3.5728,-3.5905,-3.6122,-3.6385,-3.6632,-3.6948,-3.76,-3.8024,-3.8331,-3.9607,-4.0835,-4.1905,-4.2428,-4.2953,-4.3463,-4.3497,-4.3497,-4.3497,-4.3497,-4.3497,-4.3497,-4.3497,-4.3497,-4.3497,-4.3497,-4.3497,-4.3497,-4.3497,-4.3497,-4.3497,-4.3497,-4.3497,-4.3497,-4.3497,-4.3497,-4.3626,-4.4158,-4.5296,-4.6342,-4.6617,-4.7315,-4.7976,-4.8251,-4.8306,-4.8306,-4.8306,-4.8306,-4.8306,-4.8306,-4.8363,-4.8401,-4.8513,-4.8569,-4.8661,-4.8787,-4.8822,-4.8839,-4.8909,-4.8909,-4.8909,-4.8909,-4.8909,-4.8909,-4.8909,-4.8909,-4.8909,-4.8909,-4.8909,-4.8909,-4.8909,-4.8909,-4.8909,-4.8909,-4.9224,-4.9373,-3.552,0.0,0.0,0.0,-3.5622,-3.5622,-3.5622,0.0,-3.5622,-3.5622,-3.5622,-3.5622,-3.5622,-3.5622,-3.5622,-3.5622,-3.5622,-3.5622,-3.5622,-3.5622,-3.5622,-3.5622,-3.5622,-3.5622,0.0,0.0,0.0,0.0,0.0,0.0,-3.5622,-3.5622,-3.5622,-3.5622,-3.5622,-3.5622,-3.5667,-3.5817,-3.5993,-3.6251,-3.6527,-3.6811,-3.7105,-3.7466,-3.7757,-3.8003,-3.88,-4.0081,-4.1697,-4.2077,-4.2713,-4.3497,-4.3497,-4.3497,-4.3497,-4.3497,-4.3497,-4.3497,-4.3497,-4.3497,-4.3497,-4.3497,-4.3497,-4.3497,-4.3497,-4.3497,-4.3497,-4.3497,-4.3497,-4.3497,-4.3497,-4.3699,-4.4176,-4.5259,-4.6342,-4.7186,-4.7462,-4.7921,-4.8306,-4.8306,-4.8306,-4.8306,-4.8306,-4.8306,-4.8306,-4.8306,-4.8306,-4.8306,-4.8419,-4.8457,-4.8569,-4.8697,-4.8787,-4.8822,-4.8909,-4.8909,-4.8909,-4.8909,-4.8909,-4.8909,-4.8909,-4.8909,-4.8909,-4.8909,-4.8909,-4.8909,-4.8909,-4.8909,-4.8909,-4.8909,-4.8909,-4.8909,0.0,0.0,0.0,0.0,0.0,0.0,-3.5622,0.0,-3.5622,-3.5622,-3.5622,-3.5622,-3.5622,-3.5622,-3.5622,-3.5622,-3.5622,-3.5622,-3.5622,-3.5622,-3.5622,-3.5622,-3.5622,-3.5622,0.0,0.0,0.0,0.0,-3.5622,-3.5622,-3.5622,-3.5622,-3.5622,-3.5622,-3.5622,-3.5667,-3.5817,-3.5932,-3.6105,-3.6301,-3.665,-3.6987,-3.7297,-3.7613,-3.788,-3.8101,-3.8318,-3.9378,-4.1049,-4.1904,-4.2745,-4.3461,-4.3479,-4.3497,-4.3497,-4.3497,-4.3497,-4.3497,-4.3497,-4.3497,-4.3497,-4.3497,-4.3497,-4.3497,-4.3497,-4.3497,-4.3497,-4.3497,-4.3497,-4.3497,-4.3516,-4.4121,-4.5149,-4.6746,-4.7094,-4.737,-4.8141,-4.8306,-4.8306,-4.8306,-4.8306,-4.8306,-4.8306,-4.8306,-4.8306,-4.8306,-4.8306,-4.8306,-4.8306,-4.8401,-4.8532,-4.8587,-4.8732,-4.8822,-4.8909,-4.8909,-4.8909,-4.8909,-4.8909,-4.8909,-4.8909,-4.8909,-4.8909,-4.8909,-4.8909,-4.8909,-4.8909,-4.8909,-4.8909,-4.8909,-4.8909,-4.8909,-3.5577,0.0,0.0,0.0,0.0,0.0,0.0,0.0,-3.5622,-3.5622,-3.5622,-3.5622,-3.5622,-3.5622,-3.5622,-3.5622,-3.5622,-3.5622,-3.5622,-3.5622,-3.5622,-3.5622,-3.5622,-3.5622,0.0,0.0,0.0,0.0,-3.5622,-3.5622,-3.5622,-3.5622,-3.5622,-3.5728,-3.5711,-3.5817,-3.5932,-3.6148,-3.6343,-3.6492,-3.697,-3.7297,-3.7521,-3.7827,-3.8086,-3.8256,-3.8433,-3.9145,-4.0272,-4.1111,-4.1919,-4.269,-4.3259,-4.3497,-4.3497,-4.3497,-4.3497,-4.3497,-4.3497,-4.3497,-4.3497,-4.3497,-4.3497,-4.3497,-4.3497,-4.3497,-4.3497,-4.3497,-4.3497,-4.3626,-4.4213,-4.4966,-4.5828,-4.6874,-4.7553,-4.8031,-4.8251,-4.8306,-4.8306,-4.8306,-4.8306,-4.8306,-4.8306,-4.8306,-4.8306,-4.8306,-4.8306,-4.8306,-4.8306,-4.8306,-4.842,-4.8587,-4.8623,-4.8714,-4.8909,-4.8909,-4.8909,-4.8909,-4.8909,-4.8909,-4.8909,-4.8909,-4.8909,-4.8909,-4.8909,-4.8909,-4.8909,-4.8909,-4.8909,-4.8909,-4.8909,-4.8909,-3.5622,-3.5622,-3.5622,-3.5622,0.0,0.0,-3.5622,-3.5622,-3.5622,0.0,-3.5622,-3.5622,-3.5622,-3.5622,-3.5622,-3.5622,-3.5622,-3.5622,-3.5622,-3.5622,-3.5622,-3.5622,-3.5622,-3.5622,0.0,-3.5622,-3.5622,-3.5622,-3.5622,-3.5622,-3.5622,-3.5667,-3.5728,-3.5817,-3.5861,-3.5975,-3.6131,-3.6318,-3.6509,-3.6753,-3.7164,-3.7484,-3.7739,-3.7984,-3.8219,-3.8368,-3.8478,-3.8847,-3.9496,-4.0634,-4.1589,-4.2378,-4.3185,-4.3497,-4.3497,-4.3497,-4.3497,-4.3497,-4.3497,-4.3497,-4.3497,-4.3497,-4.3497,-4.3497,-4.3497,-4.3497,-4.3497,-4.3497,-4.3736,-4.4195,-4.5002,-4.581,-4.6617,-4.7425,-4.7976,-4.8306,-4.8306,-4.8306,-4.8306,-4.8306,-4.8306,-4.8306,-4.8306,-4.8306,-4.8306,-4.8306,-4.8306,-4.8306,-4.8306,-4.8306,-4.8382,-4.8587,-4.8587,-4.866,-4.8874,-4.8909,-4.8909,-4.8909,-4.8909,-4.8909,-4.8909,-4.8909,-4.8909,-4.8909,-4.8909,-4.8909,-4.8909,-4.8909,-4.8909,-4.8909,-4.8909,-4.8909,-3.5622,-3.5622,-3.5622,-3.5622,-3.5622,0.0,-3.5622,-3.5622,-3.5622,0.0,-3.5622,-3.5622,-3.5622,-3.5622,-3.5622,-3.5622,-3.5622,-3.5622,-3.5622,-3.5622,-3.5622,-3.5622,-3.5622,0.0,-3.5622,-3.5622,-3.5622,-3.5622,-3.5622,-3.5622,-3.5622,-3.5728,-3.5817,-3.5817,-3.5975,-3.6148,-3.6301,-3.6485,-3.6708,-3.7027,-3.7317,-3.7613,-3.7934,-3.8052,-3.8267,-3.851,-3.851,-3.8609,-3.8836,-4.0451,-4.1534,-4.2268,-4.3149,-4.3497,-4.3497,-4.3497,-4.3497,-4.3497,-4.3497,-4.3497,-4.3497,-4.3497,-4.3497,-4.3497,-4.3497,-4.3497,-4.3497,-4.3497,-4.4085,-4.4892,-4.5681,-4.6507,-4.7315,-4.8122,-4.8306,-4.8306,-4.8306,-4.8306,-4.8306,-4.8306,-4.8306,-4.8306,-4.8306,-4.8306,-4.8306,-4.8306,-4.8306,-4.8306,-4.8306,-4.8306,-4.8382,-4.8587,-4.8587,-4.866,-4.8874,-4.8909,-4.8909,-4.8909,-4.8909,-4.8909,-4.8909,-4.8909,-4.8909,-4.8909,-4.8909,-4.8909,-4.8909,-4.8909,-4.8909,-4.8909,-4.8909,-4.8909,-3.5622,-3.5622,-3.5622,-3.5622,-3.5622,0.0,-3.5622,-3.5622,-3.5622,0.0,-3.5622,-3.5622,-3.5622,-3.5622,-3.5622,-3.5622,-3.5622,-3.5622,-3.5622,-3.5622,-3.5622,-3.5622,-3.5622,0.0,-3.5622,-3.5622,-3.5622,-3.5622,-3.5622,-3.5622,-3.5622,-3.5728,-3.5861,-3.5975,-3.6131,-3.6301,-3.6444,-3.6731,-3.7027,-3.7259,-3.7485,-3.7774,-3.8086,-3.8252,-3.8415,-3.851,-3.8609,-3.8676,-3.8836,-4.0451,-4.1203,-4.1497,-4.2928,-4.3497,-4.3497,-4.3497,-4.3497,-4.3497,-4.3497,-4.3497,-4.3497,-4.3497,-4.3497,-4.3497,-4.3497,-4.3497,-4.3497,-4.3497,-4.4085,-4.4892,-4.5681,-4.6507,-4.7315,-4.8122,-4.8306,-4.8306,-4.8306,-4.8306,-4.8306,-4.8306,-4.8306,-4.8306,-4.8306,-4.8306,-4.8306,-4.8306,-4.8306,-4.8306,-4.8306,-4.8306,-4.8382,-4.8587,-4.8587,-4.866,-4.8874,-4.8909,-4.8909,-4.8909,-4.8909,-4.8909,-4.8909,-4.8909,-4.8909,-4.8909,-4.8909,-4.8909,-4.8909,-4.8909,-4.8909,-4.8909,-4.8909,-4.8909,-3.5622,-3.5622,-3.5622,-3.5622,-3.5622,0.0,0.0,-3.5622,-3.5622,-3.5622,-3.5622,-3.5622,-3.5622,-3.5622,-3.5622,-3.5622,-3.5622,-3.5622,-3.5622,-3.5622,-3.5622,-3.5622,-3.5622,0.0,-3.5622,-3.5622,-3.5622,-3.5622,-3.5622,-3.5622,-3.5684,-3.5817,-3.5975,-3.6131,-3.6318,-3.6527,-3.6748,-3.7027,-3.7259,-3.7447,-3.7703,-3.7984,-3.8204,-3.8318,-3.8465,-3.8609,-3.8658,-3.8707,-3.8836,-4.0451,-4.1111,-4.1277,-4.2873,-4.3497,-4.3497,-4.3497,-4.3497,-4.3497,-4.3497,-4.3497,-4.3497,-4.3497,-4.3497,-4.3497,-4.3497,-4.3497,-4.3497,-4.3497,-4.436,-4.5388,-4.5792,-4.6801,-4.781,-4.8214,-4.8306,-4.8306,-4.8306,-4.8306,-4.8306,-4.8306,-4.8306,-4.8306,-4.8306,-4.8306,-4.8306,-4.8306,-4.8306,-4.8306,-4.8306,-4.8306,-4.8382,-4.8587,-4.8587,-4.866,-4.8874,-4.8909,-4.8909,-4.8909,-4.8909,-4.8909,-4.8909,-4.8909,-4.8909,-4.8909,-4.8909,-4.8909,-4.8909,-4.8909,-4.8909,-4.8909,-4.8909,-4.8909,-3.5622,-3.5622,-3.5622,-3.5622,-3.5622,-3.5622,0.0,0.0,0.0,-3.5622,0.0,-3.5622,-3.5622,0.0,0.0,0.0,0.0,0.0,0.0,-3.5622,0.0,-3.5622,-3.5622,0.0,-3.5622,-3.5622,-3.5622,-3.5622,-3.5622,-3.5684,-3.5773,-3.5949,-3.6105,-3.6301,-3.6461,-3.6708,-3.6987,-3.722,-3.741,-3.7613,-3.788,-3.8119,-3.8322,-3.8401,-3.8528,-3.8707,-3.8707,-3.8707,-3.8817,-4.0286,-4.0965,-4.1277,-4.2873,-4.3497,-4.3497,-4.3497,-4.3497,-4.3497,-4.3497,-4.3497,-4.3497,-4.3497,-4.3497,-4.3497,-4.3497,-4.3497,-4.3497,-4.3497,-4.4654,-4.5902,-4.5902,-4.7095,-4.8306,-4.8306,-4.8306,-4.8306,-4.8306,-4.8306,-4.8306,-4.8306,-4.8306,-4.8306,-4.8306,-4.8306,-4.8306,-4.8306,-4.8306,-4.8306,-4.8306,-4.8306,-4.8382,-4.8587,-4.8587,-4.866,-4.8874,-4.8909,-4.8909,-4.8909,-4.8909,-4.8909,-4.8909,-4.8909,-4.8909,-4.8909,-4.8909,-4.8909,-4.8909,-4.8909,-4.8909,-4.8909,-4.8909,-4.8909,-3.5622,-3.5622,-3.5622,-3.5622,-3.5622,-3.5622,-3.5622,0.0,-3.5622,-3.5622,0.0,-3.5622,-3.5622,0.0,0.0,0.0,0.0,0.0,-3.5622,-3.5622,-3.5622,-3.5622,-3.5622,-3.5622,0.0,-3.5622,-3.5622,-3.5622,-3.5711,-3.5773,-3.5817,-3.6036,-3.6191,-3.6301,-3.6544,-3.6766,-3.6987,-3.7279,-3.7503,-3.7703,-3.7966,-3.8168,-3.8382,-3.8446,-3.8559,-3.8707,-3.8707,-3.8707,-3.8781,-3.9662,-4.0469,-4.1277,-4.2873,-4.3497,-4.3497,-4.3497,-4.3497,-4.3497,-4.3497,-4.3497,-4.3497,-4.3497,-4.3497,-4.3497,-4.3497,-4.3497,-4.3497,-4.3497,-4.4654,-4.5902,-4.5902,-4.7095,-4.8306,-4.8306,-4.8306,-4.8306,-4.8306,-4.8306,-4.8306,-4.8306,-4.8306,-4.8306,-4.8306,-4.8306,-4.8306,-4.8306,-4.8306,-4.8306,-4.8306,-4.8306,-4.8382,-4.8587,-4.8587,-4.866,-4.8874,-4.8909,-4.8909,-4.8909,-4.8909,-4.8909,-4.8909,-4.8909,-4.8909,-4.8909,-4.8909,-4.8909,-4.8909,-4.8909,-4.8909,-4.8909,-4.8909,-4.8909,-3.5622,-3.5622,-3.5622,0.0,0.0,0.0,-3.5622,0.0,-3.5622,0.0,0.0,0.0,0.0,0.0,0.0,0.0,-3.5622,0.0,0.0,0.0,-3.5622,0.0,0.0,0.0,0.0,0.0,0.0,0.0,-3.5844,-3.5949,-3.6036,-3.6165,-3.6318,-3.6544,-3.6748,-3.6948,-3.7182,-3.7449,-3.7649,-3.781,-3.807,-3.8271,-3.8415,-3.8478,-3.8559,-3.8707,-3.8707,-3.8707,-3.8762,-3.957,-4.0377,-4.1222,-4.2359,-4.3075,-4.3497,-4.3497,-4.3497,-4.3497,-4.3497,-4.3497,-4.3497,-4.3497,-4.3497,-4.3497,-4.3497,-4.3497,-4.3497,-4.3497,-4.4323,-4.5314,-4.5773,-4.6746,-4.7737,-4.8196,-4.8306,-4.8306,-4.8306,-4.8306,-4.8306,-4.8306,-4.8306,-4.8306,-4.8306,-4.8306,-4.8306,-4.8306,-4.8306,-4.8306,-4.8306,-4.8363,-4.8476,-4.8587,-4.8678,-4.8768,-4.8909,-4.8909,-4.8909,-4.8909,-4.8909,-4.8909,-4.8909,-4.8909,-4.8909,-4.8909,-4.8909,-4.8909,-4.8909,-4.8909,-4.8909,-4.8909,-4.8909,-4.8909,-3.5622,0.0,0.0,0.0,0.0,0.0,0.0,0.0,0.0,0.0,0.0,0.0,0.0,0.0,-3.5667,-3.5667,0.0,-3.5711,0.0,-3.5711,0.0,0.0,0.0,0.0,0.0,0.0,0.0,-3.5861,-3.5975,-3.6105,-3.6208,-3.636,-3.6527,-3.6766,-3.6908,-3.7143,-3.7372,-3.7595,-3.7792,-3.7916,-3.8189,-3.8336,-3.8415,-3.8528,-3.8609,-3.8707,-3.8707,-3.8707,-3.8762,-3.9331,-4.0175,-4.1167,-4.1754,-4.2598,-4.3497,-4.3497,-4.3497,-4.3497,-4.3497,-4.3497,-4.3497,-4.3497,-4.3497,-4.3497,-4.3497,-4.3497,-4.3497,-4.3497,-4.4085,-4.4837,-4.5424,-4.6342,-4.726,-4.7847,-4.8141,-4.8306,-4.8306,-4.8306,-4.8306,-4.8306,-4.8306,-4.8306,-4.8306,-4.8306,-4.8306,-4.8306,-4.8306,-4.8306,-4.8363,-4.8457,-4.8532,-4.8642,-4.8732,-4.8822,-4.8909,-4.8909,-4.8909,-4.8909,-4.8909,-4.8909,-4.8909,-4.8909,-4.8909,-4.8909,-4.8909,-4.8909,-4.8909,-4.8909,-4.8909,-4.8909,-4.8909,-4.8909,0.0,0.0,0.0,-3.5622,0.0,0.0,0.0,0.0,-3.5622,0.0,0.0,0.0,-3.5622,-3.5728,-3.5773,-3.5773,-3.5888,0.0,0.0,-3.5975,-3.5932,-3.5817,0.0,0.0,0.0,-3.5975,-3.5975,-3.5975,-3.6174,-3.6301,-3.6301,-3.6544,-3.6766,-3.6987,-3.6987,-3.7164,-3.7594,-3.7667,-3.781,-3.7984,-3.8252,-3.8382,-3.8433,-3.8578,-3.8707,-3.8707,-3.8707,-3.8707,-3.8707,-3.8726,-3.968,-4.1111,-4.1148,-4.2121,-4.3497,-4.3497,-4.3497,-4.3497,-4.3497,-4.3497,-4.3497,-4.3497,-4.3497,-4.3497,-4.3497,-4.3497,-4.3497,-4.3497,-4.4085,-4.4727,-4.4745,-4.592,-4.7131,-4.715,-4.7737,-4.8306,-4.8306,-4.8306,-4.8306,-4.8306,-4.8306,-4.8306,-4.8306,-4.8306,-4.8306,-4.8306,-4.8306,-4.8363,-4.8475,-4.8513,-4.8587,-4.8751,-4.8787,-4.8822,-4.8909,-4.8909,-4.8909,-4.8909,-4.8909,-4.8909,-4.8909,-4.8909,-4.8909,-4.8909,-4.8909,-4.8909,-4.8909,-4.8909,-4.8909,-4.8909,-4.8909,-4.8909,0.0,0.0,-3.5622,-3.5622,0.0,0.0,0.0,0.0,0.0,0.0,0.0,0.0,0.0,-3.5844,-3.5932,-3.5932,-3.5975,-3.6019,0.0,-3.6251,-3.6318,-3.6293,-3.6105,-3.6019,0.0,0.0,0.0,-3.6318,-3.6461,-3.6544,-3.6544,-3.6788,-3.6948,-3.6987,-3.7164,-3.7354,-3.7577,-3.7739,-3.7898,-3.8068,-3.8285,-3.8415,-3.8478,-3.8627,-3.8707,-3.8707,-3.8707,-3.8707,-3.8707,-3.8707,-3.9331,-4.0359,-4.0891,-4.1772,-4.2763,-4.3296,-4.3497,-4.3497,-4.3497,-4.3497,-4.3497,-4.3497,-4.3497,-4.3497,-4.3497,-4.3497,-4.3497,-4.3497,-4.3699,-4.403,-4.4562,-4.5112,-4.5663,-4.6195,-4.6507,-4.6856,-4.7407,-4.7517,-4.7682,-4.8214,-4.8306,-4.8306,-4.8306,-4.8306,-4.8306,-4.8306,-4.8306,-4.8363,-4.8457,-4.855,-4.8624,-4.8787,-4.8857,-4.8874,-4.8909,-4.8909,-4.8909,-4.8909,-4.8909,-4.8909,-4.8909,-4.8909,-4.8909,-4.8909,-4.8909,-4.8909,-4.8909,-4.8909,-4.8909,-4.8909,-4.8909,-4.8909,-3.5492,-3.552,0.0,-3.5577,-3.5622,0.0,-3.5622,0.0,-3.5622,0.0,0.0,0.0,0.0,-3.5949,-3.6062,-3.6105,-3.6148,-3.6233,0.0,-3.6502,-3.6626,-3.6626,-3.6402,-3.6293,-3.6353,-3.6419,-3.6485,-3.6585,-3.6708,-3.6806,0.0,0.0,-3.7143,-3.7126,-3.7354,-3.754,-3.7703,-3.7846,-3.8002,-3.8153,-3.8318,-3.8446,-3.8491,-3.8658,-3.8707,-3.8707,-3.8707,-3.8707,-3.8707,-3.8707,-3.9166,-3.9974,-4.0799,-4.1589,-4.2396,-4.3185,-4.3497,-4.3497,-4.3497,-4.3497,-4.3497,-4.3497,-4.3497,-4.3497,-4.3497,-4.3497,-4.3497,-4.3497,-4.3497,-4.3608,-4.414,-4.4488,-4.4837,-4.5351,-4.5681,-4.6049,-4.6562,-4.6673,-4.6929,-4.7737,-4.7884,-4.7976,-4.8251,-4.8306,-4.8306,-4.8306,-4.8363,-4.8401,-4.8513,-4.8605,-4.8714,-4.8804,-4.8874,-4.8909,-4.8909,-4.8909,-4.8909,-4.8909,-4.8909,-4.8909,-4.8909,-4.8909,-4.8909,-4.8909,-4.8909,-4.8909,-4.8909,-4.8909,-4.8909,-4.8909,-4.8909,-4.8909]}]]